GFSGBSN_con_mucape_000.txt.gz
CAPE
44 37 14 34 17 3 5 11 0 0 0 0 0 0 18 20 16 14 1 35 46 83 103 141 152 187 73 26 0 0 0 0 0 0 19 67 46 38 9 0 0 0 0 0 0 0 0
28 22 40 34 31 28 16 10 10 0 0 0 0 0 0 23 32 28 30 15 35 98 132 232 376 309 39 0 0 0 0 0 1 0 8 65 31 0 22 14 5 0 0 0 0 0 0
29 15 30 26 22 29 18 6 10 0 0 0 0 0 22 25 16 37 47 39 36 106 146 275 424 104 31 0 0 0 0 0 0 1 0 47 79 33 21 29 7 20 0 0 0 0 0
34 19 15 13 11 27 14 6 5 0 0 0 0 57 34 36 20 31 34 57 67 176 169 283 385 61 0 0 0 0 0 0 0 0 0 158 165 32 22 15 28 31 17 1 0 0 0
46 33 16 13 15 29 29 24 5 0 3 8 4 4 6 49 54 70 52 72 97 132 171 269 112 29 27 0 0 0 0 0 1 0 19 178 61 33 40 30 6 22 0 0 0 0 0
36 41 42 25 21 29 26 35 10 10 0 0 4 6 7 0 44 56 74 46 90 61 59 55 64 5 0 0 0 0 0 11 20 0 2 176 49 47 31 46 0 0 0 0 0 0 0
37 29 39 37 24 28 3 25 13 4 5 6 9 9 4 1 0 71 71 31 0 0 26 0 0 0 2 0 0 0 0 29 28 0 0 121 77 29 0 0 0 21 0 0 0 0 0
32 34 36 31 20 24 3 7 10 1 3 1 13 7 1 1 20 87 17 0 0 4 0 0 37 13 28 40 74 4 1 7 0 0 0 108 0 4 2 6 7 32 18 2 0 0 0
32 36 33 32 26 13 0 3 9 1 0 4 3 3 1 0 64 62 20 0 68 31 0 0 0 25 10 26 38 8 0 24 0 1 0 0 18 8 0 1 7 3 14 0 0 0 0
44 38 36 36 30 23 0 4 3 5 0 0 3 4 0 0 0 2 0 0 47 4 0 0 4 1 15 32 26 31 5 32 0 0 0 30 8 8 0 1 3 9 1 19 20 8 0
61 40 61 54 31 37 14 13 7 3 10 0 12 3 6 0 0 0 2 0 0 0 0 0 3 3 11 6 27 62 3 7 0 0 0 11 11 4 31 6 0 0 4 35 20 3 0
77 60 59 70 60 53 39 0 11 13 11 6 2 0 4 0 0 7 1 6 0 0 0 0 36 9 7 0 61 62 75 73 30 0 0 12 14 22 23 17 1 0 26 5 26 2 0
97 74 69 66 65 58 50 8 0 24 8 9 3 0 19 0 0 0 0 0 0 0 0 1 19 26 23 0 51 39 0 0 1 0 0 0 10 13 2 3 28 12 3 4 0 0 0
81 72 53 40 51 68 48 40 0 27 12 7 4 15 0 2 1 0 0 0 0 0 0 30 46 0 0 25 43 0 11 0 9 0 0 0 0 43 11 0 0 25 0 0 0 0 0
67 59 51 46 29 59 47 0 0 7 11 8 8 0 0 0 1 0 0 0 2 0 3 39 25 0 0 2 13 82 0 0 0 0 0 0 0 0 5 0 0 7 0 0 0 0 0
65 54 36 32 0 0 18 0 0 0 5 11 0 0 0 1 3 0 0 0 19 3 0 0 0 0 0 0 0 0 0 2 19 0 0 0 0 0 0 10 5 0 0 0 0 0 0
62 44 33 28 0 0 0 0 0 0 9 1 0 0 0 5 2 0 0 0 5 1 0 0 10 0 0 0 1 0 0 0 1 0 0 0 0 0 24 0 0 1 0 0 0 0 0
60 37 24 37 0 0 0 0 0 0 0 0 0 0 3 9 0 0 0 0 0 0 44 18 0 0 0 0 0 5 0 0 0 0 0 0 0 0 0 0 0 0 0 0 0 0 0
62 31 21 29 0 0 0 0 0 0 0 0 0 3 4 11 5 0 0 0 0 0 0 0 0 0 0 0 0 2 3 0 0 0 0 0 0 0 0 1 0 0 0 0 0 0 0
57 27 22 0 0 0 0 0 0 0 0 0 0 6 7 7 1 0 3 0 0 0 0 0 0 0 0 0 0 2 0 2 1 0 2 0 0 0 0 0 0 0 0 0 0 0 0
57 32 14 0 0 0 0 0 0 0 0 0 0 0 2 0 0 0 0 0 0 0 0 0 0 0 0 20 0 0 0 0 1 2 0 1 0 12 0 0 0 0 0 0 0 0 0
54 33 13 0 0 0 0 0 0 0 0 0 0 0 0 0 0 0 2 0 0 0 0 0 0 0 24 6 0 0 0 0 0 0 32 16 5 21 0 0 0 0 0 0 0 0 0
53 33 9 0 0 0 0 0 0 0 0 0 0 0 0 0 0 0 0 0 0 0 0 0 0 0 1 1 0 2 0 0 0 0 0 4 0 0 0 0 0 0 0 0 0 0 0
54 35 5 0 0 0 0 0 0 0 0 0 0 0 0 1 0 0 4 1 0 0 0 0 0 0 0 0 16 33 19 11 15 8 7 0 23 0 0 0 0 0 0 0 0 0 0
53 29 9 0 0 0 0 0 0 0 0 0 0 0 0 0 0 1 0 0 0 0 0 0 0 0 0 1 0 0 3 6 19 14 11 13 32 0 0 0 0 0 0 0 0 0 0
36 39 14 0 0 0 0 0 0 0 0 0 0 0 0 0 0 0 0 0 0 0 0 0 0 1 7 0 2 0 0 0 0 0 16 14 7 0 0 0 0 0 2 0 0 0 0
68 50 10 1 0 0 0 0 0 0 0 0 0 0 0 0 0 0 0 0 0 0 0 0 0 0 0 0 0 0 1 1 0 1 1 1 2 0 0 0 0 0 0 0 0 0 0
21 43 18 0 0 0 0 0 0 0 0 0 0 0 0 0 0 0 0 0 0 0 0 0 0 0 0 0 0 0 7 0 0 0 1 2 0 0 0 0 0 0 0 0 0 0 0
28 33 3 0 0 0 0 0 0 0 0 0 0 0 0 0 0 0 0 0 0 0 0 0 0 0 0 0 0 0 0 0 0 0 0 0 0 0 0 0 0 0 0 0 0 0 0

GFSGBSN_con_mucape_003.txt.gz
CAPE
66 35 37 55 44 33 20 3 0 0 0 0 0 0 0 0 0 20 25 6 25 48 63 69 73 103 29 36 3 11 5 0 0 9 0 2 82 50 26 0 0 0 0 0 0 0 0
54 39 30 45 34 44 51 31 0 0 0 0 0 0 0 0 0 41 34 23 17 41 92 93 115 100 3 12 0 0 0 0 0 13 0 0 35 15 62 5 11 0 2 0 0 0 0
40 41 29 27 17 24 45 39 5 1 0 0 0 0 0 11 46 28 32 44 29 23 97 108 125 41 30 0 0 0 0 0 0 3 0 0 83 41 25 56 10 18 15 0 0 0 0
45 46 42 24 18 18 21 34 19 2 3 0 2 0 5 1 1 32 46 52 77 104 94 105 69 33 0 1 0 0 0 0 7 0 0 3 86 62 28 50 46 38 34 5 0 0 0
42 42 61 40 23 26 29 33 39 5 4 0 0 0 3 8 2 55 72 76 91 105 110 69 29 33 0 4 0 0 0 0 17 25 15 8 99 97 37 47 53 48 8 0 0 0 0
28 42 54 52 38 29 38 21 45 13 6 0 0 0 1 11 4 8 67 85 79 78 38 44 18 7 3 2 0 0 0 2 77 71 26 93 198 67 53 17 33 33 3 3 0 0 0
33 54 51 62 45 31 29 27 30 14 4 7 0 0 0 8 1 0 12 37 0 0 0 0 0 0 13 5 13 5 0 0 38 74 0 0 88 65 0 25 3 7 0 0 0 0 0
37 56 52 55 40 34 19 22 0 5 2 3 0 0 3 5 0 0 58 0 0 0 0 0 0 0 0 48 171 32 0 0 16 0 0 1 77 47 1 25 11 0 2 0 0 0 0
46 40 71 54 42 35 26 0 0 0 5 2 0 0 6 3 0 0 0 0 2 3 0 0 0 3 9 0 46 69 0 1 67 0 0 0 15 17 0 20 27 1 0 3 0 3 1
74 72 83 62 43 41 46 33 0 0 2 11 9 16 0 4 0 0 0 0 0 1 0 0 0 0 12 68 20 32 0 5 60 0 0 0 27 19 8 11 0 0 1 0 10 7 0
68 81 74 71 65 56 44 49 2 0 0 9 8 19 0 0 1 0 0 0 0 0 0 0 0 4 0 1 16 14 0 40 27 0 0 16 38 0 2 16 0 1 4 11 16 17 5
77 101 89 78 67 63 54 46 49 0 0 10 12 5 47 2 0 0 0 0 0 0 0 0 0 0 20 12 63 73 1 39 55 0 0 53 28 92 10 4 2 4 7 0 6 14 0
71 99 103 85 68 64 55 51 51 30 0 8 13 29 25 0 0 0 0 0 0 0 0 0 0 15 5 0 4 38 7 0 1 0 7 23 41 36 76 30 4 11 6 0 0 0 0
90 85 72 69 67 60 59 58 49 32 0 5 14 29 0 0 6 0 0 0 0 0 0 1 6 31 13 0 36 36 0 0 3 0 9 0 21 5 1 2 17 4 1 0 0 0 0
79 83 80 59 61 55 55 59 0 0 0 0 0 0 0 0 0 0 0 0 0 1 0 0 24 0 0 0 29 9 0 0 0 0 1 0 0 23 1 0 0 53 0 0 0 0 0
85 74 64 63 45 46 46 0 0 0 0 0 3 0 3 0 4 0 0 0 0 1 0 0 0 0 0 0 0 0 0 0 2 0 0 0 0 0 14 20 7 0 0 8 0 0 0
102 79 66 67 51 41 23 0 0 0 0 0 0 0 0 3 2 0 0 0 0 5 0 0 0 0 0 0 0 0 0 0 0 1 0 0 0 0 2 1 10 0 3 0 0 0 0
78 89 62 56 36 36 0 0 0 0 0 0 0 7 9 5 0 0 0 0 0 1 0 11 0 0 0 0 0 0 0 0 0 0 0 0 0 0 0 0 1 0 0 12 0 0 0
49 90 68 45 28 0 0 0 0 0 0 0 0 2 1 5 0 1 0 0 0 0 34 28 0 0 0 1 0 16 10 0 0 2 0 0 0 0 0 0 0 0 3 2 0 0 0
16 86 71 37 26 0 0 0 0 0 0 0 0 0 2 5 0 0 0 0 0 0 0 19 0 0 0 0 0 8 0 0 2 0 0 0 3 1 2 2 2 1 0 0 0 0 0
7 82 77 44 30 0 0 0 0 0 0 0 0 0 1 0 0 0 0 0 0 0 0 12 0 0 0 0 0 0 0 0 5 0 0 0 0 0 0 0 0 0 0 1 0 0 0
13 37 80 48 30 0 0 0 0 0 0 0 0 0 0 0 0 0 0 0 0 0 0 0 1 0 0 0 0 0 1 0 0 2 0 0 0 4 0 0 0 0 0 0 0 0 0
12 29 82 57 25 0 0 0 0 0 0 0 0 0 0 2 0 0 0 1 0 0 0 0 0 0 1 22 9 0 0 1 9 1 0 0 0 0 1 16 3 0 0 0 0 0 0
8 19 51 51 15 0 0 0 0 0 0 0 0 0 0 2 0 0 2 0 0 0 0 0 0 3 6 14 3 0 0 2 6 4 6 14 0 0 0 5 0 0 0 0 0 0 0
0 13 28 37 4 0 0 0 0 0 0 0 0 0 0 0 3 5 3 0 0 0 0 0 4 6 14 13 3 9 4 0 0 6 0 0 2 1 0 0 0 0 0 0 0 0 0
4 30 31 44 6 0 0 0 0 0 0 0 0 0 0 0 0 0 0 0 0 0 0 0 11 4 1 11 17 0 0 0 0 0 0 0 0 0 0 0 0 0 0 1 0 0 0
1 33 30 43 4 0 0 0 0 0 0 0 0 0 0 0 0 0 0 0 5 0 0 0 0 0 0 0 0 0 0 1 0 0 0 0 0 0 0 0 0 9 3 0 0 0 0
1 26 28 36 7 0 0 0 0 1 0 0 0 0 0 0 0 0 0 0 0 0 0 0 0 0 0 0 0 0 0 0 0 0 0 0 0 0 2 0 0 0 0 0 0 0 0
0 28 34 31 14 0 0 0 0 1 0 0 0 0 0 0 0 0 0 0 0 0 0 0 1 0 0 0 0 0 0 0 0 0 6 4 2 2 2 0 0 0 0 0 0 0 0

GFSGBSN_con_mucape_006.txt.gz
CAPE
38 83 35 31 40 33 39 10 2 0 0 7 0 0 0 0 0 0 0 0 0 13 32 51 51 58 60 33 10 28 6 0 0 8 14 0 47 42 164 105 33 0 1 0 0 0 0
32 64 69 28 35 38 23 60 34 0 2 3 0 0 0 0 0 0 0 0 0 1 37 76 73 80 37 0 1 0 2 0 0 2 7 6 45 45 24 154 83 3 0 0 0 0 0
21 42 68 40 28 28 20 34 44 7 1 3 0 0 0 0 0 5 0 0 13 37 29 67 81 66 40 0 0 0 0 0 0 0 5 6 6 181 38 175 140 58 25 20 0 0 0
34 50 68 59 37 26 27 21 41 19 4 2 8 0 0 0 0 0 4 6 51 117 53 42 36 44 0 0 0 0 0 0 0 0 0 5 30 54 202 137 171 153 77 59 0 4 0
33 66 58 50 50 44 37 41 56 39 24 0 6 7 0 0 0 2 10 24 74 79 86 54 28 16 0 0 0 0 0 0 0 0 0 1 51 106 270 56 142 145 53 18 12 3 0
25 36 79 64 62 47 36 44 36 17 39 1 13 34 0 0 0 3 6 18 72 18 16 1 9 0 0 0 0 0 0 0 34 144 123 106 9 179 283 137 65 31 42 18 22 2 0
52 38 71 78 59 62 39 35 28 0 30 14 15 36 0 0 0 7 3 0 0 0 0 0 0 0 0 0 0 3 0 0 46 223 90 78 7 44 62 50 61 0 21 19 9 0 0
75 52 44 74 72 72 42 28 20 0 0 2 10 32 46 67 0 5 0 0 0 0 0 0 0 0 14 8 34 28 18 0 11 18 153 43 8 38 57 114 67 34 9 13 18 0 0
74 80 52 74 99 77 52 39 23 1 0 4 6 22 42 3 2 1 1 0 0 0 0 0 0 0 0 8 71 100 53 0 2 3 22 14 0 23 94 98 58 37 0 8 6 0 3
82 84 96 88 80 81 78 66 43 10 0 0 8 22 51 11 0 0 0 0 0 0 0 0 0 0 0 67 20 23 71 4 52 0 5 3 6 98 93 75 93 48 33 8 6 37 46
106 108 106 83 63 70 69 76 61 48 14 0 3 11 54 19 0 0 0 0 0 0 0 0 0 0 0 17 31 3 125 19 38 0 2 9 5 39 148 40 41 21 15 21 15 33 2
98 91 112 109 70 62 68 62 58 59 53 4 0 30 48 46 50 5 1 0 0 0 0 0 0 0 0 31 53 134 123 28 57 3 0 5 4 3 56 29 36 15 0 7 13 0 1
98 94 118 108 87 63 58 55 59 55 54 40 3 9 29 11 0 13 0 0 0 0 0 0 0 0 0 1 9 37 68 0 3 0 0 3 7 73 112 29 9 34 37 29 2 0 1
42 92 124 120 82 62 62 64 61 62 55 1 4 2 1 10 27 30 0 0 0 0 0 0 0 0 0 26 12 40 39 0 1 0 0 7 23 22 41 9 2 0 31 12 0 0 0
1 128 114 87 82 65 67 64 57 51 0 0 1 7 1 6 69 0 0 0 0 0 0 0 2 24 28 28 2 42 0 13 0 0 7 22 1 0 28 0 0 6 0 0 0 0 0
0 34 105 88 78 77 73 54 53 40 0 0 0 0 0 0 0 0 0 0 0 0 0 0 0 3 0 0 71 24 0 0 0 0 0 0 25 1 17 12 4 55 1 0 0 0 0
0 2 124 105 78 66 58 49 53 0 0 0 0 0 0 0 2 0 0 0 0 1 0 0 0 0 0 0 0 0 0 0 0 0 0 0 1 12 14 2 0 0 2 1 0 0 0
0 9 55 108 77 58 56 40 58 0 0 0 0 0 4 14 5 0 0 0 0 2 0 0 0 0 0 0 0 0 0 0 0 0 0 0 0 13 0 2 3 0 0 2 14 0 0
75 6 16 110 75 48 41 34 0 0 0 0 0 0 9 1 0 0 0 0 0 0 0 0 0 0 0 0 0 0 0 0 0 0 0 0 0 0 4 0 0 0 1 0 0 0 0
72 0 6 54 72 41 29 13 0 0 0 0 0 0 4 6 0 0 0 0 0 0 0 19 4 3 0 0 0 0 0 1 0 0 0 0 0 0 0 0 0 0 7 0 0 0 0
80 0 4 37 84 53 30 0 0 0 0 0 0 0 7 1 0 0 0 0 0 0 49 28 0 0 0 0 1 0 4 0 1 1 0 0 0 0 0 0 0 0 0 0 0 0 0
67 0 15 19 48 65 33 3 0 0 0 0 0 0 0 0 0 0 0 0 0 0 0 0 0 0 0 0 0 5 0 0 0 0 0 0 2 1 0 0 0 0 0 0 0 0 0
57 0 9 8 34 60 33 2 0 0 0 0 0 0 0 0 0 0 0 0 0 0 0 0 0 0 0 1 2 5 6 0 0 0 0 0 0 1 2 0 0 0 0 0 0 0 0
62 0 4 6 27 54 22 3 0 0 0 0 0 0 0 0 0 0 0 0 0 0 0 12 0 0 0 10 0 7 0 0 0 0 2 0 0 0 0 0 0 0 0 0 0 0 0
55 0 4 23 16 40 9 0 0 0 0 0 0 0 0 0 0 0 10 0 0 0 20 0 0 0 13 25 11 0 0 0 1 3 2 0 0 0 0 0 0 0 0 0 0 0 0
70 0 0 7 15 29 4 0 0 0 0 0 0 0 0 0 0 0 9 0 0 0 0 0 4 1 11 35 0 0 0 0 0 0 0 0 4 0 0 0 0 0 0 0 0 0 0
73 0 0 1 28 10 0 0 0 0 0 0 0 0 0 0 0 0 0 0 0 0 0 0 1 11 3 10 7 10 0 0 0 0 0 0 1 0 0 0 0 0 0 2 0 0 0
63 49 0 1 3 25 6 0 0 0 0 0 0 0 0 0 0 0 0 0 0 0 0 0 0 4 0 0 0 0 4 0 0 0 0 0 0 0 0 0 0 0 0 0 0 0 0
59 5 0 0 33 25 5 0 0 0 0 1 0 0 0 0 0 0 0 0 2 1 0 0 0 0 0 0 0 0 0 0 0 0 0 0 0 0 0 0 0 2 0 0 0 0 0

GFSGBSN_con_mucape_009.txt.gz
CAPE
23 36 38 66 36 31 45 36 2 0 0 1 5 3 0 0 0 0 0 0 0 0 0 23 44 48 54 0 2 25 2 0 0 23 17 9 0 0 27 35 85 56 19 6 5 10 0
42 31 39 56 72 35 37 31 53 10 0 0 2 11 0 0 0 0 0 0 0 0 0 5 65 73 53 0 2 28 24 0 0 9 26 45 4 0 4 19 58 54 88 28 23 14 0
57 25 35 55 70 71 36 27 33 55 13 0 1 4 17 0 0 0 0 0 0 0 0 0 36 49 8 0 1 4 0 0 0 0 25 33 49 33 23 33 4 72 100 45 26 35 3
52 36 51 53 70 75 71 63 44 42 20 6 0 4 26 9 0 0 0 0 0 0 0 0 0 47 0 0 2 1 0 0 0 0 0 13 59 16 22 75 18 25 124 58 25 39 4
29 53 65 67 63 58 75 80 64 38 37 19 8 3 10 43 0 0 3 0 4 45 21 2 16 42 0 0 0 0 0 0 3 0 0 6 55 46 49 66 123 131 87 30 62 43 2
21 55 82 80 73 44 64 81 78 75 49 55 37 27 16 30 0 0 3 6 0 48 15 11 16 0 0 0 0 0 0 1 8 25 28 25 61 42 52 73 64 61 58 43 56 30 10
29 50 84 82 75 68 63 65 73 67 44 62 45 29 20 17 37 71 0 8 0 0 0 0 0 0 0 0 0 0 0 7 12 28 40 41 63 42 7 5 0 67 163 125 96 24 34
72 71 70 78 88 79 77 72 59 71 46 57 42 25 29 21 38 83 1 0 2 0 0 0 0 0 0 0 0 0 6 12 11 6 23 152 200 23 3 8 49 117 127 176 75 33 6
137 90 82 88 81 98 101 86 52 47 45 35 31 3 21 17 19 33 0 0 4 0 0 0 0 0 0 0 0 0 17 19 24 26 39 206 147 113 29 23 245 196 162 140 72 16 0
182 153 116 103 101 79 83 81 73 65 52 31 0 0 3 28 2 0 0 7 2 0 0 0 0 0 0 0 0 3 60 61 28 27 89 158 67 187 60 22 96 221 97 91 54 47 15
6 53 117 120 104 90 69 78 70 69 60 40 0 0 0 0 24 50 7 11 2 0 0 0 0 0 0 0 0 0 6 96 46 37 7 0 46 46 67 22 25 106 111 93 82 123 71
0 0 93 107 104 109 77 75 75 62 56 48 19 8 3 53 26 27 2 5 0 0 0 0 0 0 0 0 0 23 3 59 54 24 38 0 3 22 12 34 44 120 141 140 92 38 15
0 0 0 141 99 112 79 75 73 66 51 45 38 17 6 5 3 15 1 0 0 0 0 0 0 0 0 0 0 46 68 51 78 0 0 0 21 11 20 57 29 45 48 118 0 13 4
4 0 0 27 128 98 78 90 79 81 63 38 44 25 10 15 59 33 4 0 0 0 0 0 0 0 0 0 0 44 48 80 37 1 8 7 3 7 17 13 1 10 21 7 0 0 3
37 9 0 21 19 108 102 94 73 64 41 11 8 6 1 9 18 8 0 0 0 0 0 0 0 0 18 0 0 6 44 64 7 1 0 0 0 0 0 29 0 8 55 11 6 0 34
46 61 0 17 23 122 105 95 81 58 39 8 5 3 6 4 47 0 0 0 0 0 0 0 0 13 44 38 34 22 1 8 0 1 19 0 0 0 30 18 27 11 24 6 4 0 0
102 100 2 6 5 105 98 95 82 69 48 3 4 0 1 5 0 0 0 0 0 0 0 0 0 0 18 9 7 0 0 0 0 9 9 0 1 12 0 1 1 1 24 3 5 0 38
127 98 83 1 19 15 116 83 90 85 30 4 0 0 0 9 0 2 0 0 0 0 0 17 0 0 0 0 0 0 0 0 0 20 0 0 0 36 1 1 0 0 0 11 33 0 0
90 65 68 0 48 23 90 80 82 82 14 1 1 0 23 27 0 0 0 0 0 2 0 0 0 0 0 0 0 0 0 0 0 0 0 2 3 0 3 0 10 0 1 18 15 3 1
39 43 69 14 42 50 35 53 56 71 12 3 4 0 0 0 6 0 0 0 0 0 0 0 0 0 0 0 0 0 0 0 0 0 13 0 0 0 7 0 0 1 4 0 0 0 0
70 77 59 0 45 45 51 25 30 61 3 8 3 0 0 0 0 0 0 0 0 0 0 0 0 0 0 0 0 1 0 0 0 0 0 0 0 0 0 0 0 2 5 0 0 0 1
78 80 65 20 31 35 30 26 18 27 7 6 1 0 0 0 14 4 0 0 0 0 0 1 0 0 0 0 0 0 0 0 0 0 0 0 0 0 0 0 0 0 0 0 0 0 0
97 102 79 0 6 11 22 19 13 6 4 0 0 0 0 0 28 6 0 0 0 0 0 6 4 0 0 0 0 12 0 1 4 0 0 1 0 0 0 0 0 0 0 0 0 0 0
80 93 79 0 1 16 31 14 9 7 2 0 0 1 0 0 0 0 0 0 0 0 0 0 0 3 0 6 7 54 29 28 24 0 0 1 0 0 0 0 0 0 0 0 0 0 0
82 99 75 0 0 7 3 17 5 6 2 0 0 0 0 0 0 0 1 0 0 0 0 0 0 0 0 7 1 2 5 7 18 0 0 0 0 0 0 0 0 0 0 0 0 0 0
75 88 65 0 0 10 4 11 14 6 0 0 0 1 0 0 0 0 1 0 0 0 0 0 1 11 0 0 1 0 0 0 0 0 0 0 0 0 0 0 0 0 0 0 0 0 0
67 84 67 0 0 6 6 5 5 1 0 0 0 3 1 0 0 0 0 0 0 0 0 0 0 0 2 8 2 68 0 0 0 0 0 0 0 0 0 0 0 0 0 0 0 0 0
50 73 62 10 0 2 3 0 5 0 0 0 0 3 0 0 0 0 0 0 0 0 0 0 0 0 0 1 0 0 0 0 3 0 0 0 0 0 0 0 0 0 0 0 0 0 0
41 73 60 16 0 4 0 7 5 0 0 0 0 2 1 0 0 0 0 0 0 0 0 0 0 0 0 3 3 2 0 0 0 0 0 0 0 0 0 0 0 0 0 0 0 0 0

GFSGBSN_con_mucape_012.txt.gz
CAPE
20 46 60 41 36 63 57 77 53 15 9 2 1 2 4 0 0 0 0 0 0 0 0 24 32 21 0 0 0 8 0 0 0 0 16 6 15 0 2 10 38 23 24 14 1 0 1
16 33 67 46 51 80 74 36 56 55 25 18 12 2 5 5 0 0 0 0 0 0 0 22 53 45 0 0 0 0 17 5 0 5 18 31 37 11 0 4 32 45 50 26 19 3 1
16 10 33 51 52 66 81 64 45 51 41 40 29 18 21 14 0 0 0 0 0 0 0 47 48 45 0 0 0 0 21 10 0 0 1 36 27 53 21 5 20 24 47 60 16 10 9
18 15 15 51 54 68 83 83 73 46 28 44 26 42 32 42 18 19 0 0 0 0 52 55 37 16 0 0 0 0 0 0 0 0 0 0 28 45 42 19 38 62 53 13 0 8 7
34 18 16 41 36 73 85 91 90 67 31 32 34 45 33 54 60 62 15 0 0 2 60 42 0 0 0 0 0 0 0 0 0 0 0 0 5 27 43 27 45 28 0 1 0 14 8
83 62 42 52 65 64 88 89 97 96 81 62 64 55 47 54 72 67 64 0 0 1 0 9 0 0 0 0 0 0 0 1 2 2 1 8 20 28 39 7 0 0 23 0 0 0 16
21 25 106 87 84 85 77 91 90 102 92 68 57 53 43 70 66 67 29 0 0 0 1 0 0 0 0 0 0 0 0 2 2 0 0 5 0 0 0 0 0 0 20 79 0 66 19
21 17 130 127 117 105 94 83 97 99 93 78 60 38 39 60 71 60 47 0 0 1 0 0 0 0 0 0 0 0 0 0 0 0 0 0 0 0 0 4 8 1 25 15 41 97 44
24 1 109 131 135 134 114 89 102 99 93 75 56 34 40 39 50 49 10 2 0 2 1 0 0 0 0 0 0 0 0 0 0 0 0 0 0 0 4 16 37 8 9 1 60 122 64
64 14 19 21 14 113 99 92 82 93 82 63 51 40 0 0 0 0 18 13 2 7 0 0 0 0 0 0 0 0 0 0 0 0 0 0 0 0 22 8 16 15 0 7 74 79 32
87 80 8 16 19 1 112 98 89 79 73 64 55 47 0 2 0 0 1 6 15 5 0 0 0 0 0 0 0 0 0 0 0 0 0 0 0 4 35 15 14 2 39 1 99 107 35
121 102 32 4 8 0 42 118 100 88 75 58 48 19 18 5 8 0 0 0 3 0 0 0 0 0 0 0 0 0 0 0 7 8 22 1 17 43 14 35 57 11 32 16 72 51 91
140 143 101 47 0 0 32 126 110 95 81 62 59 15 12 17 0 1 0 0 0 0 0 0 0 0 0 0 0 0 0 0 0 0 0 27 9 0 8 211 35 116 110 178 75 81 2
175 187 133 72 15 0 23 64 137 121 93 64 60 17 29 16 10 3 5 0 0 0 0 0 0 0 0 0 0 0 0 0 14 26 7 0 1 2 0 13 14 54 6 71 14 5 0
153 177 139 88 0 0 12 130 146 117 74 62 52 33 17 15 10 3 0 0 0 0 0 0 0 0 0 1 59 0 0 3 1 9 0 0 1 19 3 2 62 0 12 0 1 2 0
178 163 151 104 74 0 9 81 189 118 60 65 55 18 4 11 5 0 0 0 0 0 0 0 0 0 0 0 0 0 0 4 7 20 0 0 0 0 41 27 66 3 20 11 14 0 1
157 170 81 108 71 0 24 54 171 145 104 74 29 19 13 9 0 0 0 0 0 0 0 0 0 0 0 0 0 1 0 0 3 4 0 0 0 6 16 71 0 0 21 2 0 6 20
126 107 78 90 62 0 48 44 41 154 73 62 24 17 7 0 0 0 0 0 0 0 0 0 0 0 0 0 0 0 0 8 4 0 0 0 0 0 0 0 1 0 0 0 28 15 8
76 83 83 84 84 40 67 32 30 158 53 35 21 11 9 3 0 0 0 0 0 0 0 0 0 0 0 0 0 0 0 12 0 0 0 0 5 0 3 4 0 0 0 4 5 1 16
42 76 75 82 75 0 24 4 47 119 35 25 14 13 8 0 0 0 0 0 0 0 0 0 0 0 0 0 0 0 0 15 0 0 0 2 6 9 0 0 0 0 0 0 0 0 7
40 59 70 87 64 0 0 18 24 94 31 36 16 6 6 0 0 0 0 0 0 0 0 0 0 0 0 0 0 0 0 0 0 1 12 0 0 0 0 0 0 0 0 0 0 4 0
22 29 67 76 49 0 10 3 1 89 41 29 10 3 5 1 0 0 0 0 0 0 0 0 0 6 0 0 0 0 0 0 0 0 0 0 0 0 0 0 0 0 0 0 0 0 0
14 11 67 89 73 0 8 0 1 71 35 19 5 3 7 0 0 0 0 3 0 0 0 0 0 0 8 1 4 4 14 0 26 0 0 0 0 0 0 0 0 0 0 0 0 0 0
27 19 57 85 64 0 0 6 5 71 31 8 4 2 0 0 0 0 33 0 1 0 0 0 0 0 22 19 59 34 8 0 0 0 0 0 0 0 0 0 0 0 0 0 0 0 0
40 28 62 80 61 0 3 0 0 15 24 10 6 0 0 0 0 0 0 0 0 0 0 0 0 0 20 8 33 2 1 0 0 0 0 0 0 0 0 0 0 0 0 0 0 0 0
35 29 52 63 0 0 0 15 1 22 55 14 6 6 1 0 1 0 0 0 0 0 0 0 0 0 0 0 16 0 0 0 0 4 0 0 0 0 0 0 0 0 0 0 0 0 0
34 32 48 77 73 0 0 10 12 5 34 14 0 3 9 0 1 0 0 1 0 0 0 0 0 0 0 0 17 0 0 1 0 0 0 0 0 0 0 0 0 0 0 0 0 0 0
33 30 66 66 40 0 0 0 11 19 9 6 0 0 11 0 1 0 0 0 0 0 0 0 0 0 0 0 8 8 0 0 0 0 0 0 0 0 0 0 0 0 0 0 0 0 0
35 35 52 74 60 0 0 0 0 4 3 0 0 0 2 3 0 0 0 0 0 0 0 0 0 0 0 0 2 4 0 0 0 0 0 0 0 0 0 0 0 0 0 0 0 0 0

GFSGBSN_con_mucape_015.txt.gz
CAPE
16 22 16 5 40 62 61 76 74 76 36 13 0 1 6 9 9 0 0 0 0 0 0 0 0 34 3 0 0 0 0 0 0 11 11 20 14 2 0 0 0 3 0 6 2 0 0
84 32 26 7 22 54 57 51 72 91 66 35 22 16 10 4 10 1 0 0 0 0 0 0 0 24 0 0 0 0 0 0 0 0 2 16 6 11 0 0 2 5 15 0 2 1 0
75 70 47 16 32 57 50 70 80 83 64 60 50 42 36 10 8 0 1 0 0 0 0 0 0 0 0 0 0 0 2 0 0 0 0 28 25 57 23 0 0 3 0 6 0 4 2
10 27 88 42 58 45 60 65 85 108 87 53 69 64 43 31 7 6 12 19 0 0 0 0 0 0 0 0 0 0 0 0 0 0 0 4 14 7 1 13 0 0 20 0 0 3 0
13 0 27 33 65 76 77 74 81 93 115 83 78 73 58 44 43 52 54 29 0 0 0 0 0 0 0 0 0 0 0 0 0 0 0 0 8 2 4 0 0 0 0 0 0 0 20
37 43 5 51 19 69 104 108 89 95 115 99 98 77 56 50 45 50 55 27 1 0 0 0 1 0 0 0 0 0 0 0 0 0 0 0 0 0 0 0 0 0 0 0 0 0 9
36 39 43 0 122 155 67 122 102 100 111 98 76 70 56 44 46 37 9 0 0 0 0 0 0 0 0 0 0 0 0 0 0 0 0 0 0 0 0 0 0 0 0 0 0 1 15
71 40 34 34 3 35 66 125 103 104 99 90 85 73 79 56 50 56 4 0 0 0 0 0 0 0 0 1 0 0 0 0 0 0 0 0 0 0 0 0 0 0 0 0 0 3 36
61 62 60 46 50 24 42 146 128 100 112 102 94 71 69 63 76 0 0 0 0 2 0 0 0 0 0 0 0 0 0 0 0 0 0 0 0 0 0 0 0 0 0 0 0 0 25
53 87 75 60 80 25 19 24 12 123 102 90 87 87 59 57 0 0 0 0 0 12 0 0 0 0 0 0 0 0 3 0 0 0 0 0 0 0 0 0 0 0 0 0 0 9 13
77 78 100 94 100 72 1 4 14 34 99 101 97 95 55 0 0 0 0 0 19 10 0 0 0 0 0 0 0 0 0 0 0 0 0 0 0 0 0 0 0 0 0 0 7 7 23
86 94 107 125 133 101 76 0 1 25 110 102 98 88 41 13 12 2 1 0 7 0 0 0 0 0 0 0 0 0 0 0 0 0 0 0 0 0 0 0 0 0 0 0 17 67 35
90 93 136 134 208 104 72 19 38 14 130 128 99 73 47 19 3 12 13 0 0 0 0 0 0 0 0 0 0 0 0 0 0 2 0 0 0 0 0 0 3 13 0 0 0 0 0
82 88 188 167 109 185 140 21 13 3 163 123 78 58 27 17 8 27 11 0 0 0 0 0 0 0 0 0 0 0 0 0 14 0 0 0 0 0 0 1 0 0 0 0 0 0 3
102 113 194 152 126 125 172 26 8 20 123 123 114 63 46 12 6 19 2 0 0 0 0 0 0 0 0 0 0 2 0 0 0 0 0 0 0 0 0 0 60 3 0 0 41 35 46
99 97 100 99 73 134 30 6 21 0 125 103 91 43 23 28 32 4 0 0 0 0 0 0 0 0 0 0 0 46 1 0 0 0 0 0 0 0 1 7 3 108 73 9 14 0 0
106 95 116 81 0 132 0 6 0 23 132 118 72 54 8 49 16 9 0 0 0 0 0 0 0 0 0 0 0 0 0 0 0 0 0 0 0 0 0 15 0 25 149 43 10 29 35
106 85 78 84 0 79 73 63 0 39 39 109 57 20 0 2 4 0 0 0 0 0 0 0 0 0 0 0 0 0 0 0 0 8 0 0 0 1 27 2 33 11 42 15 0 6 22
103 79 66 114 77 82 31 12 1 24 36 20 49 9 1 20 4 0 0 0 0 0 0 0 0 0 2 0 0 0 0 0 0 0 0 0 3 0 8 0 10 25 33 4 0 1 11
104 66 48 119 71 101 69 0 2 7 33 10 13 6 12 0 7 2 0 0 0 0 0 0 0 0 0 0 0 0 0 0 0 0 0 0 0 11 0 22 0 0 0 0 0 0 0
96 47 39 72 71 99 0 0 8 0 44 48 9 15 1 0 1 0 0 0 0 0 0 0 0 0 0 0 0 0 0 0 0 0 2 0 7 4 2 0 0 0 0 0 8 5 12
108 54 39 40 78 78 0 0 4 0 23 55 0 0 0 0 0 0 0 0 0 0 0 0 0 0 0 0 0 0 0 0 0 0 0 0 0 0 0 0 0 0 0 6 0 8 1
90 46 38 37 69 65 0 0 0 3 29 27 10 0 14 6 0 0 0 0 0 0 0 0 0 0 0 0 8 34 1 0 0 0 0 0 0 0 0 0 2 12 2 0 0 0 1
75 40 36 22 62 72 63 0 0 0 10 12 7 6 4 4 0 0 0 0 0 0 0 0 0 0 0 11 24 15 17 0 0 0 0 0 0 0 0 0 0 0 5 1 1 0 0
77 40 28 46 50 76 49 0 0 0 0 25 29 10 3 1 0 0 0 0 0 0 0 0 0 0 6 13 23 6 0 6 0 0 0 0 0 0 0 0 0 0 0 0 0 0 0
95 43 32 44 64 66 0 0 0 0 7 18 23 13 10 0 0 0 0 0 0 0 0 0 0 23 4 24 21 0 0 0 0 0 0 0 0 0 0 0 0 0 0 0 0 0 0
88 57 31 28 54 71 0 0 0 2 12 22 17 13 10 3 0 0 0 0 0 0 0 0 0 0 4 0 0 0 0 0 0 0 0 0 0 0 0 0 0 0 0 0 0 0 0
83 69 29 25 47 60 0 0 0 2 13 18 8 12 0 1 0 0 1 0 0 0 0 0 0 0 0 5 0 0 0 0 0 0 0 7 0 0 0 0 0 0 0 0 0 0 0
87 53 33 33 35 54 0 0 0 2 7 2 4 5 5 0 0 0 7 8 0 0 0 0 0 0 0 0 0 0 0 8 0 0 0 0 0 0 0 0 0 0 0 0 0 0 0

GFSGBSN_con_mucape_018.txt.gz
CAPE
30 60 70 98 42 10 28 126 120 122 70 78 32 16 6 4 14 2 0 0 0 0 0 0 0 0 0 0 0 0 0 0 0 30 36 16 0 0 0 0 0 0 0 0 0 4 0
2 0 6 14 44 70 8 28 68 104 102 104 64 28 26 10 10 8 0 0 0 0 0 0 0 0 0 0 0 0 0 0 0 18 52 34 0 0 0 0 0 0 0 0 0 0 2
22 0 0 0 70 38 66 56 116 86 118 104 98 80 60 32 4 12 0 0 0 0 0 0 0 0 0 0 0 0 0 0 0 14 2 14 8 26 0 0 0 0 0 0 0 0 0
42 34 24 2 0 4 4 112 102 116 146 126 118 94 84 58 18 20 14 24 26 4 0 0 0 0 0 0 0 0 0 0 0 10 4 20 4 6 0 4 0 0 0 0 0 0 0
20 36 42 32 14 0 16 54 118 128 130 160 126 102 80 68 64 60 62 48 20 14 0 0 0 0 0 0 0 0 0 0 0 0 4 12 12 0 0 0 0 0 0 0 0 0 0
20 18 38 36 40 30 28 4 62 124 110 104 110 120 104 76 66 68 72 48 26 2 0 0 0 0 0 0 0 0 0 0 0 0 0 0 0 0 0 0 0 0 0 0 0 0 0
68 44 40 54 38 44 46 0 24 108 112 122 104 90 94 80 70 72 34 0 0 0 0 0 0 0 0 0 0 0 0 0 0 0 0 0 0 0 0 0 0 0 0 0 0 0 0
42 84 72 52 54 60 52 14 46 50 110 132 98 96 80 94 78 72 0 0 0 0 0 0 0 0 0 0 0 0 0 0 0 0 0 0 0 0 0 0 0 0 0 0 0 0 10
46 36 86 76 80 80 66 48 18 26 46 116 102 94 94 104 78 32 0 0 0 0 0 0 0 0 0 0 0 0 0 0 0 0 0 0 0 0 0 0 0 0 0 0 0 0 0
64 80 48 84 78 80 76 84 36 14 4 68 90 104 110 82 14 0 0 0 0 0 0 0 0 0 0 0 0 0 0 0 0 0 0 0 0 0 0 0 0 0 0 0 0 0 0
86 82 80 70 58 100 114 98 80 12 6 0 80 140 104 40 12 0 0 0 4 0 0 0 0 0 0 0 0 0 0 0 0 0 0 0 0 0 0 0 0 0 0 0 0 0 0
86 88 90 116 76 172 128 128 118 84 4 0 98 138 74 38 20 0 0 0 0 0 0 0 0 0 0 0 0 0 0 0 0 0 0 0 0 0 0 0 0 0 0 0 0 0 0
114 110 108 110 136 142 132 120 62 58 2 0 56 130 44 6 4 24 6 0 0 0 0 0 0 0 0 0 0 0 0 0 0 0 0 0 0 0 0 0 0 0 0 0 0 0 0
120 130 104 76 96 120 104 56 28 58 10 0 14 66 70 4 8 10 16 0 0 0 0 0 0 0 0 0 0 0 0 0 0 6 14 0 0 0 0 0 0 0 0 0 0 0 0
152 138 96 82 104 90 60 14 132 80 22 2 4 44 56 36 10 2 4 0 0 0 0 0 0 0 0 0 0 0 0 0 0 0 0 0 0 0 0 0 26 0 0 0 0 2 20
132 140 112 74 60 74 78 92 54 36 20 72 8 40 20 22 18 6 0 0 0 0 0 0 0 0 0 0 0 0 0 0 0 0 0 0 0 0 0 0 4 12 4 0 0 0 0
130 130 104 64 72 76 0 98 90 10 12 2 8 52 36 16 20 8 0 0 0 0 0 0 0 0 0 0 0 0 0 0 0 0 0 0 0 0 0 0 0 2 4 20 0 0 156
114 106 100 50 76 66 74 60 4 0 2 2 6 0 14 18 14 0 0 0 0 0 0 0 0 0 0 0 0 0 0 0 0 0 0 0 0 0 0 0 0 0 0 0 6 0 0
128 96 84 46 146 112 64 64 70 0 0 0 8 0 4 16 0 0 0 0 0 0 0 0 0 0 0 0 0 0 0 0 0 0 0 0 0 0 24 0 0 8 0 18 22 6 0
124 86 72 42 106 144 120 40 0 22 0 0 0 0 10 12 0 0 0 0 0 0 0 0 0 0 0 0 0 0 0 0 0 0 0 0 0 8 4 4 0 30 2 10 2 0 4
116 88 58 50 56 120 132 76 0 0 2 0 0 0 0 0 2 0 0 0 0 0 0 0 0 0 0 0 0 0 0 0 0 0 0 0 0 0 0 2 10 22 0 30 4 0 8
108 90 66 62 34 60 96 84 0 0 0 0 2 0 0 0 0 0 0 0 0 0 0 0 0 0 0 0 0 0 0 0 0 0 0 0 0 16 10 0 4 4 0 0 0 0 0
100 70 52 52 32 52 82 82 0 0 0 0 0 0 0 0 0 0 0 0 0 0 0 0 0 0 0 0 0 0 0 0 0 0 0 0 0 0 0 0 0 0 0 0 0 0 0
96 70 70 40 20 48 92 80 0 0 0 0 10 8 0 0 0 0 0 0 0 4 0 0 0 0 0 6 20 12 22 0 0 0 0 0 0 0 2 2 0 0 0 0 0 0 0
92 86 86 44 20 20 54 68 0 0 2 0 4 0 0 0 2 6 0 0 0 2 0 0 0 0 2 40 30 0 0 0 0 0 0 0 0 0 0 0 0 0 2 2 0 0 0
94 90 64 54 32 30 50 14 0 0 0 0 2 0 6 0 0 10 0 0 0 0 0 0 0 0 0 10 30 0 0 0 0 0 0 0 0 0 0 0 0 0 0 0 0 0 0
88 86 52 32 28 20 48 18 0 0 0 0 0 28 22 88 6 0 0 0 0 0 0 0 0 0 0 0 2 0 0 0 0 0 0 0 0 0 0 0 0 0 0 0 0 0 0
90 84 64 28 30 20 14 0 0 0 0 0 20 14 20 8 2 0 0 0 2 0 0 0 0 0 0 0 0 0 0 0 0 0 0 0 0 0 0 0 0 0 0 0 0 0 0
92 90 66 30 26 20 6 0 0 0 8 12 2 2 10 6 0 0 0 0 0 0 0 0 0 0 0 0 0 0 0 0 0 0 0 0 0 0 0 0 0 0 0 0 0 0 0

GFSGBSN_con_mucape_021.txt.gz
CAPE
15 4 3 18 4 31 18 126 127 95 59 113 135 64 31 12 7 27 9 0 0 0 0 0 0 0 0 0 0 0 0 0 1 31 22 25 0 0 0 0 0 0 0 0 0 0 0
26 22 17 0 0 0 26 17 139 127 89 66 112 90 70 38 21 35 20 7 0 0 0 0 0 0 0 0 0 0 0 0 1 48 38 34 0 0 0 0 0 0 0 0 0 0 0
11 21 22 19 15 0 0 1 5 95 93 68 149 116 90 72 30 19 30 21 14 1 1 0 0 0 0 0 0 0 0 0 0 5 2 48 55 0 0 0 0 0 0 0 0 0 0
23 23 32 32 24 21 17 0 0 11 92 105 93 112 79 81 61 28 30 33 50 25 11 0 0 0 0 0 0 0 0 0 0 0 0 0 36 0 0 0 0 0 0 0 0 0 0
24 27 29 29 37 56 36 36 1 19 7 116 119 115 151 96 74 61 67 65 51 33 29 30 0 0 0 0 0 0 0 0 0 0 0 3 0 0 0 0 0 0 0 0 0 0 0
24 17 19 30 37 44 57 56 41 0 17 43 116 102 92 93 81 76 90 70 52 19 7 24 3 0 0 0 0 0 0 0 0 0 0 0 0 0 0 0 0 0 0 0 0 0 0
43 33 41 26 44 45 55 47 70 47 10 33 19 99 97 107 91 92 48 33 0 0 0 0 0 0 0 0 0 0 0 0 0 0 0 0 0 0 0 0 0 0 0 0 0 0 0
52 39 55 50 41 74 53 60 52 56 45 9 17 93 95 117 118 108 3 0 0 0 0 0 0 0 0 0 0 0 0 0 0 0 0 0 0 0 0 0 0 0 0 0 0 0 0
89 85 75 90 59 54 84 72 39 61 55 5 60 31 79 123 119 37 7 0 0 0 0 0 0 0 0 0 0 0 0 0 0 0 0 0 0 0 0 0 0 0 0 0 0 0 0
69 82 86 87 69 102 92 63 115 76 92 19 26 1 87 129 68 46 9 0 0 2 0 0 0 0 0 0 0 0 0 0 0 0 0 0 0 0 0 0 0 0 0 0 0 0 0
82 87 112 79 98 102 124 120 136 117 93 4 8 1 66 58 17 22 1 0 14 0 0 0 0 0 0 0 0 0 0 0 0 0 0 0 0 0 0 0 0 0 0 0 0 0 0
112 102 132 165 127 112 104 162 136 139 69 14 0 2 30 39 36 26 8 0 16 0 0 0 0 0 0 0 0 0 0 0 0 0 0 0 0 0 0 0 0 0 0 0 0 0 0
103 126 134 184 146 184 138 116 104 55 76 64 15 0 11 2 11 5 1 0 0 0 0 0 0 0 0 0 0 0 0 0 0 0 0 0 0 0 0 0 0 0 0 0 0 0 0
114 126 135 150 129 112 86 58 25 13 156 101 36 0 0 0 12 4 9 0 0 0 0 0 0 0 0 0 0 0 0 0 0 0 0 0 0 0 0 0 0 0 0 0 0 0 0
117 141 146 125 104 76 98 80 1 213 79 81 47 1 0 3 10 10 5 0 0 0 0 0 0 0 0 0 0 0 0 0 0 0 0 0 0 0 0 0 0 0 0 0 0 0 0
112 131 139 104 89 63 73 77 101 133 86 85 1 2 0 29 9 2 1 0 0 0 0 0 0 0 0 0 0 0 0 0 0 0 0 0 0 0 0 0 0 1 0 0 0 0 0
112 124 142 100 57 50 54 89 87 2 60 8 6 0 0 47 2 14 0 0 0 0 0 0 0 0 0 0 0 0 0 0 0 0 0 0 0 0 0 0 0 0 0 0 0 0 0
110 122 118 85 37 47 51 96 88 84 76 39 0 5 0 7 0 0 0 0 0 0 0 0 0 0 0 0 0 0 0 0 0 0 0 0 0 0 0 0 0 0 0 0 0 0 0
113 120 107 84 60 92 71 76 87 0 39 35 0 4 0 0 0 0 0 0 0 0 0 0 0 0 0 0 0 0 0 0 0 0 0 0 0 0 0 0 0 0 0 0 0 21 0
110 122 125 89 69 79 79 78 69 0 0 18 0 0 0 0 1 0 0 0 0 0 0 0 0 0 0 0 0 0 0 0 0 0 0 0 0 0 1 0 0 0 0 0 0 0 0
107 112 110 95 64 48 59 79 68 0 0 1 0 0 0 0 0 0 0 0 0 0 0 0 0 0 0 0 0 0 0 0 0 0 0 0 0 0 8 0 0 0 0 0 0 0 0
98 97 104 84 46 33 55 59 45 0 0 10 0 0 0 0 0 0 0 0 0 0 0 0 0 0 0 0 0 0 0 0 0 0 0 0 0 0 6 2 0 0 0 0 0 0 0
94 107 104 85 62 19 37 86 58 0 0 3 1 0 0 0 0 0 0 0 0 0 0 0 0 0 0 0 1 0 0 0 0 0 0 0 0 1 0 0 0 0 0 0 0 0 0
103 98 104 59 56 18 25 52 0 0 0 0 0 0 0 0 0 0 0 0 0 0 0 0 0 0 0 0 9 3 4 0 0 0 0 0 0 0 0 0 3 0 0 2 0 0 0
110 106 103 63 23 20 18 24 0 1 0 2 1 0 0 0 0 0 0 0 1 0 0 0 0 0 0 0 0 0 0 0 0 0 0 0 0 0 0 0 0 1 0 0 0 0 0
100 101 86 71 18 20 21 10 0 2 0 0 2 7 1 0 0 0 0 0 0 0 0 0 0 0 0 0 0 0 0 0 0 0 0 0 0 0 0 0 0 0 0 0 0 0 0
100 101 83 81 19 26 21 1 0 0 0 0 0 11 7 2 0 0 0 0 0 0 0 0 0 0 0 0 0 0 0 0 0 0 0 0 0 0 0 0 0 0 0 0 0 0 0
90 99 78 75 46 20 16 4 0 0 0 0 0 22 13 1 13 0 3 0 0 0 0 0 0 0 0 0 0 0 0 0 0 0 0 0 0 1 0 0 0 0 0 0 0 0 0
88 91 84 71 52 24 15 12 0 2 3 0 0 6 20 1 0 5 4 0 0 0 0 0 0 0 0 0 0 0 0 0 0 0 0 0 0 0 0 0 0 0 0 0 0 0 0

GFSGBSN_con_mucape_024.txt.gz
CAPE
14 14 18 21 15 0 8 18 8 9 24 91 92 115 100 55 23 4 14 5 6 0 0 0 0 0 0 0 0 0 0 0 0 40 21 7 0 0 0 0 0 0 0 0 0 0 0
19 23 30 20 24 25 27 22 0 2 5 22 87 132 126 99 63 30 30 9 9 4 0 0 0 0 0 0 0 0 0 0 11 11 29 34 0 0 0 0 0 0 0 0 0 0 0
24 23 26 24 39 24 20 24 27 26 0 3 14 118 130 107 78 37 28 30 19 0 1 4 0 0 0 0 0 0 0 0 8 41 37 43 34 0 0 0 0 0 0 0 0 0 0
22 23 22 30 35 29 61 37 23 36 19 6 8 28 113 129 119 78 33 51 39 34 2 6 26 0 0 0 0 0 0 0 0 0 0 0 49 0 0 0 0 0 0 0 0 0 0
32 26 27 31 36 34 28 71 63 49 49 14 4 5 84 134 121 114 95 81 73 68 41 32 10 0 0 0 0 0 0 0 0 0 0 0 0 0 0 0 0 0 0 0 0 0 0
30 23 22 30 43 36 47 57 75 76 53 50 0 6 2 92 133 106 117 76 64 32 8 11 15 0 0 0 0 0 0 0 0 0 0 0 0 0 0 0 0 0 0 0 0 0 0
59 43 41 43 29 45 52 43 70 80 70 46 36 6 0 75 121 123 72 9 12 0 0 0 0 0 0 0 0 0 0 0 0 0 0 0 0 0 0 0 0 0 0 0 0 0 0
65 74 83 91 87 81 50 56 73 80 83 65 58 33 12 15 114 136 39 5 2 0 0 0 0 0 0 0 0 0 0 0 0 0 0 0 0 0 0 0 0 0 0 0 0 0 0
77 96 91 96 106 117 72 60 96 111 102 83 74 61 44 3 78 55 6 1 4 0 0 0 0 0 0 0 0 0 0 0 0 0 0 0 0 0 0 0 0 0 0 0 0 0 0
58 57 85 92 111 126 142 117 117 127 116 78 77 29 6 18 16 25 33 14 17 1 0 0 0 0 0 0 0 0 0 0 0 0 0 0 0 0 0 0 0 0 0 0 0 0 0
52 84 87 129 150 137 170 172 184 133 76 123 101 36 5 17 0 14 0 3 14 0 0 0 0 4 0 0 0 0 0 0 0 0 0 0 0 0 0 0 0 0 0 0 0 0 0
76 91 109 134 162 168 161 188 147 77 44 73 54 6 3 53 1 4 1 0 10 0 0 0 0 0 0 0 0 0 0 0 0 0 0 0 0 0 0 0 0 0 0 0 0 0 0
73 99 117 139 146 140 109 91 80 90 65 13 54 62 42 0 0 4 17 7 0 0 0 0 0 0 0 0 0 0 0 0 0 0 0 0 0 0 0 0 0 0 0 0 0 0 0
66 92 118 132 139 101 73 65 85 76 11 178 118 70 31 0 0 9 11 0 0 0 0 0 0 0 0 0 0 0 0 0 0 0 0 0 0 0 0 0 0 0 0 0 0 0 0
97 113 122 127 112 89 55 45 108 243 85 177 114 55 35 0 18 0 0 0 0 0 0 0 0 0 0 0 0 0 0 0 0 0 0 0 0 0 0 0 0 0 0 0 0 0 0
89 114 121 125 103 73 38 50 100 103 83 91 44 35 9 0 45 0 0 0 0 0 0 0 0 0 0 0 0 0 0 0 0 0 0 0 0 0 0 0 0 0 0 0 0 0 0
93 121 122 133 108 49 38 54 95 92 1 66 9 6 36 61 0 0 0 0 0 0 0 0 0 0 0 0 0 0 0 0 0 0 0 0 0 0 0 0 0 0 0 20 5 0 0
90 125 133 135 109 58 41 59 63 72 79 32 3 20 99 10 0 0 0 0 0 0 0 0 0 0 0 0 0 0 0 0 0 0 0 0 0 0 0 0 0 0 0 0 0 0 0
104 134 123 136 100 80 48 66 56 76 74 17 44 4 72 3 0 0 0 0 0 0 0 0 0 0 0 0 0 0 0 0 0 0 0 0 0 0 0 0 0 0 0 0 0 0 0
109 135 120 137 117 98 91 50 49 83 0 25 0 0 0 0 0 0 0 0 0 0 0 0 0 0 0 0 0 0 0 0 0 0 0 0 0 0 0 0 0 0 0 1 2 0 3
115 136 107 127 91 76 80 56 46 56 2 9 0 0 0 0 0 0 0 0 0 0 0 0 0 0 0 0 0 0 0 0 0 0 0 0 0 0 0 0 2 10 1 0 0 0 0
116 135 119 117 77 57 24 71 72 0 7 18 0 0 0 0 0 0 0 0 0 0 0 0 0 0 0 0 0 0 0 0 0 0 0 0 0 0 0 0 0 0 0 0 0 0 0
108 123 123 108 69 18 17 59 49 0 1 31 1 10 0 0 0 0 0 0 0 0 0 0 0 0 0 0 0 0 0 0 0 0 0 0 0 0 0 0 1 0 2 0 0 0 0
117 125 129 94 68 11 17 30 0 0 0 0 0 0 0 0 0 0 0 0 0 0 0 0 0 0 0 0 1 0 0 0 0 0 0 0 0 0 0 0 0 0 0 0 0 0 0
111 119 127 91 64 15 18 22 0 0 0 1 0 0 0 0 0 0 0 0 0 0 0 0 0 0 0 0 0 0 0 0 0 0 0 0 0 0 0 0 0 0 0 0 0 0 0
102 106 110 77 64 17 9 15 0 0 0 0 0 0 0 0 0 0 0 0 0 0 0 0 8 1 0 0 0 0 0 0 0 0 0 0 0 0 0 0 0 0 0 0 0 0 0
83 89 84 82 60 43 20 12 0 4 8 8 1 12 0 0 0 1 0 0 0 0 0 0 0 0 0 0 0 0 0 0 0 0 0 0 0 0 0 0 0 0 0 0 0 0 0
70 65 51 81 51 30 27 10 1 6 10 5 1 15 2 4 0 0 8 0 0 12 0 0 0 0 0 0 0 0 0 0 0 0 0 0 0 0 0 0 0 0 0 0 0 0 0
72 64 64 66 53 33 18 10 0 6 8 0 0 17 4 0 0 9 10 26 16 0 0 0 0 0 0 0 0 0 0 0 0 0 0 0 0 0 0 0 0 0 0 0 0 0 0

GFSGBSN_con_mucape_027.txt.gz
CAPE
24 26 29 26 23 18 14 15 14 14 2 2 7 21 109 123 123 42 7 3 0 0 0 0 0 6 0 0 0 0 0 0 5 36 15 5 0 0 0 0 0 0 0 0 0 0 0
31 34 31 32 35 26 27 20 32 20 29 39 0 12 28 96 132 111 49 19 0 0 1 0 0 0 0 0 0 0 0 0 0 26 25 17 14 1 0 0 0 0 0 0 0 0 0
34 30 24 28 33 28 42 50 40 31 37 46 27 23 5 13 96 137 56 42 9 0 0 0 10 0 0 0 0 0 0 0 39 19 21 36 12 0 0 0 0 0 0 0 0 0 0
33 25 24 23 28 40 31 24 20 33 40 64 38 15 10 1 51 129 100 66 46 38 26 12 27 0 0 0 0 0 0 0 11 39 11 25 30 0 0 0 0 0 0 0 0 0 0
29 41 38 32 38 45 54 51 55 40 75 77 72 36 16 6 13 93 119 112 88 59 54 52 0 0 0 0 0 0 0 0 0 7 0 5 11 0 0 0 0 0 0 0 0 0 0
55 73 40 64 67 50 47 35 34 47 62 68 69 61 22 26 0 76 131 128 70 52 28 41 18 0 0 0 0 0 0 0 0 0 0 0 0 0 0 0 0 0 0 0 0 0 0
88 87 66 77 80 94 99 38 42 54 57 89 89 60 48 51 0 55 85 26 0 15 25 0 0 0 0 0 0 0 0 0 0 0 0 0 0 0 0 0 0 0 0 0 0 0 0
64 52 78 84 75 96 81 98 119 87 100 100 106 77 69 39 27 25 19 0 0 0 0 0 0 0 0 0 0 0 0 0 0 0 0 0 0 0 0 0 0 0 0 0 0 0 0
34 50 76 79 83 100 99 93 103 167 175 151 103 114 71 37 7 0 12 0 10 5 0 0 0 0 0 0 0 0 0 0 0 0 0 0 0 0 0 0 0 0 0 0 0 0 0
67 73 71 74 80 95 111 115 116 169 157 148 108 118 89 50 11 0 12 19 1 2 0 0 0 0 0 0 0 0 0 0 0 0 0 0 0 0 0 0 0 0 0 0 0 0 0
67 47 73 84 81 101 97 104 86 116 112 131 106 97 73 55 4 0 0 0 0 8 0 0 0 2 0 0 0 0 0 0 0 0 0 0 0 0 0 0 0 0 0 0 0 0 0
70 74 67 76 90 101 93 84 54 49 111 87 49 32 29 26 5 4 0 0 0 0 0 0 0 0 0 0 0 0 0 0 0 0 0 0 0 0 0 0 0 0 0 0 0 0 0
67 69 85 85 96 89 84 85 35 57 124 105 100 169 16 24 0 3 1 0 0 0 0 0 0 0 0 0 0 0 0 0 0 0 0 0 0 0 0 0 0 0 0 0 0 0 0
77 65 82 99 110 94 81 53 24 78 104 57 118 132 48 2 3 16 0 0 0 0 0 0 0 0 0 0 0 0 0 0 0 0 0 0 0 0 0 0 0 0 0 0 0 0 0
66 67 81 114 121 112 78 26 38 149 137 86 139 102 79 21 7 19 0 0 0 0 0 0 0 0 0 0 0 0 0 0 0 0 0 0 0 0 0 0 0 0 0 0 0 0 0
87 92 102 125 123 116 60 42 68 137 91 108 50 52 48 18 4 0 0 0 0 0 0 0 0 0 0 0 0 0 0 0 0 0 0 0 0 0 0 0 0 0 0 0 0 0 0
84 93 115 126 135 104 74 53 73 83 103 73 7 15 32 48 1 0 0 0 0 0 0 0 0 0 0 0 0 0 0 0 0 0 0 0 0 0 0 0 0 0 0 0 0 0 0
91 88 122 129 140 100 78 56 58 77 85 0 8 15 40 87 0 0 0 0 0 0 0 0 0 0 0 0 0 0 0 0 0 0 0 0 0 0 0 0 0 0 0 0 0 0 0
72 86 123 118 132 117 77 32 41 85 73 5 4 25 1 1 0 0 0 0 0 0 0 0 0 0 0 0 0 0 0 0 0 0 0 0 0 0 0 0 0 0 0 0 0 0 0
69 97 119 118 110 92 55 26 51 60 1 33 1 4 3 0 0 0 0 0 0 0 0 0 0 0 0 0 0 0 0 0 0 0 0 0 0 0 0 0 0 3 0 0 0 0 0
76 101 110 109 75 76 25 37 61 0 48 27 4 0 0 0 0 0 0 0 0 0 0 0 1 0 0 0 0 0 0 0 0 0 0 0 0 0 0 0 0 5 1 0 0 0 0
73 88 98 100 53 66 22 36 38 0 5 16 0 0 0 0 0 0 0 0 0 0 0 0 0 0 0 0 0 0 0 0 0 0 0 0 0 0 0 0 0 0 0 0 0 0 0
66 82 80 88 65 58 24 31 0 0 2 0 7 10 0 0 0 0 0 0 0 0 1 0 0 0 0 0 0 0 0 0 0 0 0 0 0 0 0 0 0 0 0 0 0 0 0
61 59 72 71 56 63 34 23 0 1 2 0 1 3 0 0 0 0 0 0 0 0 0 0 0 0 0 0 0 0 0 0 0 0 0 0 0 0 0 0 0 0 0 0 0 0 0
62 61 58 50 53 43 25 25 0 0 0 0 5 0 0 0 0 0 0 0 0 0 0 0 0 24 0 0 0 0 0 0 0 0 0 0 0 0 0 4 0 1 0 0 0 0 0
55 58 30 34 48 34 23 6 0 6 0 0 6 0 0 0 0 0 0 0 0 0 0 0 0 0 1 0 0 0 0 0 0 0 0 0 0 0 0 9 0 0 1 0 0 0 0
57 58 35 59 52 34 28 11 0 5 0 4 0 2 0 0 0 0 0 0 5 1 0 0 0 12 0 0 0 0 0 0 0 0 0 0 0 0 0 0 0 0 0 0 0 0 1
27 51 52 54 46 49 35 4 0 4 0 4 5 9 5 0 0 0 0 0 0 0 0 0 0 0 0 0 0 0 0 0 0 0 0 0 0 0 0 0 0 0 0 0 0 0 0
18 22 29 49 55 48 15 5 0 6 0 8 3 5 0 0 0 0 0 4 4 2 0 0 0 0 0 0 0 0 0 0 0 0 0 0 0 0 0 0 0 0 0 0 0 0 0

GFSGBSN_con_mucape_030.txt.gz
CAPE
20 23 22 24 22 21 25 24 34 19 23 22 16 10 0 13 38 98 111 20 0 0 0 0 0 0 0 0 0 0 0 0 0 60 35 0 1 4 0 0 0 0 0 0 0 0 0
22 20 16 21 28 32 36 34 21 16 18 32 31 34 5 3 7 55 118 65 12 2 0 0 0 0 0 0 0 0 0 0 15 39 62 15 6 3 0 0 0 0 0 0 0 0 0
10 21 22 22 28 37 48 47 47 34 34 22 31 54 43 1 1 8 98 65 35 4 0 0 0 0 0 0 0 0 0 0 10 59 48 29 8 16 0 0 0 0 0 0 0 0 0
25 34 37 45 43 37 48 34 38 34 35 42 37 53 54 24 11 4 42 124 114 69 9 0 17 0 0 0 0 0 0 2 22 36 50 53 24 30 7 0 0 0 0 0 0 0 0
32 69 70 73 62 64 53 53 58 29 29 34 37 56 59 40 4 5 2 98 107 72 43 24 1 0 0 0 0 0 0 0 21 28 27 60 48 2 2 0 0 0 0 0 0 0 0
61 36 66 76 76 74 98 87 90 73 75 39 72 77 67 61 38 12 16 85 83 20 56 51 7 0 0 0 0 0 0 0 4 0 0 0 0 0 0 0 0 0 0 0 0 0 0
44 60 54 58 72 74 90 91 89 91 93 96 90 128 108 66 52 11 46 59 0 0 0 0 0 0 0 0 0 0 0 0 0 0 0 0 0 0 0 0 0 0 0 0 0 0 0
32 58 49 59 65 71 79 90 109 112 78 136 149 166 144 96 66 1 15 1 0 0 0 0 0 0 0 0 0 0 0 0 0 0 0 0 0 0 0 0 0 0 0 0 0 0 0
50 51 43 55 67 82 103 114 106 100 94 126 157 161 144 83 77 17 16 0 0 2 0 0 0 0 0 0 0 0 0 0 0 0 0 0 0 0 0 0 0 0 0 0 0 0 0
64 35 77 79 84 97 109 122 113 98 70 44 77 126 133 98 74 9 13 0 0 0 0 0 0 0 0 11 0 0 0 0 0 0 0 0 0 0 0 0 0 0 0 0 0 0 0
43 47 74 81 95 115 130 127 102 92 67 92 89 105 93 56 59 6 0 44 0 1 0 0 0 6 0 0 0 0 0 0 0 0 0 0 0 0 0 0 0 0 0 0 0 0 0
65 62 83 80 100 149 134 112 84 32 43 137 78 121 130 55 64 0 8 0 0 0 0 0 0 0 0 0 0 0 0 0 0 0 0 0 0 0 0 0 0 0 0 0 0 0 0
73 64 79 100 130 137 125 104 52 33 74 86 83 132 70 93 35 97 78 0 0 0 0 0 0 0 0 0 0 0 0 0 0 0 0 0 0 0 0 0 0 0 0 0 0 0 0
60 78 97 115 140 123 126 83 43 37 65 103 229 182 139 46 113 71 64 0 0 0 0 0 0 0 0 0 0 0 0 0 0 0 0 0 0 0 0 0 0 0 0 0 0 0 0
72 94 106 124 146 127 128 84 51 59 115 110 34 137 134 93 46 1 0 0 0 0 0 0 0 0 0 0 0 0 0 0 0 0 0 0 0 0 0 0 0 0 0 0 0 0 0
75 85 99 131 124 142 121 88 63 77 105 75 18 99 112 124 48 4 0 0 0 0 0 0 0 0 0 0 0 0 0 0 0 0 0 0 0 0 0 0 0 0 0 0 0 0 0
69 84 105 117 131 135 115 66 43 53 74 2 11 0 101 123 17 6 0 1 0 0 0 0 0 0 0 0 0 0 0 0 0 0 0 0 0 0 0 0 0 0 0 0 0 0 0
61 81 101 108 118 94 90 24 24 48 27 0 13 3 67 24 0 0 0 0 0 0 0 0 0 0 0 0 0 0 0 0 0 0 0 0 0 0 0 0 0 0 0 0 0 0 0
64 80 93 91 81 67 55 17 22 41 2 9 14 73 68 37 0 0 0 0 0 0 0 0 0 0 0 0 0 0 0 0 0 0 0 0 0 0 0 0 0 0 0 0 0 0 0
64 75 76 77 69 51 33 12 20 0 0 80 6 7 1 1 4 0 0 0 0 0 0 0 0 0 0 0 0 0 0 0 0 0 0 0 0 0 0 0 0 0 0 0 0 0 0
52 62 64 71 69 48 30 22 0 1 25 8 23 0 0 0 0 0 0 0 0 0 0 0 0 0 0 0 0 0 0 0 0 0 0 0 0 0 0 0 0 0 0 0 0 0 0
56 51 41 56 58 49 30 23 0 0 4 5 9 0 0 0 0 0 0 0 0 0 0 0 0 0 0 0 0 0 0 0 0 0 0 0 0 0 0 0 0 0 0 0 0 0 0
33 56 62 54 44 42 26 35 0 0 0 0 0 0 4 0 0 0 0 0 0 0 0 0 0 0 0 0 0 0 0 0 0 0 0 0 0 0 0 0 0 0 0 0 0 0 0
42 44 49 28 30 34 23 0 0 0 0 0 0 0 0 0 0 0 0 0 0 0 0 0 0 0 0 0 0 0 0 0 0 3 0 0 0 0 0 0 0 0 0 0 0 0 0
34 35 29 36 43 26 17 5 0 0 3 0 0 0 0 0 0 0 0 2 0 0 0 0 0 0 0 0 0 0 0 0 0 0 0 0 0 0 0 0 0 0 0 0 0 0 0
25 26 28 18 42 23 30 13 0 0 0 0 2 0 0 0 0 0 0 0 0 0 0 0 0 0 0 0 0 0 0 0 0 0 0 0 0 0 0 0 0 0 0 0 0 0 0
18 14 16 18 35 51 21 4 0 0 1 1 1 9 0 0 0 0 0 0 0 0 0 0 0 0 0 0 0 0 0 0 0 0 0 0 0 0 0 0 0 0 0 0 0 0 0
16 12 14 17 16 19 8 3 0 0 6 2 1 7 11 0 0 0 0 0 0 0 0 0 0 0 0 0 0 0 0 0 0 0 0 0 0 0 0 0 0 0 0 0 0 0 0
14 12 11 8 11 8 8 4 0 0 0 4 0 12 13 0 0 0 0 0 0 0 0 0 0 0 0 0 0 0 0 0 0 0 0 0 0 0 0 0 0 0 0 0 0 0 0

GFSGBSN_con_mucape_033.txt.gz
CAPE
10 10 16 15 24 25 30 30 28 29 17 12 11 14 13 21 0 0 14 89 27 10 4 0 0 0 0 7 2 0 0 0 0 75 58 14 17 9 1 0 0 0 0 0 0 0 0
11 18 20 24 24 30 22 28 27 26 27 26 18 12 21 39 24 0 6 37 105 10 8 0 0 0 0 0 0 0 0 0 4 40 39 23 25 18 22 10 0 1 0 0 0 0 0
26 25 50 41 32 27 45 43 29 28 19 19 23 27 14 37 36 18 8 3 113 60 28 4 0 0 0 0 0 0 0 0 12 13 52 22 13 5 19 8 7 1 0 0 0 0 0
45 59 48 50 45 80 66 63 67 66 70 42 37 31 40 33 47 40 5 2 48 95 7 2 0 1 0 0 0 0 0 0 0 62 52 50 17 22 23 14 2 0 0 0 0 0 0
34 42 44 57 71 78 90 63 64 98 110 97 59 46 42 61 59 53 11 6 0 105 29 34 20 7 5 0 0 0 0 3 6 7 46 43 33 31 38 24 0 0 0 0 0 0 0
31 29 49 72 79 91 72 80 79 94 87 91 86 86 70 76 79 59 43 1 8 92 53 13 13 4 0 0 0 0 0 19 0 10 32 23 5 1 0 7 0 0 0 0 0 0 0
52 70 68 75 76 80 83 102 105 122 124 104 114 105 138 123 123 66 56 12 37 7 0 0 0 0 0 0 0 0 0 0 0 0 0 0 0 0 0 12 6 0 0 0 0 0 0
64 66 49 71 72 86 103 120 146 164 138 107 105 92 150 175 151 91 78 9 0 0 2 0 0 3 0 0 0 0 0 6 10 0 0 0 0 0 0 0 0 0 0 0 0 0 0
47 48 61 77 75 85 106 144 167 179 143 123 71 31 87 156 143 73 73 7 0 0 0 0 0 2 0 0 5 0 1 7 3 0 0 0 0 0 0 0 0 0 0 0 0 0 0
44 63 63 79 101 132 143 153 160 149 111 58 32 58 112 89 79 55 72 6 1 0 2 0 0 1 2 1 3 8 0 3 0 0 0 0 0 0 0 0 0 0 0 0 0 0 0
44 57 72 88 111 127 149 148 145 128 58 64 67 90 62 63 57 66 63 48 0 0 7 0 0 4 10 0 2 8 3 0 0 0 0 0 0 0 0 0 0 0 0 0 0 0 0
40 64 87 101 106 128 139 140 131 102 51 65 69 91 116 79 87 50 74 69 0 4 3 0 0 0 0 0 2 12 0 16 4 0 0 0 0 0 0 0 0 0 0 0 0 0 0
42 74 75 95 105 120 125 130 89 56 67 64 87 25 213 58 42 72 77 62 0 7 0 0 0 0 0 0 0 0 0 0 0 0 0 0 0 0 0 0 0 0 0 0 0 0 0
56 74 73 89 104 110 126 110 81 65 48 65 48 36 171 81 73 140 44 10 0 0 0 0 0 0 0 0 0 0 0 0 0 0 0 0 0 0 0 0 0 0 0 0 0 0 0
57 62 72 93 99 116 120 102 46 30 79 84 50 65 135 157 111 31 34 0 61 0 0 0 0 0 0 0 0 0 0 0 0 0 0 0 0 0 0 0 0 0 0 0 0 0 0
49 65 75 86 86 85 76 64 18 12 82 14 0 19 90 93 74 26 24 0 0 0 0 0 0 0 0 0 0 0 0 0 0 0 0 0 0 0 0 0 0 0 0 0 0 0 0
54 65 74 79 76 67 60 37 24 30 42 11 0 52 117 35 31 2 0 0 0 0 0 0 0 0 0 0 0 0 0 0 0 0 0 0 0 0 0 0 0 0 0 0 0 0 0
49 57 72 74 62 59 49 37 25 3 30 8 0 0 84 45 2 2 0 0 0 0 0 0 0 0 0 0 0 0 0 0 0 0 0 0 0 0 0 0 0 0 0 0 0 0 0
39 52 62 64 48 45 44 29 2 0 0 30 31 22 87 54 0 26 0 0 0 0 0 0 0 0 0 0 0 0 0 0 0 0 0 0 0 0 0 0 0 0 0 0 0 0 0
44 53 55 46 59 61 36 21 0 5 0 130 52 17 5 0 23 15 0 0 0 1 0 0 0 0 0 0 0 0 0 0 0 0 0 0 0 0 0 0 0 0 0 0 0 0 0
39 41 62 46 45 38 33 0 0 5 13 57 114 4 4 0 35 8 0 0 0 0 1 1 0 1 0 0 0 0 0 0 0 0 0 0 0 0 0 0 0 0 0 0 0 0 0
48 45 37 29 31 30 30 0 0 0 0 2 1 0 0 0 0 16 0 0 0 0 7 8 6 0 0 3 0 0 0 0 0 0 0 0 0 0 0 0 0 0 0 0 0 0 0
29 35 29 20 48 30 20 0 0 0 0 0 0 0 0 0 0 0 0 0 1 0 3 0 2 2 0 0 0 0 0 0 0 0 0 0 0 0 0 0 0 0 0 0 0 0 0
15 19 31 22 29 24 25 0 0 0 0 0 0 0 0 0 0 0 0 0 0 0 5 3 0 0 1 0 0 0 0 0 0 0 0 0 0 0 0 0 0 0 0 0 0 0 0
0 8 10 25 20 38 32 0 0 0 0 0 0 0 0 0 0 0 0 0 1 0 6 10 0 2 4 0 0 0 0 0 0 0 0 0 0 0 0 0 0 0 0 0 0 0 0
1 7 7 13 14 21 12 1 0 0 0 0 0 0 0 0 1 0 0 8 17 12 1 0 0 0 0 0 0 0 0 0 0 0 0 0 0 0 0 0 0 0 0 0 0 0 0
16 11 7 6 8 4 7 1 0 0 0 0 0 5 0 0 18 0 0 5 0 9 5 0 0 0 0 0 0 0 0 0 0 0 0 0 0 0 0 0 0 0 0 0 0 0 0
19 14 10 7 9 8 11 7 0 0 5 5 2 2 2 0 22 0 0 0 8 7 1 0 0 0 0 0 0 0 0 0 0 0 0 0 0 0 0 0 0 0 0 0 0 0 0
19 18 11 11 13 14 17 15 15 0 1 2 2 9 16 0 4 1 0 0 4 19 29 0 0 0 0 0 0 0 0 0 0 0 0 0 0 0 0 0 0 0 0 0 0 0 0

GFSGBSN_con_mucape_036.txt.gz
CAPE
16 23 20 29 25 22 28 37 26 34 42 45 42 42 29 19 24 16 22 0 0 104 18 9 0 0 0 5 0 4 0 18 27 79 55 35 0 0 0 0 0 0 0 0 0 0 0
28 33 56 60 53 39 38 46 44 39 55 57 67 47 42 32 32 43 38 24 1 33 89 2 0 0 0 0 0 0 0 0 0 11 61 57 13 11 12 1 1 1 0 0 0 0 0
62 44 50 49 49 57 86 88 57 81 96 93 79 62 44 39 37 43 52 46 1 8 124 7 0 0 3 0 0 0 0 0 17 9 74 51 20 20 15 9 4 1 0 0 0 0 0
48 36 29 46 66 69 68 83 68 76 102 98 136 121 61 50 46 51 61 60 17 49 90 72 43 1 7 0 0 0 0 0 0 28 43 78 42 16 22 10 3 0 0 0 0 0 0
47 33 50 83 72 89 83 79 89 106 91 124 129 145 127 94 69 60 69 66 29 44 34 75 0 0 0 0 0 0 0 0 0 56 49 100 51 8 15 6 7 1 0 0 0 0 0
39 70 76 53 70 81 83 94 99 129 172 155 150 158 161 128 113 104 92 78 27 24 15 0 1 0 0 0 0 0 0 2 2 2 67 63 25 7 17 14 0 0 0 0 0 0 0
63 36 41 69 72 91 112 111 127 165 163 149 161 165 144 88 152 130 107 79 104 74 22 0 0 0 0 0 0 0 0 5 8 16 22 42 22 10 0 0 0 1 0 0 0 0 0
31 46 52 69 80 102 122 132 145 159 165 178 147 105 44 76 112 154 134 31 51 2 1 0 0 0 0 0 0 0 0 8 12 18 6 0 0 0 0 8 3 0 0 0 0 0 0
36 60 71 79 93 109 120 134 138 151 154 153 63 36 76 85 62 25 110 21 29 3 0 0 0 0 0 0 0 0 0 1 4 4 0 0 0 0 0 0 0 0 0 0 0 0 0
57 58 68 77 86 102 109 119 134 138 122 74 39 65 77 71 32 41 74 81 15 1 0 0 0 0 1 7 1 0 0 4 9 0 7 0 0 0 0 0 0 0 0 0 0 0 0
65 78 70 74 85 91 100 111 132 109 73 48 59 86 113 143 0 0 76 98 39 0 0 0 0 0 0 0 0 2 0 11 0 0 0 0 0 0 0 0 0 0 0 0 0 0 0
71 61 65 73 82 79 102 113 98 67 54 52 51 68 90 36 71 3 18 79 17 0 0 0 0 0 0 0 11 0 6 6 3 0 0 0 0 0 0 0 0 0 0 0 0 0 0
42 55 64 75 75 73 86 94 71 54 43 42 28 60 39 154 27 18 86 20 0 0 0 0 0 0 0 0 3 0 0 0 0 0 0 0 0 0 0 0 0 0 0 0 0 0 0
43 59 72 75 70 66 66 72 43 36 45 64 58 56 112 41 132 90 26 0 0 0 0 0 0 0 0 0 0 0 0 0 0 0 0 0 0 0 0 0 0 0 0 0 0 0 0
50 64 69 77 69 55 52 55 29 17 65 86 45 21 135 106 116 70 26 0 0 1 0 0 0 0 0 0 0 0 0 0 0 0 0 0 0 0 0 0 0 0 0 0 0 0 0
51 56 73 70 66 59 45 46 31 48 78 117 47 14 93 73 96 38 12 0 0 0 0 0 0 0 0 0 0 0 0 0 0 0 0 0 0 0 0 0 0 0 0 0 0 0 0
61 62 68 55 46 54 41 40 0 0 71 41 0 47 75 85 68 18 0 0 0 0 0 0 0 0 0 0 0 0 0 0 0 0 0 0 0 0 0 0 0 0 0 0 0 0 0
57 43 71 58 42 45 33 7 0 8 108 4 0 16 43 75 2 22 0 0 0 0 4 10 0 0 0 0 0 0 0 0 0 0 0 0 0 0 0 0 0 0 0 0 0 0 0
53 65 75 48 37 48 11 0 0 2 63 127 22 52 63 0 0 0 0 0 0 0 0 0 0 0 0 0 0 0 0 0 0 0 0 0 0 0 0 0 0 0 0 0 0 0 0
53 54 70 42 47 50 0 0 2 5 0 201 73 0 12 0 0 0 0 0 0 0 2 2 0 2 0 0 0 0 0 0 0 0 0 0 0 0 0 0 0 0 0 0 0 0 0
42 38 47 48 51 29 0 0 0 0 2 88 78 0 1 0 0 0 0 0 0 0 0 4 4 10 4 0 0 0 0 0 0 0 0 0 0 0 0 0 0 0 0 0 0 0 0
2 32 29 40 37 19 26 0 0 0 0 0 0 0 0 0 0 0 0 0 0 0 0 1 0 0 0 0 0 0 0 0 0 0 0 0 0 0 0 0 0 0 0 0 0 0 0
10 6 21 20 38 41 38 0 0 0 0 0 0 0 1 0 0 0 0 0 0 8 1 2 0 1 0 0 0 0 0 0 0 0 0 0 0 0 0 0 0 0 0 0 0 0 0
29 22 22 17 22 38 29 4 0 0 0 0 0 0 0 0 0 0 0 0 4 0 0 0 0 7 1 0 0 0 0 0 0 0 0 0 0 0 0 0 0 0 0 0 0 0 0
26 24 28 20 9 13 12 11 0 0 0 0 0 0 0 0 0 0 0 0 4 11 8 5 7 2 0 0 6 0 0 0 0 0 0 0 0 0 0 0 0 0 0 0 0 0 0
32 19 31 25 14 12 16 12 7 0 0 0 0 0 0 0 0 0 0 0 0 4 2 7 0 0 0 3 0 0 0 0 0 0 0 0 0 0 0 0 0 0 0 0 0 0 0
44 19 24 26 18 15 20 21 14 0 0 0 2 2 0 2 12 0 0 0 6 7 7 18 2 1 0 0 0 0 0 0 0 0 0 0 0 0 0 0 0 0 0 0 0 0 0
34 17 26 29 17 19 24 23 18 0 0 0 0 5 0 0 3 18 12 3 2 10 10 0 0 0 0 4 0 0 0 0 0 0 0 0 0 0 0 0 0 0 0 0 0 0 0
31 4 26 33 16 21 26 22 23 10 0 1 0 7 0 0 2 10 0 6 4 14 19 0 2 0 0 0 0 0 0 0 0 0 0 0 0 0 0 0 0 0 0 0 0 0 0

GFSGBSN_con_mucape_039.txt.gz
CAPE
26 63 39 51 40 40 58 66 72 67 74 63 61 69 52 66 38 44 33 15 0 1 25 104 9 3 4 4 0 2 116 202 74 69 38 11 6 1 3 0 0 0 0 0 0 0 0
74 43 41 40 47 50 75 72 75 62 69 98 103 84 90 71 68 45 42 45 33 27 0 56 22 24 3 0 0 0 0 50 61 65 42 46 7 0 0 0 0 0 0 0 0 0 0
37 46 28 58 69 54 64 63 74 96 108 123 107 101 131 98 70 60 48 44 54 45 6 35 25 0 0 0 0 0 0 0 0 0 43 45 43 3 6 0 2 0 0 0 0 0 0
31 44 84 66 40 34 66 86 96 112 128 125 122 147 190 155 121 98 70 51 57 32 15 12 103 3 0 0 0 0 0 0 0 5 42 90 51 20 15 1 0 0 0 0 0 0 0
32 57 48 36 47 76 91 102 120 137 129 147 180 189 203 192 134 142 105 79 65 24 8 8 5 2 0 0 0 0 0 0 0 47 58 90 46 28 19 8 0 0 0 0 0 0 0
68 50 35 47 70 92 98 101 108 115 141 155 157 172 164 186 137 112 155 98 60 34 3 22 12 7 0 0 0 0 0 0 0 52 93 57 30 12 0 2 0 0 0 0 0 0 0
42 48 58 65 82 96 98 97 107 135 139 139 152 160 116 53 106 119 71 15 24 69 30 0 0 0 0 0 0 0 0 1 0 41 21 49 15 0 0 0 0 0 0 0 0 0 0
43 58 37 74 85 96 90 100 112 126 139 129 135 81 22 87 118 124 16 1 25 18 7 0 0 0 0 0 0 0 0 2 6 8 1 25 25 4 6 4 4 2 0 0 0 0 0
41 62 60 77 87 94 93 94 106 117 114 85 43 36 54 111 70 0 0 0 14 18 14 0 0 0 0 0 0 0 1 3 0 14 7 0 0 3 5 0 1 0 0 0 0 0 0
61 30 48 74 84 75 76 84 89 73 52 47 38 53 68 81 14 15 10 30 11 37 4 0 3 0 0 0 0 0 17 0 7 12 2 0 0 0 0 0 0 0 0 0 0 0 0
40 38 58 72 79 68 69 73 75 58 40 43 37 54 60 94 48 0 33 26 19 0 0 0 0 0 0 0 0 20 15 11 0 0 0 0 0 0 0 0 0 0 0 0 0 0 0
38 51 64 77 79 67 66 67 62 49 27 21 19 40 99 28 48 14 6 35 3 5 0 0 0 0 0 0 0 12 17 1 2 2 0 0 0 0 0 0 0 0 0 0 0 0 0
26 41 60 73 75 67 68 57 59 40 23 25 44 70 100 67 36 8 0 2 0 0 7 0 0 0 0 0 0 1 0 0 0 0 0 0 0 0 0 0 0 0 0 0 0 0 0
27 25 47 67 67 67 66 54 43 36 61 76 59 198 13 69 24 5 3 0 18 12 0 0 0 0 0 0 0 0 0 0 0 0 0 0 0 0 0 0 0 0 0 0 0 0 0
0 37 45 71 47 61 57 60 0 0 55 81 135 11 39 31 5 9 15 13 1 0 0 0 0 0 0 0 0 0 0 0 0 0 0 0 0 0 0 0 0 0 0 0 0 0 0
0 40 37 59 36 49 36 0 5 72 130 20 0 0 76 30 28 8 0 0 0 0 0 0 0 0 0 0 0 0 0 0 0 0 0 0 0 0 0 0 0 0 0 0 0 0 0
0 43 55 63 25 41 0 0 0 56 194 14 0 15 26 44 9 0 0 0 0 0 0 0 0 0 0 0 0 0 0 0 0 0 0 0 0 0 0 0 0 0 0 0 0 0 0
32 39 45 47 23 47 0 0 1 30 122 0 0 0 12 2 0 0 0 0 0 0 5 0 0 0 0 0 0 0 0 0 0 0 0 0 0 0 0 0 0 0 0 0 0 0 0
32 29 32 52 51 35 0 0 3 1 20 3 0 0 0 0 0 0 0 0 1 19 29 0 0 0 0 0 0 0 0 0 0 0 0 0 0 0 0 0 0 0 0 0 0 0 0
0 25 27 31 28 41 0 0 0 0 0 0 0 0 5 5 0 0 0 0 1 16 12 0 0 0 0 0 0 0 0 0 0 0 0 0 0 0 0 0 0 0 0 0 0 0 0
0 0 20 0 38 37 0 0 0 0 0 1 0 0 0 0 0 0 0 0 0 0 10 10 3 0 0 0 0 0 0 0 0 0 0 0 0 0 0 0 0 0 0 0 0 0 0
1 0 0 0 0 10 25 0 0 0 0 0 0 0 0 0 0 0 0 0 0 0 0 0 0 4 0 0 0 0 0 0 0 0 0 0 0 0 0 0 0 0 0 0 0 0 0
0 0 0 0 0 0 0 0 0 0 0 0 0 0 0 0 0 0 0 0 0 0 0 0 0 0 0 0 0 0 0 0 0 0 0 0 0 0 0 0 0 0 0 0 0 0 0
14 32 12 0 0 0 0 0 0 0 0 0 0 0 0 0 0 0 0 0 0 0 0 0 0 0 0 0 0 0 0 0 0 0 0 0 0 0 0 0 0 0 0 0 0 0 0
12 34 25 18 0 0 0 9 7 0 0 0 0 0 0 0 0 0 0 0 7 0 0 0 0 0 0 0 0 0 0 0 0 0 0 0 0 0 0 0 0 0 0 0 0 0 0
0 35 15 17 24 2 0 19 11 7 0 0 0 0 0 0 0 0 0 0 0 0 1 2 1 0 0 0 0 0 0 0 0 0 0 0 0 0 0 0 0 0 0 0 0 0 0
20 34 10 25 28 24 28 15 14 11 0 4 0 5 0 0 3 5 6 0 8 10 0 2 1 0 0 0 0 0 0 0 0 0 0 0 0 0 0 0 0 0 0 0 0 0 0
0 37 12 25 30 25 30 15 18 9 0 9 3 15 0 5 0 20 24 3 8 4 1 0 0 0 0 0 0 0 0 0 0 0 0 0 0 0 0 0 0 0 0 0 0 0 0
0 28 1 33 31 26 21 15 17 12 0 4 0 11 2 0 0 4 11 17 23 23 12 0 7 0 0 0 0 0 0 0 0 0 0 0 0 0 0 0 0 0 0 0 0 0 0

GFSGBSN_con_mucape_042.txt.gz
CAPE
38 28 36 30 41 70 41 31 50 66 94 104 123 133 127 90 84 59 62 40 29 16 14 8 8 19 1 8 0 0 82 76 22 50 2 3 11 0 0 0 0 0 0 0 0 0 0
38 36 46 50 27 28 46 62 73 85 109 119 122 113 132 160 135 113 77 73 33 31 14 7 1 16 2 0 0 0 96 135 82 55 32 32 20 0 0 0 0 0 0 0 0 0 0
21 37 52 23 37 52 69 76 82 93 107 117 134 142 153 177 161 162 138 76 66 35 39 0 3 42 15 0 0 0 67 179 103 61 16 29 31 11 0 0 0 0 0 0 0 0 0
20 59 37 33 40 59 69 81 75 88 101 119 141 183 197 195 180 177 166 100 41 36 33 1 30 33 7 0 0 0 0 0 0 25 61 83 44 10 0 0 0 1 0 0 0 0 0
57 25 47 36 51 63 73 81 82 94 100 120 125 170 177 174 184 160 147 151 105 60 34 17 15 11 24 0 0 0 0 0 8 5 22 97 51 32 10 2 0 0 0 0 0 0 0
26 33 55 51 57 69 76 79 83 84 99 114 107 126 142 126 89 134 137 111 73 47 15 14 7 4 0 0 0 0 0 0 34 98 79 76 35 18 27 7 0 0 0 0 0 0 0
25 44 37 53 66 66 69 86 79 88 86 93 83 68 58 44 76 115 41 0 0 4 12 30 9 0 0 0 0 0 0 0 20 67 21 45 7 0 0 0 1 0 0 0 0 0 0
37 46 25 52 66 74 73 77 80 63 69 71 47 52 42 59 106 113 7 0 1 16 0 13 9 0 0 0 1 0 0 1 11 22 37 30 16 9 1 0 0 0 0 0 0 0 0
26 23 35 60 65 72 67 75 72 66 69 56 59 54 55 78 79 7 4 0 9 5 0 10 1 2 2 0 0 0 6 5 0 0 13 10 0 6 5 1 2 0 0 0 0 0 0
33 19 53 58 78 69 66 64 71 58 56 28 33 38 51 97 64 16 0 13 5 10 0 0 3 9 0 0 0 9 30 3 20 9 1 2 0 1 11 2 0 0 0 0 0 0 0
32 15 49 59 65 62 67 73 61 59 36 22 23 22 76 131 68 55 45 29 24 3 0 1 12 28 0 0 0 46 30 20 4 5 0 0 0 0 0 0 0 0 0 0 0 0 0
21 22 37 60 61 44 68 67 58 42 55 64 67 109 138 99 20 17 28 25 6 5 0 41 5 1 0 1 0 30 13 6 8 24 9 0 0 0 0 0 0 0 0 0 0 0 0
20 29 21 58 55 42 60 53 0 57 92 74 111 152 175 86 48 27 3 4 18 25 5 0 1 0 0 0 0 27 1 3 0 0 0 0 0 0 0 0 0 0 0 0 0 0 0
19 30 38 59 34 40 0 0 34 37 124 158 156 122 15 37 12 7 0 0 14 6 19 5 0 0 0 0 0 0 0 0 0 0 0 0 0 0 0 0 0 0 0 0 0 0 0
20 32 40 48 16 35 0 0 7 82 218 76 1 1 2 2 8 8 2 0 0 25 4 0 0 0 0 0 0 0 1 0 0 0 0 0 0 0 0 0 0 0 0 0 0 0 0
25 33 28 37 23 23 0 0 0 84 161 37 0 5 7 21 0 0 1 0 7 1 0 0 0 0 0 0 0 0 0 0 0 0 0 0 0 0 0 0 0 0 0 0 0 0 0
27 20 17 25 22 0 0 0 0 13 46 2 0 2 4 1 0 0 18 6 1 0 0 0 0 0 0 0 0 0 0 0 0 0 0 0 0 0 0 0 0 0 0 0 0 0 0
25 1 19 3 14 0 0 0 0 0 8 0 0 0 0 0 0 0 0 0 0 7 0 0 0 0 0 0 0 0 0 0 0 0 0 0 0 0 0 0 0 0 0 0 0 0 0
21 0 0 0 10 0 0 0 0 0 0 0 0 0 1 0 0 0 0 0 13 0 0 0 0 0 0 0 0 0 0 0 0 0 0 0 0 0 0 0 0 0 0 0 0 0 0
12 18 0 0 0 0 0 0 0 0 0 0 0 0 0 0 0 0 0 0 1 10 0 0 0 0 0 0 0 0 0 0 0 0 10 0 0 0 0 0 0 0 0 0 0 0 0
0 21 0 0 0 0 0 0 0 0 0 0 0 0 0 0 0 0 0 0 0 0 4 0 0 0 0 0 0 0 0 0 0 0 0 0 0 0 0 0 0 0 0 0 0 0 0
0 27 0 0 0 0 0 0 0 0 0 0 0 0 0 0 0 0 0 0 0 0 0 0 0 0 0 0 0 0 0 0 0 0 0 0 0 0 0 0 0 0 0 0 0 0 0
0 8 10 0 0 0 0 0 0 0 0 0 0 0 0 0 0 0 0 0 0 0 0 0 1 0 0 0 0 0 0 0 0 0 0 0 0 0 0 0 0 0 0 0 0 0 0
0 0 24 2 0 0 0 0 0 0 0 0 0 0 0 0 0 0 0 0 0 0 0 0 0 0 0 0 0 0 0 0 0 0 0 0 0 0 0 0 0 0 0 0 0 0 0
0 0 21 12 0 0 0 0 0 0 0 0 0 0 0 0 0 0 0 0 0 0 0 0 0 0 0 5 0 0 0 0 0 0 0 0 0 0 0 0 0 0 0 0 0 0 0
0 0 40 10 29 12 0 0 0 10 0 0 0 0 0 0 0 0 0 0 0 0 0 0 0 0 0 1 0 0 0 0 0 0 0 0 0 0 0 0 0 0 0 0 0 0 0
0 2 47 12 29 25 3 0 13 11 9 7 2 8 0 0 4 2 0 0 7 9 3 7 0 0 0 0 0 0 0 0 0 0 0 0 0 0 0 0 0 0 0 0 0 0 0
0 0 44 11 25 26 19 16 8 6 8 12 2 11 3 0 7 25 8 0 11 9 2 0 0 0 0 0 0 0 0 0 0 0 0 0 0 0 0 0 0 0 0 0 0 0 0
0 0 38 14 24 36 19 39 33 24 5 2 1 9 2 0 0 15 19 25 29 21 17 0 1 0 0 0 0 0 0 0 0 0 0 0 0 0 0 0 0 0 0 0 2 0 0

GFSGBSN_con_mucape_045.txt.gz
CAPE
22 28 33 40 25 28 52 59 70 73 73 78 82 101 122 173 155 154 141 136 90 44 20 11 0 6 52 8 0 73 60 211 13 94 39 18 5 3 0 0 0 0 0 0 0 0 0
29 35 59 28 30 28 59 62 73 74 75 79 86 96 123 164 163 165 195 157 118 63 42 19 11 20 17 14 0 43 16 113 123 118 31 20 2 0 0 0 0 0 0 0 0 0 0
35 63 29 33 25 64 61 71 62 70 75 88 90 95 127 176 188 191 220 202 128 96 75 20 20 50 26 6 0 0 133 192 194 113 18 18 4 12 0 0 0 0 0 0 0 0 0
45 42 38 43 54 57 64 62 65 80 74 79 82 82 101 139 187 212 226 241 180 112 79 36 24 18 8 1 3 0 66 166 178 138 83 75 47 20 0 0 0 0 0 0 0 0 0
46 45 51 39 56 59 73 75 68 83 81 84 77 76 60 72 154 126 178 207 194 166 104 61 13 61 9 0 7 0 0 38 89 101 97 99 65 33 12 12 2 3 0 0 0 0 0
36 46 50 41 55 60 76 75 87 88 90 80 73 54 48 39 55 120 197 209 171 110 60 57 24 58 2 0 16 0 0 8 64 39 71 156 81 23 28 19 0 0 0 0 0 0 0
51 31 36 60 61 67 78 77 72 89 93 85 64 57 55 31 66 155 68 0 0 13 23 0 9 15 1 3 1 0 0 9 108 102 55 50 33 16 1 5 0 0 0 0 0 0 0
51 46 36 68 65 67 70 80 80 99 76 74 59 25 37 41 126 159 21 0 1 7 0 0 17 6 0 1 9 0 0 1 75 83 38 76 22 1 11 2 1 0 0 0 0 0 0
35 29 31 43 58 68 64 80 91 69 64 52 27 24 27 52 128 6 0 0 1 10 0 0 28 1 24 1 7 0 0 12 52 76 34 6 0 0 0 1 5 0 0 0 0 0 0
30 19 28 40 61 56 47 75 70 59 55 61 74 95 59 62 56 34 3 0 0 6 0 0 11 15 9 0 0 0 2 45 50 46 28 8 2 12 1 0 0 0 0 0 0 0 0
18 29 21 26 68 29 60 69 0 66 112 116 156 138 95 95 22 72 20 14 7 19 0 8 0 0 0 0 0 5 43 12 12 1 0 3 3 5 9 2 0 0 0 0 0 0 0
0 25 33 55 59 15 59 8 51 76 176 226 190 142 76 65 0 37 49 27 1 0 0 1 7 0 0 0 0 25 49 20 13 2 7 0 0 0 0 0 1 2 0 0 0 0 0
0 15 31 48 36 31 0 0 43 86 173 83 99 119 16 36 2 31 21 22 0 15 1 0 3 0 2 0 0 32 0 3 3 0 0 0 0 0 0 0 0 0 0 0 0 0 0
0 26 19 27 42 0 0 0 0 53 141 96 18 0 6 4 14 2 0 44 0 1 0 0 9 0 0 0 23 12 2 0 0 0 0 0 0 0 0 0 0 0 0 0 0 0 0
0 22 6 0 21 0 0 0 0 26 105 122 2 0 6 8 0 0 1 21 0 0 2 2 3 0 0 0 2 0 0 0 1 0 0 0 0 0 0 0 0 0 0 0 0 0 0
0 12 10 0 20 0 0 0 0 0 20 17 0 0 0 0 0 0 8 39 18 0 11 3 0 0 0 0 0 0 0 0 0 0 0 0 0 0 0 0 0 0 0 0 0 0 0
0 3 9 0 0 4 0 0 0 0 2 0 0 0 0 1 0 0 2 0 10 0 0 0 0 0 0 0 0 0 0 0 0 0 0 0 0 0 0 0 0 0 0 0 0 0 0
0 0 11 0 0 0 0 0 0 0 0 0 0 0 0 0 0 1 0 0 0 0 0 0 0 0 0 0 0 0 0 0 0 0 0 0 0 0 0 0 0 0 0 0 0 0 0
0 0 5 10 0 0 0 0 0 0 0 0 0 0 0 0 0 0 0 0 0 0 0 0 0 0 0 0 0 0 0 0 0 0 0 0 0 0 0 0 0 0 0 0 0 0 0
0 0 0 5 0 0 0 0 0 0 0 0 0 0 0 0 0 0 0 0 0 0 0 0 0 0 0 0 0 0 0 0 0 0 0 0 0 0 0 0 0 0 0 0 0 0 0
0 0 0 7 10 0 0 0 0 0 0 0 0 0 0 0 0 0 0 0 0 0 0 0 0 0 0 0 0 0 0 0 0 5 0 0 0 0 0 0 0 0 0 0 0 0 0
0 0 0 0 16 0 0 0 0 0 0 0 0 0 0 0 0 0 0 0 0 0 0 0 0 0 0 0 0 0 0 0 0 0 0 0 0 0 0 0 0 0 0 0 0 0 0
0 0 0 0 17 4 0 0 0 0 0 0 0 0 0 0 0 0 0 0 0 0 0 2 0 0 0 0 0 0 0 0 0 0 0 0 0 0 0 0 0 0 0 0 0 0 0
0 0 0 0 15 21 0 0 0 0 0 0 0 0 0 0 0 0 0 0 0 0 0 0 1 0 0 0 0 0 0 0 0 0 0 0 0 0 0 0 0 0 0 0 0 0 0
0 0 0 0 0 28 17 0 0 0 0 0 0 0 0 0 0 0 0 0 0 0 0 0 0 0 0 0 0 0 0 0 0 0 0 0 0 0 0 0 0 0 0 0 0 0 0
0 0 0 0 6 17 23 0 0 0 0 0 5 0 0 0 0 0 0 0 0 0 0 0 0 0 0 0 0 0 0 0 0 0 0 0 0 0 0 0 0 0 0 0 0 0 0
0 0 0 0 0 8 23 18 0 0 1 0 7 9 0 0 0 0 0 0 1 0 0 6 0 0 0 0 0 0 0 0 0 0 0 0 0 0 0 0 0 0 0 0 0 0 0
0 0 0 0 6 3 37 24 7 12 8 0 0 16 2 0 12 10 4 0 5 4 0 1 0 0 0 0 0 0 0 0 0 0 0 0 0 0 0 0 0 0 0 0 0 0 0
0 0 0 0 15 7 38 44 49 46 27 10 0 10 12 0 2 20 12 5 8 7 15 0 7 0 0 0 0 0 0 0 0 0 0 0 0 0 0 0 0 0 0 0 0 0 0

GFSGBSN_con_mucape_048.txt.gz
CAPE
32 33 56 35 51 38 60 63 63 74 73 68 72 81 83 88 102 110 148 174 217 196 137 61 26 17 50 7 1 99 128 288 1 28 56 49 19 13 1 0 0 0 0 0 0 0 0
35 37 32 41 53 60 59 61 54 76 84 70 75 82 87 84 89 119 189 208 227 234 199 116 56 12 38 1 0 6 40 257 19 167 59 51 21 7 0 0 0 0 0 0 0 0 0
29 37 37 31 51 53 64 72 78 82 86 86 84 90 93 71 76 118 208 221 210 248 211 126 72 27 51 3 0 1 30 179 119 219 131 66 16 4 0 0 0 0 0 0 0 0 0
0 20 44 33 40 55 70 83 90 85 82 91 92 98 77 85 79 112 166 201 227 225 208 139 63 13 11 5 16 10 27 174 232 239 152 74 18 36 1 0 0 0 0 0 0 0 0
0 35 27 41 64 69 79 83 81 86 78 93 115 103 82 66 68 107 172 262 278 264 247 156 45 40 44 33 11 11 54 100 206 143 143 76 102 35 21 4 0 0 0 0 0 0 0
0 31 28 35 42 67 77 63 86 78 91 103 105 107 79 62 86 117 194 179 173 95 110 106 62 15 12 4 0 29 35 54 55 91 142 130 53 39 26 4 0 0 0 0 0 0 0
0 21 21 29 43 62 70 50 71 80 86 77 46 52 26 25 91 175 89 0 0 0 26 0 13 5 5 0 17 22 29 59 80 53 96 59 72 0 4 10 0 0 0 0 0 0 0
0 18 20 36 57 61 35 45 68 62 64 92 117 92 74 31 107 182 14 0 0 2 0 0 3 15 16 25 40 38 18 20 56 54 35 4 2 11 2 8 2 0 0 0 0 0 0
0 13 22 33 40 55 4 54 57 63 109 151 226 218 151 119 51 8 1 0 0 6 5 30 6 18 40 14 2 0 3 31 53 84 58 18 0 1 1 11 24 0 0 0 0 0 0
0 3 29 46 52 25 0 48 43 90 125 186 139 176 183 86 11 42 0 0 4 15 0 0 2 34 11 4 9 1 0 56 50 44 64 38 22 11 0 1 3 0 0 0 0 0 0
0 3 33 42 36 0 23 21 68 62 110 82 113 133 84 26 13 18 23 10 12 7 0 0 0 23 16 0 0 7 9 59 59 68 3 0 20 1 1 0 0 0 0 0 0 0 0
0 0 31 22 41 0 0 38 41 45 72 31 30 59 33 2 0 30 9 3 0 0 0 0 2 1 2 1 0 10 26 27 24 52 1 0 4 18 0 7 1 0 0 0 0 0 0
0 0 27 22 23 0 9 29 25 23 30 73 6 7 14 5 6 26 6 0 0 0 0 2 0 0 0 0 0 37 27 26 0 0 0 0 0 0 0 0 1 0 0 0 0 0 0
0 0 1 19 17 13 0 0 0 13 6 70 5 0 0 0 1 0 0 0 0 2 0 4 1 0 0 0 0 4 15 0 20 1 0 0 0 0 0 0 0 0 0 0 0 0 0
0 0 0 14 14 12 0 0 0 0 13 11 0 0 0 0 0 0 0 1 22 2 2 0 0 0 0 0 0 4 0 0 4 5 0 0 0 0 0 0 0 0 0 0 0 0 0
0 0 0 14 11 0 0 0 0 0 0 0 0 0 0 0 0 0 0 0 0 0 0 0 0 0 0 0 0 0 0 0 0 2 0 0 0 0 0 0 0 0 0 0 0 0 0
0 0 0 0 12 0 0 0 0 0 0 0 0 0 0 0 0 0 0 0 0 0 0 0 0 0 0 0 0 0 0 0 1 0 0 0 0 0 0 0 0 0 0 0 0 0 0
0 0 0 0 16 0 0 0 0 0 0 0 0 0 0 0 0 0 0 0 1 0 0 0 0 0 0 0 0 0 0 0 0 0 0 0 0 0 0 0 0 0 0 0 0 0 0
0 0 0 0 11 9 0 0 0 0 0 0 0 0 0 0 0 0 0 0 0 0 0 0 0 0 0 0 0 0 0 0 0 0 0 0 0 0 0 0 0 0 0 0 0 0 0
0 0 0 0 0 9 0 0 0 0 0 0 0 0 0 0 0 0 0 0 0 0 0 0 0 0 0 0 0 0 0 0 0 0 0 0 0 0 0 0 0 0 0 0 0 0 0
0 0 0 0 0 6 0 0 0 0 0 0 0 0 0 0 0 0 0 0 0 0 0 0 0 0 0 0 0 0 0 0 0 0 0 0 0 0 0 0 0 0 0 0 0 0 0
0 0 0 0 0 0 10 0 0 0 0 0 0 0 0 0 0 0 0 0 0 0 0 0 0 0 0 0 0 0 0 0 0 0 0 0 0 0 0 0 0 0 0 0 0 0 0
0 0 0 0 0 0 0 1 0 0 0 0 0 0 0 0 0 0 0 0 0 0 0 0 0 0 0 0 0 0 0 0 0 0 0 0 0 0 0 0 0 0 0 0 0 0 0
0 0 0 0 0 0 0 12 0 0 0 0 0 0 0 0 0 0 0 0 0 0 0 0 0 0 0 0 0 0 0 0 0 0 0 0 0 0 0 0 0 0 0 0 0 0 0
0 0 0 0 0 0 0 0 0 0 0 0 0 0 0 0 0 0 0 0 0 0 0 0 0 0 0 0 0 0 0 0 0 0 0 0 0 0 0 0 0 0 0 0 0 0 0
0 0 0 0 45 0 6 19 0 0 0 0 0 5 0 0 0 0 0 0 0 0 0 0 0 0 0 0 0 0 0 0 0 0 0 0 0 0 0 0 0 0 0 0 0 0 0
0 0 0 0 0 0 0 33 11 3 0 0 0 6 8 0 0 0 0 0 0 0 0 0 0 0 0 0 0 0 0 0 0 0 0 0 0 0 0 0 0 0 0 0 0 0 0
0 0 0 0 0 0 16 32 21 22 29 2 0 0 3 2 1 0 10 0 3 3 0 0 0 0 0 0 0 0 0 0 0 0 0 0 0 0 0 0 0 0 0 0 0 0 0
0 0 0 0 0 12 5 15 29 40 33 18 0 7 0 4 0 1 17 6 4 5 27 4 15 0 0 0 0 0 0 0 0 0 0 0 0 0 0 0 0 0 0 0 0 0 4

GFSGBSN_con_mucape_051.txt.gz
CAPE
22 0 18 30 51 28 37 53 53 71 73 73 79 88 87 95 97 79 86 94 137 176 208 189 156 80 47 76 9 21 99 128 14 0 14 30 12 17 9 0 0 0 0 0 0 0 0
14 36 11 37 36 33 60 65 68 78 82 91 98 94 91 112 114 80 99 140 204 244 266 261 184 113 51 1 10 28 62 98 62 5 109 28 2 3 6 0 0 0 0 0 0 0 0
26 30 38 24 34 41 59 62 67 67 82 84 102 125 133 132 124 147 137 166 186 240 275 293 202 89 47 0 4 1 5 137 119 13 148 106 12 3 0 0 0 0 0 0 0 0 0
12 1 39 31 35 46 61 66 53 66 85 95 118 159 214 165 140 128 155 196 227 262 306 265 198 70 23 30 29 18 7 42 134 261 279 178 51 13 0 0 0 0 0 0 0 0 0
8 0 11 31 40 63 74 56 40 55 90 90 85 84 110 155 83 167 146 252 317 331 344 281 107 42 38 135 22 11 28 38 219 204 192 146 111 63 17 0 0 0 0 0 0 0 0
5 0 7 34 35 59 78 28 49 67 62 63 106 137 69 30 17 101 201 259 173 67 150 210 122 29 16 28 3 23 45 42 117 152 121 119 90 27 36 0 0 0 0 0 0 0 0
0 0 7 34 44 73 37 16 71 52 86 113 166 173 176 66 18 107 84 0 0 0 14 0 0 1 62 47 51 83 22 105 116 69 0 73 14 0 5 0 0 0 0 0 0 0 0
0 0 0 27 37 64 12 61 39 70 81 85 104 131 162 144 55 91 10 0 0 0 0 0 0 27 24 36 0 2 35 55 98 63 0 36 0 0 2 21 0 0 0 0 0 0 0
0 0 0 34 27 33 33 31 73 39 67 82 79 123 162 128 48 0 0 0 0 0 1 1 15 34 27 13 3 0 18 24 45 14 0 0 0 20 2 18 0 0 0 0 0 0 0
0 0 0 16 25 20 16 56 41 32 32 61 44 59 129 46 0 3 0 17 9 12 0 0 28 70 32 54 17 9 30 23 31 13 0 0 0 15 33 14 7 0 0 0 0 0 0
0 0 0 0 20 24 0 36 35 29 23 44 17 39 63 32 2 13 8 19 15 7 0 0 0 26 45 21 0 0 0 30 29 0 0 0 1 0 0 0 11 1 0 0 0 0 0
0 0 0 0 19 18 7 0 0 18 18 50 13 4 12 0 4 5 3 1 0 0 0 0 0 22 28 0 0 25 44 23 14 48 21 6 38 1 1 0 0 0 0 0 0 0 0
0 0 0 0 21 18 11 0 0 4 6 17 13 0 0 0 7 0 0 0 0 0 0 3 0 5 0 0 9 15 6 9 0 0 0 0 13 6 0 0 0 0 0 0 0 0 0
0 0 0 0 0 17 11 0 0 0 2 7 0 0 0 0 0 0 0 0 0 0 0 3 1 1 12 0 0 19 15 0 0 0 0 0 0 0 0 0 0 0 0 0 0 0 0
0 0 0 0 0 16 4 9 0 0 0 7 0 0 0 0 0 0 0 0 0 0 0 0 0 12 31 0 0 0 0 0 0 0 0 0 0 0 0 0 0 0 0 0 0 0 0
0 0 3 5 0 4 0 3 0 0 0 0 0 0 0 0 0 0 0 0 0 1 1 0 0 0 0 0 0 2 0 0 0 0 0 0 0 0 0 0 0 0 0 0 0 0 0
7 0 14 3 0 0 6 0 0 0 0 0 0 0 0 0 0 0 0 0 0 0 0 0 0 0 0 0 0 0 0 0 0 0 0 0 0 0 0 0 0 0 0 0 0 0 0
0 2 0 25 0 0 9 0 0 0 0 0 0 0 0 0 0 0 0 0 0 0 0 0 0 0 0 0 0 0 0 0 0 0 0 0 0 0 0 0 0 0 0 0 0 0 0
5 3 0 0 0 0 0 1 0 0 0 0 0 0 0 0 0 0 0 8 0 0 0 0 0 0 0 0 0 0 0 0 0 0 0 0 0 0 0 0 0 0 0 0 0 0 0
0 8 0 0 0 0 0 0 0 0 0 0 0 0 0 0 0 0 0 0 0 0 0 0 0 0 0 0 0 0 0 0 0 0 0 0 0 0 0 0 0 0 0 0 0 0 0
0 6 0 0 0 0 0 0 0 0 0 0 0 0 0 0 0 0 0 0 0 0 0 0 0 0 0 0 0 0 0 0 0 0 0 0 0 0 0 0 0 0 0 0 0 0 0
6 6 0 0 0 0 0 0 0 0 0 0 0 0 0 0 0 0 0 0 0 0 0 0 0 0 0 0 0 0 0 0 0 0 0 0 0 0 0 0 0 0 0 0 0 0 0
3 0 0 0 0 0 0 0 0 0 0 0 0 0 0 0 0 0 0 0 0 0 0 0 0 0 0 0 0 0 0 0 0 0 0 0 0 0 0 0 0 0 0 0 0 0 0
0 0 0 0 0 0 0 0 0 0 0 0 0 0 0 0 0 0 0 0 0 0 0 0 0 0 0 0 0 0 0 0 0 0 0 0 0 0 0 0 0 0 0 0 0 0 0
0 0 0 0 0 0 0 0 0 0 0 0 0 0 0 0 0 0 0 0 0 0 0 0 0 0 0 0 0 0 0 0 0 0 0 0 0 0 0 0 0 0 0 0 0 0 0
0 0 0 0 0 0 0 0 0 0 0 0 0 0 0 0 0 0 0 0 0 0 0 0 0 0 0 0 0 0 0 0 0 0 0 0 0 0 0 0 0 0 0 0 0 0 0
0 0 0 0 0 0 0 0 0 6 11 0 0 0 0 0 0 1 0 0 0 0 0 0 0 1 5 0 0 0 0 0 0 0 0 0 0 0 0 0 0 1 0 0 0 0 0
0 0 0 0 0 0 0 0 8 8 11 25 0 1 0 0 0 22 10 0 0 0 0 0 0 0 0 0 0 0 0 0 0 0 0 0 0 0 0 0 0 0 0 0 0 0 0
0 0 0 0 0 0 66 33 5 21 24 22 0 0 33 0 0 27 29 0 7 6 15 5 9 1 0 0 0 0 0 0 0 0 0 0 0 0 0 0 0 0 0 0 0 0 0

GFSGBSN_con_mucape_054.txt.gz
CAPE
22 30 27 50 32 24 39 66 67 61 66 83 95 92 108 95 136 157 123 127 131 156 117 112 92 83 78 16 2 27 31 7 249 80 40 35 69 74 42 14 1 0 0 0 0 0 0
14 24 40 38 35 44 34 64 61 60 56 84 99 99 132 142 180 209 183 178 209 192 190 203 199 114 54 20 1 53 60 41 17 125 25 108 25 63 34 23 3 0 0 0 0 0 0
18 28 11 36 38 40 51 58 41 27 55 95 95 86 96 172 180 199 153 199 250 252 229 242 246 176 59 0 19 21 18 12 89 79 11 148 59 65 25 22 7 0 0 0 0 0 0
17 20 20 30 33 49 73 24 5 42 88 90 99 115 127 114 147 154 170 179 218 267 294 307 221 162 5 2 20 14 28 13 72 32 94 240 199 85 34 13 0 0 0 0 0 0 0
17 26 18 0 48 58 45 23 73 50 81 95 120 136 170 155 74 25 69 192 300 339 279 322 213 81 2 189 59 26 57 43 248 126 260 244 131 39 26 25 12 0 0 0 0 0 0
19 13 15 8 48 39 33 39 25 70 77 88 78 85 125 170 54 7 147 247 218 132 260 250 83 63 0 105 97 81 77 40 311 125 246 199 108 100 66 25 0 0 0 0 0 0 0
11 16 15 12 26 27 27 22 61 59 81 76 48 83 114 143 123 2 184 63 4 38 103 1 8 50 58 51 222 52 2 117 346 161 64 68 4 54 16 1 0 0 0 0 0 0 0
16 14 19 8 31 21 30 55 56 53 67 63 26 64 134 112 66 85 78 4 0 2 0 0 0 1 32 9 31 12 0 262 74 49 38 0 26 0 40 20 0 0 0 0 0 0 0
9 5 11 0 0 24 8 26 34 40 47 49 23 45 146 104 35 8 5 10 5 23 0 0 17 1 15 0 7 14 14 8 67 16 0 0 0 39 20 17 0 0 0 0 0 0 0
12 8 11 0 0 22 15 0 5 29 34 33 18 44 31 7 13 9 15 21 15 5 0 0 23 11 24 30 0 4 17 0 31 0 0 2 7 20 39 5 10 0 0 0 0 0 0
6 7 22 1 0 16 15 0 0 20 26 10 9 10 11 0 19 5 11 28 14 0 0 0 30 0 26 0 0 5 1 0 5 0 0 0 0 55 32 17 21 17 0 0 0 0 0
13 7 24 19 7 0 14 3 0 0 0 1 15 0 0 0 0 0 0 0 0 0 0 0 0 9 10 0 0 4 1 4 0 0 0 0 0 0 0 0 19 0 0 0 0 0 0
10 0 18 21 16 0 14 13 0 0 0 0 9 0 0 0 0 0 0 0 0 0 0 0 13 0 9 0 0 0 0 8 0 0 0 0 0 0 0 0 0 6 1 0 0 0 0
0 0 6 26 15 0 9 2 0 0 0 0 0 0 0 0 0 0 0 0 0 0 0 0 0 1 20 7 4 0 0 0 0 0 0 0 0 0 0 0 0 0 0 0 0 0 0
0 0 0 23 0 0 6 0 8 0 0 0 0 0 0 0 0 0 0 0 0 0 0 1 5 0 1 0 0 0 4 0 0 0 0 0 0 0 0 0 0 0 0 0 0 0 0
0 0 0 14 0 0 3 2 0 0 0 0 0 0 0 0 0 0 0 0 0 0 0 0 0 0 0 0 3 0 0 0 0 0 0 0 0 0 0 0 0 0 0 0 0 0 0
0 0 0 9 7 0 0 3 0 0 0 0 0 0 0 0 0 0 0 0 0 0 0 0 0 0 0 0 0 0 0 0 0 0 0 0 0 0 0 0 0 0 0 0 0 0 0
0 0 0 0 0 0 0 0 0 0 0 0 0 0 0 0 0 0 0 0 0 0 0 0 0 0 0 0 0 0 0 0 0 0 0 0 0 0 0 0 0 0 0 0 0 0 0
0 0 0 0 6 0 0 0 0 0 0 0 0 0 0 0 0 0 0 0 0 0 0 0 0 0 0 0 0 0 0 0 0 0 0 0 0 0 0 0 0 0 0 0 0 0 0
0 0 0 0 0 0 0 0 0 0 0 0 0 0 0 0 0 0 0 0 0 0 0 0 0 0 0 0 0 0 0 0 0 0 0 0 0 0 0 0 0 0 0 0 0 0 0
0 0 0 0 0 0 0 0 0 0 0 0 0 0 0 0 0 0 0 0 0 0 0 0 0 0 0 0 0 0 0 0 0 0 0 0 0 0 0 0 0 0 0 0 0 0 0
0 0 0 0 0 0 0 0 0 0 0 0 0 0 0 0 0 0 0 0 0 0 0 0 0 0 0 0 0 0 0 0 0 0 0 0 0 0 0 0 0 0 0 0 0 0 0
0 0 0 0 0 0 0 0 0 0 0 0 0 0 0 0 0 0 0 0 0 0 0 0 0 0 0 0 0 0 0 0 0 0 0 0 0 0 0 0 0 0 0 0 0 0 0
0 0 0 0 0 0 0 0 0 0 0 0 0 0 0 0 0 0 0 0 0 0 0 0 0 0 0 0 0 0 0 0 0 0 0 0 0 0 0 0 0 0 0 0 0 0 0
0 0 0 0 0 0 0 0 0 0 0 0 0 0 0 0 0 0 0 0 0 0 0 0 5 0 0 0 0 0 0 0 0 0 0 0 0 0 0 0 0 0 0 0 0 0 0
0 0 0 0 0 0 0 0 0 0 0 0 0 0 0 0 0 0 0 0 0 0 0 0 0 0 0 0 0 0 0 0 0 0 0 0 0 0 0 0 0 0 0 0 0 0 0
0 0 0 0 0 0 0 0 0 11 27 7 0 4 0 0 0 0 0 1 0 0 0 0 0 6 5 0 0 0 0 0 0 0 0 0 0 0 0 0 0 0 2 0 0 1 0
0 0 0 0 0 0 0 0 0 28 11 27 0 11 0 0 0 0 8 5 1 0 0 0 0 0 0 0 0 0 0 0 0 0 0 0 0 0 0 0 0 0 0 0 0 0 0
0 0 0 0 0 0 0 0 44 27 22 31 0 0 37 0 0 0 22 45 0 0 0 0 0 0 1 0 0 0 0 0 0 0 0 0 0 0 0 0 0 6 7 0 0 0 0

GFSGBSN_con_mucape_057.txt.gz
CAPE
0 24 19 27 25 31 32 37 49 35 35 57 69 71 73 75 94 120 137 168 209 254 269 218 161 107 66 48 2 9 110 306 459 233 11 45 11 34 55 28 0 0 0 0 0 0 0
0 22 16 26 0 35 57 53 22 32 62 76 76 77 78 95 118 132 186 197 247 259 233 202 182 133 48 38 0 0 57 74 373 203 5 41 7 27 53 42 9 0 0 0 0 0 0
0 26 16 19 0 43 45 36 43 49 55 80 88 99 116 149 166 125 163 200 223 254 255 240 165 162 66 2 2 201 63 64 15 313 13 20 24 66 38 22 41 7 0 0 0 0 0
0 12 17 26 0 26 35 34 33 32 70 89 98 94 114 176 203 96 98 92 227 245 313 301 238 161 38 11 0 4 57 21 67 259 72 47 171 102 55 33 40 25 10 0 0 0 0
0 15 13 22 0 28 27 38 43 57 63 71 76 66 130 189 197 89 7 64 210 338 354 310 256 157 16 104 0 0 0 35 47 333 64 108 284 138 126 51 52 41 0 0 0 0 0
0 11 13 23 0 19 25 49 45 45 52 62 48 99 180 162 155 0 1 179 210 186 282 234 183 73 4 4 84 12 47 68 98 178 100 133 137 91 76 83 0 0 0 0 0 0 0
0 11 11 17 0 6 19 23 28 35 53 57 41 72 163 118 92 0 127 172 146 216 170 82 42 13 29 2 56 53 213 128 247 116 37 190 109 70 14 0 0 0 0 0 0 0 0
0 5 12 13 17 0 19 16 21 29 41 52 42 46 72 46 22 48 107 73 38 36 35 0 0 2 0 7 18 85 70 8 288 40 41 224 1 27 34 24 17 0 0 0 0 0 0
0 7 13 13 15 0 17 23 0 24 33 46 44 30 5 32 15 50 61 7 2 20 41 21 35 11 1 0 6 92 63 38 61 15 42 15 2 7 24 22 19 0 0 0 0 0 0
0 0 1 10 12 15 9 22 0 1 19 30 28 23 1 0 13 30 3 3 13 11 0 0 16 1 22 0 6 4 24 2 25 40 46 4 23 0 0 30 14 0 0 0 0 0 0
0 0 0 14 12 0 0 18 0 0 0 0 10 0 0 0 2 0 5 7 24 0 11 0 0 0 1 0 0 0 1 9 1 3 1 0 5 92 0 0 23 28 7 0 0 0 0
0 0 0 12 0 0 0 14 14 0 0 0 0 0 0 0 0 0 0 0 0 0 4 7 0 7 1 0 0 0 0 0 0 0 0 0 0 0 7 11 37 31 0 0 0 0 0
0 0 0 0 5 0 5 12 14 0 0 0 0 0 0 0 0 0 0 0 0 8 0 0 0 26 23 0 0 0 0 0 0 0 0 0 0 0 0 0 9 26 42 0 0 0 0
0 0 0 0 13 0 0 17 0 0 0 0 0 0 0 0 0 0 0 0 8 0 0 8 0 0 2 21 0 0 14 0 15 4 0 0 0 0 1 0 0 15 47 0 0 0 0
0 0 0 0 0 0 0 0 0 0 0 0 0 0 0 0 0 0 0 11 0 0 0 0 0 1 0 13 0 0 14 0 0 0 0 0 0 0 0 0 1 0 0 0 0 0 0
0 0 0 0 0 0 0 0 0 0 7 0 0 0 0 0 0 0 0 0 0 0 0 0 1 1 0 0 0 0 11 0 0 0 0 0 0 0 0 0 0 0 0 0 0 0 0
0 0 0 0 0 0 0 0 0 0 0 0 0 0 0 0 0 7 0 0 0 0 0 1 2 2 0 5 4 0 0 0 0 0 0 0 0 0 0 0 0 0 0 0 0 0 0
0 0 0 0 0 0 0 0 0 0 0 0 0 7 0 0 7 10 11 0 0 0 0 0 2 6 10 8 0 1 0 0 0 0 0 0 0 0 0 0 0 0 0 0 0 0 0
0 0 0 0 0 0 0 0 0 0 0 0 0 0 0 0 2 6 0 1 0 0 0 0 0 0 0 0 1 0 0 0 0 0 0 0 0 0 0 0 0 0 0 0 0 0 0
0 0 0 0 0 0 0 0 0 0 0 0 0 0 0 6 2 15 3 0 0 0 0 0 0 0 0 0 0 0 0 0 0 0 0 0 0 0 0 0 0 0 0 0 0 0 0
0 0 0 0 0 0 0 0 0 0 0 0 0 0 0 5 14 7 6 1 0 0 0 0 0 0 0 0 0 0 0 0 0 0 0 0 0 0 0 0 0 0 0 0 0 0 0
0 0 0 0 0 0 0 0 0 0 0 0 0 0 0 0 0 0 6 9 1 0 0 0 0 0 0 0 0 0 0 0 0 0 0 0 0 0 0 0 0 0 0 0 0 0 0
0 0 0 0 0 0 0 0 0 0 0 0 0 0 0 0 0 0 0 15 14 0 0 0 0 0 0 0 0 0 0 0 0 0 0 0 0 0 0 0 0 0 0 0 0 0 0
0 0 0 0 0 0 0 0 0 0 0 0 0 0 0 0 0 0 0 0 2 16 18 0 0 0 0 0 0 0 0 0 0 0 0 0 0 0 0 0 0 0 0 0 0 0 0
0 0 0 0 0 0 0 0 0 0 0 0 0 0 0 0 0 0 0 0 0 3 30 28 7 0 0 0 0 0 0 0 0 0 0 0 0 0 0 0 0 0 0 0 0 0 0
0 0 0 0 0 0 0 0 0 0 0 0 0 0 0 0 0 0 0 0 5 31 31 0 2 0 0 0 0 0 0 0 0 0 0 0 0 0 0 0 0 0 0 0 0 0 0
0 0 0 0 0 0 0 0 0 0 0 0 0 10 0 0 0 0 0 1 1 10 27 21 2 16 0 0 0 0 0 0 0 0 0 0 0 0 0 0 0 0 0 0 10 2 0
5 0 0 0 0 0 0 0 0 0 15 26 2 31 0 0 0 0 0 0 2 4 32 36 29 3 16 0 0 0 0 0 0 0 0 0 0 0 0 0 0 0 0 0 2 0 0
0 0 0 0 0 0 0 0 16 41 16 41 0 26 29 0 0 0 0 0 15 8 0 7 30 21 46 42 1 0 0 0 0 0 0 0 0 0 0 0 0 0 7 0 0 0 0

GFSGBSN_con_mucape_060.txt.gz
CAPE
0 0 14 2 0 0 36 39 25 32 41 67 86 88 104 121 192 182 171 174 201 175 178 215 250 211 131 60 2 15 175 27 158 373 24 60 0 44 37 5 0 0 0 0 0 0 0
0 0 14 3 31 0 31 33 32 22 59 75 71 113 121 164 229 228 228 184 218 229 219 211 172 164 74 2 1 9 20 67 99 211 82 34 0 17 14 64 2 0 0 0 0 0 0
0 0 11 17 2 0 21 35 52 62 53 60 77 105 146 152 191 242 227 149 202 244 235 206 212 69 22 1 26 286 115 12 78 164 130 9 5 12 38 46 48 4 6 0 0 0 0
0 0 9 13 0 0 26 22 28 43 42 65 79 73 111 151 183 191 103 90 100 226 236 319 249 140 8 0 0 1 29 29 41 67 112 8 18 13 84 82 60 43 8 0 0 0 0
0 0 8 8 0 0 11 18 30 41 44 48 63 47 83 149 146 82 16 1 140 239 341 352 228 119 7 111 0 0 0 28 33 38 189 202 160 88 56 38 31 37 0 0 0 0 0
0 0 8 0 0 0 0 20 18 41 39 38 43 41 66 87 49 1 2 75 215 234 313 209 174 73 10 19 60 17 0 40 17 99 207 170 147 62 48 47 0 0 0 0 0 0 0
0 0 3 0 0 0 0 21 23 6 30 27 24 34 18 26 23 0 137 260 161 226 152 107 35 14 14 0 176 57 51 14 68 187 50 23 44 0 0 0 0 0 0 0 0 0 0
0 0 0 0 0 0 0 14 16 0 0 11 16 30 12 8 12 39 67 8 24 10 4 6 0 0 10 0 1 30 74 0 24 92 48 55 4 0 0 0 2 5 0 0 0 0 0
0 0 0 0 0 0 0 12 17 0 0 0 0 0 15 0 4 36 10 5 1 16 10 17 33 15 2 0 15 0 1 0 0 2 1 7 9 11 23 10 0 0 0 0 0 0 0
0 0 0 0 0 0 0 14 14 0 0 0 0 0 9 0 3 8 0 0 10 0 0 0 0 20 1 1 1 63 73 56 20 15 62 32 8 0 19 13 0 0 0 3 2 0 0
0 0 0 0 0 0 0 16 11 8 0 0 0 0 0 2 20 0 0 0 0 0 0 0 0 0 0 0 1 14 16 0 12 21 1 17 1 8 0 4 33 2 10 4 0 0 0
0 0 0 0 0 0 0 0 13 10 0 0 0 0 0 8 18 0 0 0 0 0 7 0 2 10 3 0 0 0 3 0 4 4 5 0 0 7 0 0 10 29 28 0 0 0 0
0 0 0 0 0 0 0 0 0 5 3 0 0 0 0 0 0 0 0 0 0 0 0 0 9 14 6 11 0 0 0 0 4 0 0 5 0 7 7 0 17 9 0 0 0 0 0
0 0 0 0 0 0 0 0 0 0 0 0 0 0 0 0 0 0 0 0 0 0 0 0 0 1 0 2 0 22 21 0 12 0 0 0 0 0 0 0 0 0 0 0 0 0 0
0 0 0 0 0 0 0 0 0 0 0 6 0 0 0 0 0 0 0 0 0 0 0 0 16 0 0 0 1 0 17 0 8 0 0 0 0 0 0 0 0 0 0 0 0 0 0
0 0 0 0 0 0 0 0 0 0 0 0 0 0 0 0 0 0 0 0 0 0 0 0 2 3 0 1 0 0 0 0 0 0 0 0 0 0 0 0 0 0 3 0 0 0 0
0 0 0 0 0 0 0 0 0 0 0 0 0 0 0 0 0 0 0 0 0 0 0 0 0 0 0 0 8 0 0 0 0 0 0 0 0 0 0 0 0 0 0 0 0 0 0
0 0 0 0 0 0 0 0 0 0 0 0 0 2 0 0 0 17 0 0 0 0 0 0 0 2 0 0 0 0 0 0 0 0 0 0 0 0 0 0 0 0 0 0 0 0 0
0 0 0 0 0 0 0 0 0 0 0 0 0 0 0 0 3 5 0 0 0 0 0 0 0 0 0 0 0 0 0 0 0 0 0 0 0 0 0 0 0 0 0 0 0 0 0
0 0 0 0 0 0 0 0 0 0 0 0 0 0 0 10 1 2 4 1 3 0 0 0 0 0 0 0 0 0 0 0 0 0 0 0 0 0 0 0 0 0 0 0 0 0 0
0 0 0 0 0 0 0 0 0 0 0 0 0 0 0 0 1 0 3 4 3 0 0 0 0 0 0 0 0 0 0 0 0 0 0 0 0 0 0 0 0 0 0 0 0 0 0
0 0 0 0 0 0 0 0 0 0 0 0 0 0 0 0 0 0 0 6 1 7 0 0 0 0 0 0 0 0 0 0 0 0 0 0 0 0 0 0 0 0 0 0 0 0 0
0 0 0 0 0 0 0 0 0 0 0 0 0 0 0 0 0 0 0 0 8 4 0 0 0 0 0 0 0 0 0 0 0 0 0 0 0 0 0 0 0 0 0 0 0 0 0
0 0 0 0 0 0 0 0 0 0 0 0 0 0 0 0 0 0 0 0 0 18 12 8 0 0 0 0 0 0 0 0 0 0 0 0 0 0 0 0 0 0 0 0 0 0 0
0 0 0 0 0 0 0 0 0 0 0 0 0 0 0 0 0 0 0 0 0 0 7 23 1 0 0 0 0 0 0 0 0 0 0 0 0 0 0 0 0 0 0 0 0 0 0
0 0 0 0 0 0 0 0 0 0 0 0 0 0 0 0 0 0 0 0 0 11 6 0 1 0 0 0 0 0 0 0 0 0 0 0 0 0 0 0 0 0 0 0 0 0 0
0 0 0 0 0 0 0 0 0 0 0 0 0 11 0 0 0 0 0 0 0 0 5 1 0 0 0 0 0 0 0 0 0 0 0 0 0 0 0 0 0 0 0 0 1 0 0
0 0 0 0 0 0 0 0 0 23 43 20 0 28 8 0 0 0 0 0 1 0 0 17 7 0 0 0 0 0 0 0 0 0 0 0 0 0 0 0 0 0 0 0 0 1 0
0 0 0 0 0 0 0 0 0 32 39 31 0 15 29 0 0 0 0 0 0 9 14 19 13 10 23 0 0 0 0 0 0 0 0 0 0 0 0 0 0 0 0 0 0 0 0

GFSGBSN_con_mucape_063.txt.gz
CAPE
0 0 0 0 15 0 0 19 38 56 35 39 41 78 79 117 118 158 196 215 192 181 158 129 110 114 62 26 0 45 27 34 0 103 63 32 1 92 77 49 21 0 0 0 23 29 0
0 0 0 0 0 0 0 20 25 32 26 41 48 43 63 100 142 151 200 226 132 148 174 164 141 95 62 9 1 3 22 20 40 131 81 61 1 2 89 92 28 0 0 0 14 1 2
0 0 0 0 0 0 0 17 29 20 29 41 46 23 37 51 139 140 166 103 107 132 191 205 179 45 55 18 13 74 69 73 63 78 113 71 28 11 30 82 34 6 28 25 0 0 0
0 0 0 0 0 0 0 0 17 23 23 28 35 24 33 51 50 44 40 27 34 106 177 218 232 142 19 0 0 13 26 11 66 50 73 123 68 25 27 36 74 64 10 26 0 0 0
0 0 0 0 0 0 0 0 22 3 28 19 31 37 26 31 1 7 5 0 36 152 239 317 209 101 0 85 11 6 9 0 26 46 61 126 68 20 28 32 77 75 1 1 0 0 0
0 0 0 0 0 0 0 0 23 0 0 0 23 21 10 13 2 0 0 54 112 120 179 180 172 34 8 9 5 8 0 88 63 43 64 120 58 19 30 12 3 0 0 0 0 0 0
0 0 0 0 0 0 0 0 17 0 0 0 0 14 22 0 0 0 0 0 0 0 39 31 18 0 6 0 52 106 43 1 1 1 165 64 39 0 0 0 0 0 0 0 0 0 0
0 0 0 0 0 0 0 19 19 14 0 0 0 0 12 3 8 14 1 0 1 0 0 0 28 0 2 0 0 51 25 0 0 20 0 46 0 0 0 0 0 0 5 0 0 0 0
0 0 0 0 0 0 0 6 14 17 0 0 0 0 3 3 7 2 0 0 0 0 1 0 7 30 1 0 2 34 0 0 1 0 1 2 0 0 0 0 0 0 0 0 0 0 0
0 0 0 0 0 0 0 0 1 11 4 0 0 0 0 4 0 0 0 0 0 0 0 1 8 24 18 15 16 16 0 0 0 3 2 2 4 3 15 0 0 0 0 0 0 0 0
0 0 0 0 0 0 0 0 0 0 13 0 0 0 0 0 0 0 0 0 0 0 13 4 2 3 7 14 0 0 3 0 0 7 0 3 7 12 25 16 8 4 0 1 0 0 0
0 0 0 0 0 0 0 0 0 0 0 0 0 0 0 0 0 0 0 0 0 0 21 1 3 2 0 0 2 9 30 0 4 6 3 5 6 24 3 7 10 15 9 0 2 0 0
0 0 0 0 0 0 0 0 0 0 0 0 0 0 0 0 0 0 0 0 0 0 0 5 10 0 0 0 0 2 0 0 0 0 19 24 4 10 7 1 20 7 0 0 0 0 0
0 0 0 0 0 0 0 0 0 0 0 0 0 0 0 0 0 0 0 0 0 0 0 0 12 0 0 15 0 4 4 1 0 0 0 0 0 7 0 0 0 0 0 0 0 0 0
0 0 0 0 0 0 0 0 0 0 0 0 0 0 0 0 0 0 0 0 0 0 0 0 0 0 0 3 2 0 1 0 0 0 0 0 0 0 0 0 0 0 0 0 0 0 0
0 0 0 0 0 0 0 0 0 0 0 0 0 0 0 0 0 0 0 0 0 0 0 0 0 0 0 0 0 0 0 2 0 0 0 0 0 0 0 0 1 0 0 0 0 0 0
0 0 0 0 0 0 0 0 0 0 0 0 0 0 0 0 0 0 0 0 0 0 0 0 0 0 2 3 0 2 0 0 0 0 0 0 0 0 0 0 0 0 0 0 0 0 0
0 0 0 0 0 0 0 0 0 0 0 0 0 0 0 0 0 0 0 0 0 0 0 0 1 1 2 0 0 0 0 0 0 0 0 0 0 0 0 0 0 0 0 0 0 0 0
0 0 0 0 0 0 0 0 0 0 0 0 0 0 0 0 0 0 0 0 0 0 0 0 0 0 1 0 0 0 0 0 0 0 0 0 0 0 1 0 0 0 0 0 0 0 0
0 0 0 0 0 0 0 0 0 0 0 0 0 0 0 2 2 3 0 1 7 0 0 0 0 0 0 0 0 0 0 0 0 0 0 0 0 0 0 0 0 0 0 0 0 0 0
0 0 0 0 0 0 0 0 0 0 0 0 0 0 0 0 0 0 0 1 0 0 0 0 0 0 0 0 0 0 0 0 0 0 0 0 0 0 0 0 0 0 0 0 0 0 0
0 0 0 0 0 0 0 0 0 0 0 0 0 0 0 0 0 0 0 0 0 12 0 0 0 0 0 0 0 0 0 0 0 0 0 0 0 0 0 0 0 0 0 0 0 0 0
0 0 0 0 0 0 0 0 0 0 0 0 0 0 0 0 0 0 0 0 2 12 5 0 0 0 0 0 0 0 0 0 0 0 0 0 0 0 0 0 0 0 0 0 0 0 0
0 0 0 0 0 0 0 0 0 0 0 0 0 0 0 0 0 0 0 0 0 0 15 17 0 0 0 0 0 0 0 0 0 0 0 0 0 0 0 0 0 0 0 0 0 0 0
0 0 0 0 0 0 0 0 0 0 0 0 0 0 0 0 0 0 0 0 1 0 0 15 4 0 0 0 0 0 0 0 0 0 0 0 0 0 0 0 0 0 0 0 0 0 0
0 0 0 0 0 0 0 0 0 0 0 0 0 0 0 0 0 0 0 0 0 0 24 23 0 0 1 0 0 0 0 0 0 0 0 0 0 0 0 0 0 0 0 0 0 0 0
0 0 0 0 0 0 0 0 0 0 0 0 0 1 0 0 0 0 0 0 0 0 0 6 0 0 9 0 0 0 0 0 0 0 0 0 0 0 0 0 0 0 0 0 0 0 0
0 0 0 0 0 0 0 0 0 0 26 0 0 0 0 0 0 0 0 0 0 0 0 2 0 5 0 0 0 0 0 0 0 0 0 0 0 0 0 0 0 0 0 0 0 0 0
0 0 0 0 0 0 0 0 0 8 39 0 0 0 0 0 0 0 0 0 0 0 0 0 2 11 17 0 0 0 0 0 0 0 0 0 0 0 0 0 0 0 0 0 6 8 6

GFSGBSN_con_mucape_066.txt.gz
CAPE
0 0 0 0 0 0 0 0 17 35 24 28 31 42 34 35 59 116 112 184 149 153 156 120 89 78 22 0 0 26 22 16 0 8 12 45 1 8 57 34 42 1 0 0 11 2 0
0 0 0 0 22 15 0 0 19 28 38 29 29 43 30 31 31 78 115 115 72 82 115 70 109 124 15 0 0 0 4 10 0 0 3 42 15 1 49 61 77 17 29 7 0 0 0
0 0 0 0 0 0 0 0 25 0 33 30 24 34 24 16 12 43 57 62 80 104 142 202 234 35 32 0 1 3 0 16 33 3 61 38 36 21 10 83 81 36 69 42 0 0 0
0 0 0 0 0 0 0 0 22 20 0 25 21 35 31 13 12 3 2 1 1 54 119 181 244 155 0 3 2 8 0 34 50 87 82 84 78 23 29 47 83 50 59 0 0 0 1
0 0 0 0 0 0 0 7 19 27 0 0 2 29 25 13 14 0 3 0 0 34 107 220 134 42 0 16 50 3 0 18 65 47 83 104 60 1 44 41 60 54 0 0 0 0 0
0 0 0 0 0 0 0 21 28 19 0 0 0 0 21 17 4 16 64 36 17 20 75 124 121 10 0 0 0 7 0 61 12 40 100 67 70 18 24 15 0 0 0 0 0 0 0
0 0 0 0 0 0 0 0 23 36 27 0 0 0 0 11 8 15 2 0 0 1 0 0 0 0 0 0 0 115 62 0 0 16 4 59 11 0 0 0 0 0 0 0 0 0 0
0 0 0 0 0 0 0 0 0 29 26 0 0 0 0 0 8 11 0 0 0 0 0 0 0 5 0 0 0 72 2 0 2 9 3 38 0 0 0 2 2 0 0 0 0 2 1
0 0 0 0 0 0 0 0 0 0 4 11 0 0 0 0 1 0 0 0 0 0 0 0 1 17 5 1 4 51 6 0 2 5 0 7 0 0 0 4 1 0 0 0 0 0 0
0 0 0 0 0 0 0 0 0 0 0 3 0 0 0 0 0 0 0 0 0 0 0 0 7 6 10 2 9 33 3 0 1 9 0 22 0 0 0 0 1 0 0 0 1 0 0
0 0 0 0 0 0 0 0 0 0 0 0 0 0 0 0 0 0 0 0 0 0 0 0 4 16 13 4 17 1 0 0 6 0 0 10 0 0 0 0 12 1 0 0 0 0 0
0 0 0 0 0 0 0 0 0 0 0 0 0 0 0 0 0 0 0 0 0 0 0 0 2 0 0 3 28 27 53 0 0 0 0 3 14 10 21 5 19 9 3 0 0 2 0
0 0 0 0 0 0 0 0 0 0 0 0 0 1 0 0 0 0 0 0 0 0 0 0 3 0 0 2 0 3 0 0 0 1 0 12 6 10 22 33 39 19 3 0 0 0 0
0 0 0 0 0 0 0 0 0 0 0 0 0 0 0 0 0 0 0 0 0 0 0 0 0 0 0 0 0 0 0 0 0 0 0 0 0 0 0 1 13 22 2 0 0 0 0
0 0 0 0 0 0 0 0 0 0 0 0 0 0 0 0 0 0 0 0 0 0 0 0 0 7 0 0 0 0 0 0 0 0 0 0 0 2 0 0 5 11 0 0 0 0 0
0 0 0 0 0 0 0 0 0 0 0 0 0 0 0 0 0 0 0 0 0 0 0 0 0 0 0 0 0 0 0 0 0 0 0 0 0 0 0 0 0 0 0 0 0 0 0
0 0 0 0 0 0 0 0 0 0 0 0 0 0 0 0 0 0 0 0 0 0 0 0 0 0 0 0 0 0 0 0 0 0 0 0 0 0 0 0 0 0 0 0 0 0 0
0 0 0 0 0 0 0 0 0 0 0 0 0 0 0 0 0 0 0 0 0 0 0 0 0 0 0 0 0 0 0 0 0 0 0 0 0 0 0 0 0 0 0 0 0 0 0
0 0 0 0 0 0 0 0 0 0 0 0 0 0 0 0 0 0 0 0 0 0 0 0 0 0 0 0 0 0 0 0 0 0 0 0 0 0 0 0 0 0 0 0 0 0 0
0 0 0 0 0 0 0 0 0 0 0 0 0 0 0 0 0 0 0 0 0 0 0 0 0 0 0 0 0 0 0 0 0 0 0 0 0 0 1 0 0 0 0 0 0 0 0
0 0 0 0 0 0 0 0 0 0 0 0 0 0 0 0 0 0 0 3 2 0 0 0 0 0 0 0 0 0 0 0 0 0 0 0 0 0 0 0 0 0 0 0 0 0 0
0 0 0 0 0 0 0 0 0 0 0 0 0 0 0 0 0 0 0 0 0 5 0 0 0 0 0 0 0 0 0 0 0 0 0 0 0 0 0 0 0 0 0 0 0 0 0
0 0 0 0 0 0 0 0 0 0 0 0 0 0 0 0 0 0 0 0 4 14 8 1 0 0 0 0 0 0 0 0 0 0 0 0 0 0 0 0 0 0 0 0 0 0 0
0 0 0 0 0 0 0 0 0 0 0 0 0 0 0 0 0 0 0 0 0 7 0 13 1 0 0 0 0 0 0 0 0 0 0 0 0 0 0 0 0 0 0 0 0 0 0
0 0 0 0 0 0 0 0 0 0 0 0 0 0 0 0 0 0 0 0 0 0 0 2 19 1 0 0 0 0 0 0 0 0 0 0 0 0 0 0 0 0 0 0 0 0 0
0 0 0 0 0 0 0 0 0 0 0 0 0 0 0 0 0 0 0 0 0 0 0 33 44 13 7 3 0 0 0 0 0 0 0 0 0 0 0 0 0 0 0 0 0 0 0
0 0 0 0 0 0 0 0 0 0 0 0 0 0 0 0 0 0 0 0 0 0 0 13 8 0 15 0 0 0 0 0 0 0 0 0 0 0 0 0 0 0 0 0 0 0 0
0 0 0 0 0 0 0 0 0 6 0 0 0 0 0 0 0 0 0 0 0 0 0 0 0 11 0 0 0 0 0 0 0 0 0 0 0 0 0 0 0 0 0 0 0 0 0
0 0 0 0 0 0 0 0 0 30 0 0 0 0 0 0 0 0 0 0 0 0 0 0 0 0 12 0 0 0 0 0 0 0 0 0 0 0 0 0 0 0 0 0 3 11 3

GFSGBSN_con_mucape_069.txt.gz
CAPE
0 0 0 21 0 0 0 0 1 8 30 40 49 41 20 14 26 42 35 48 44 62 88 38 48 57 6 1 0 27 9 44 14 2 1 43 8 2 16 112 74 10 4 1 17 0 0
0 0 0 15 0 0 0 0 1 19 4 38 41 38 42 21 19 21 38 39 53 106 136 54 61 59 0 0 0 1 15 21 6 10 0 15 10 0 14 77 102 23 0 2 6 0 0
0 0 0 0 0 0 0 0 20 17 7 18 37 28 32 16 14 8 5 13 50 94 154 209 187 12 0 0 0 0 5 11 13 27 15 55 39 8 20 41 90 23 11 4 0 0 0
0 0 0 0 0 0 11 0 22 23 20 0 0 23 23 34 7 11 8 0 0 13 92 220 265 130 0 0 1 0 0 20 37 33 46 77 74 19 22 19 101 65 27 0 0 0 0
0 0 0 0 0 0 0 0 0 31 38 19 0 0 7 20 28 3 20 54 0 13 56 178 91 23 0 1 20 0 3 6 31 44 83 108 132 2 32 46 20 40 0 0 0 0 0
0 0 0 0 0 0 0 0 0 0 27 25 0 0 0 3 20 16 27 18 0 4 45 113 96 2 0 0 0 2 1 0 10 10 118 117 138 0 13 34 0 0 0 0 0 0 0
0 0 0 0 0 0 0 0 0 0 0 0 11 0 0 0 15 19 0 0 0 0 0 0 0 0 0 1 0 59 49 0 11 0 44 80 23 0 0 1 0 0 0 0 0 0 0
0 0 0 0 0 0 0 0 0 0 0 0 9 0 0 0 1 17 0 0 0 0 0 0 0 0 0 2 0 37 38 6 20 3 23 124 0 0 0 18 1 0 0 0 0 10 1
0 0 0 0 0 0 0 0 0 0 0 0 0 6 0 0 0 0 0 0 0 0 0 0 0 1 0 0 3 14 20 1 24 11 0 0 0 0 0 11 10 0 0 0 0 3 11
0 0 0 0 0 0 0 0 0 0 0 0 0 7 0 0 0 0 0 0 0 0 0 0 0 1 5 3 9 31 7 26 11 1 2 0 0 0 5 15 0 2 4 2 1 4 0
0 0 0 0 0 0 0 0 0 0 0 0 0 0 0 0 0 0 0 0 0 0 0 0 2 2 0 14 23 6 1 15 1 19 2 0 0 0 0 11 5 0 6 4 0 0 0
0 0 0 0 0 0 0 0 0 0 0 0 0 0 0 0 0 0 0 0 0 0 0 0 0 3 0 12 6 1 9 6 3 0 0 0 0 0 0 6 20 0 7 1 0 0 0
0 0 0 0 0 0 0 0 0 0 0 0 0 0 0 0 0 0 0 0 0 0 0 0 2 10 3 16 49 42 1 0 0 5 0 0 0 4 10 20 10 2 5 0 0 0 0
0 0 0 0 0 0 0 0 0 0 0 0 0 0 0 0 0 0 0 0 0 0 0 0 0 0 1 0 0 0 0 0 9 4 0 0 0 2 9 0 0 9 8 0 0 0 0
0 0 0 0 0 0 0 0 0 0 0 0 0 0 0 0 0 0 0 0 0 0 0 0 0 0 0 0 1 0 0 1 0 0 0 0 0 0 4 0 4 4 0 0 0 0 0
0 0 0 0 0 0 0 0 0 0 0 0 0 0 0 0 0 0 0 0 0 0 0 0 0 0 0 0 0 1 0 0 0 0 0 0 0 0 0 0 0 8 0 0 0 0 0
0 0 0 0 0 0 0 0 0 0 0 0 0 0 0 0 0 0 0 0 0 0 0 0 0 0 0 0 0 0 0 0 1 0 0 0 0 0 0 0 0 0 2 0 0 0 0
0 0 0 0 0 0 0 0 0 0 0 0 0 0 0 0 0 0 0 0 0 0 0 0 0 0 0 0 0 0 0 0 0 0 0 0 0 0 0 0 0 11 0 0 0 0 0
0 0 0 0 0 0 0 0 0 0 0 0 0 0 0 0 0 0 0 0 0 0 0 0 0 0 0 0 0 0 0 0 0 0 0 0 0 0 0 0 0 0 0 0 0 0 0
0 0 0 0 0 0 0 0 0 0 0 0 0 0 0 0 0 0 0 0 0 0 0 0 0 0 0 0 0 0 0 0 0 0 0 0 0 0 0 0 0 0 0 0 0 0 0
0 0 0 0 0 0 0 0 0 0 0 0 0 0 0 0 0 0 0 0 0 0 0 0 0 0 0 0 0 0 0 0 0 0 0 0 0 0 0 0 0 0 0 0 0 0 0
0 0 0 0 0 0 0 0 0 0 0 0 0 0 0 0 0 0 0 0 0 2 0 0 0 0 0 0 0 0 0 0 0 0 0 0 0 0 0 0 0 0 0 0 0 0 0
0 0 0 0 0 0 0 0 0 0 0 0 0 0 0 0 0 0 0 0 0 1 10 0 0 0 0 0 0 0 0 0 0 0 0 0 0 0 0 0 0 0 0 0 0 0 0
0 0 0 0 0 0 0 0 0 0 0 0 0 0 0 0 0 0 0 0 0 0 0 6 0 0 0 0 0 0 0 0 0 0 0 0 0 0 0 0 0 0 0 0 0 0 0
0 0 0 0 0 0 0 0 0 0 0 0 0 0 0 0 0 0 0 0 0 0 0 0 13 5 0 2 0 0 0 0 0 0 0 0 0 0 0 0 0 0 0 0 0 0 0
0 0 0 0 0 0 0 0 0 0 0 0 0 0 0 0 0 0 0 0 0 0 0 7 34 35 2 3 0 0 0 0 0 0 0 0 0 0 0 0 0 0 0 0 0 0 0
0 0 0 0 0 0 0 0 0 0 0 0 0 0 0 0 0 0 0 0 0 0 0 0 25 22 12 2 0 0 0 0 0 0 0 0 0 0 0 0 0 0 0 0 0 0 0
0 0 0 0 0 0 0 0 0 0 0 0 0 0 0 0 0 0 0 0 0 0 0 0 1 4 0 0 0 0 0 0 0 0 0 0 0 0 0 0 0 0 0 0 0 0 0
0 0 0 0 0 0 0 0 0 0 0 0 0 0 0 0 0 0 0 0 0 0 0 0 0 2 0 0 0 0 0 0 0 0 0 0 0 0 0 0 0 0 0 0 0 0 8

GFSGBSN_con_mucape_072.txt.gz
CAPE
0 0 0 9 0 20 22 0 1 13 16 15 25 32 46 39 18 14 28 21 17 3 41 22 7 32 4 0 0 11 21 67 39 53 5 45 26 0 26 39 81 15 0 20 28 7 1
0 0 0 0 0 0 19 30 0 8 15 16 21 31 34 47 19 13 7 15 12 10 17 28 58 35 0 0 0 11 23 24 33 1 20 41 29 0 42 54 84 14 5 4 20 11 3
0 0 0 0 0 14 19 2 32 0 38 17 17 0 0 34 36 25 21 0 11 15 52 80 57 2 0 0 0 0 18 3 19 0 23 16 37 10 26 71 91 55 58 47 17 0 0
0 0 0 0 0 0 0 0 0 0 0 24 16 0 0 20 32 27 33 42 0 0 21 86 166 41 0 0 4 0 1 9 24 30 5 68 101 25 37 25 78 80 47 16 0 0 0
0 0 0 0 0 0 0 0 0 0 0 0 1 21 0 0 23 37 33 23 0 0 13 75 2 2 0 6 17 0 0 0 8 53 155 132 60 17 52 61 35 37 8 0 0 0 0
0 0 0 0 0 0 0 0 0 0 10 0 0 4 0 0 0 30 37 20 0 0 19 29 0 0 0 0 0 1 2 13 22 33 93 126 28 10 32 31 0 0 5 0 0 0 0
0 0 0 0 0 0 0 0 25 0 0 0 0 0 1 0 0 20 5 0 0 0 0 0 0 0 0 0 0 35 32 1 14 33 0 20 0 0 0 2 0 0 0 0 0 0 0
0 0 0 0 0 0 0 0 0 23 0 0 0 0 3 0 0 8 0 0 0 0 0 0 0 0 0 0 0 30 40 2 18 1 12 31 0 0 0 9 0 0 0 0 0 0 0
0 0 0 0 0 0 0 0 0 0 0 0 0 0 0 0 0 0 0 0 0 0 0 0 0 3 0 0 0 19 2 0 5 0 14 0 0 1 0 21 5 0 0 0 0 0 14
0 0 0 0 0 0 0 0 0 0 0 0 0 0 6 0 0 0 0 0 0 0 0 0 0 1 7 7 2 27 32 0 0 6 0 0 6 0 0 21 18 0 0 0 0 0 0
0 0 0 0 0 0 0 0 0 0 0 0 0 0 11 0 0 0 0 0 0 0 0 0 0 16 2 30 11 3 9 3 1 3 0 0 0 0 0 3 45 1 0 0 16 2 0
0 0 0 0 0 0 0 0 0 0 0 0 0 0 0 0 0 0 0 0 0 0 0 1 0 0 1 17 12 0 8 21 0 0 0 0 0 0 0 42 18 0 24 20 17 8 0
0 0 0 0 0 0 0 0 0 0 0 0 0 0 0 0 0 0 0 0 0 0 0 0 8 1 5 7 5 11 2 0 0 0 0 3 0 0 12 30 20 5 14 0 0 0 0
0 0 0 0 0 0 0 0 0 0 0 0 0 0 0 0 0 0 0 0 0 0 0 0 6 5 5 8 1 1 0 5 0 0 1 3 0 0 0 3 7 23 12 0 0 0 0
0 0 0 0 0 0 0 0 0 0 0 0 0 0 0 0 0 0 0 0 0 0 0 0 2 0 34 2 6 13 4 0 4 0 0 0 0 0 0 1 1 12 0 0 0 0 0
0 0 0 0 0 0 0 0 0 0 0 0 0 0 0 0 0 0 0 0 0 0 0 0 0 0 0 0 0 3 2 0 1 0 0 0 0 0 0 0 0 6 0 0 0 0 0
0 0 0 0 0 0 0 0 0 0 0 0 0 0 0 0 0 0 0 0 0 0 0 0 0 0 0 0 0 0 0 0 0 0 0 0 0 0 0 0 0 0 0 0 0 0 0
0 0 0 0 0 0 0 0 0 0 0 0 0 0 0 0 0 0 0 0 0 0 0 0 0 0 0 0 0 0 0 0 0 0 0 0 0 0 0 0 0 2 0 0 0 0 0
0 0 0 0 0 0 0 0 0 0 0 0 0 0 0 0 0 0 0 0 0 0 0 0 0 0 0 0 0 0 0 0 0 0 0 0 0 0 0 0 0 0 0 0 1 0 0
0 0 0 0 0 0 0 0 0 0 0 0 0 0 0 0 0 0 0 0 0 0 0 0 0 0 0 0 0 0 0 0 0 0 0 0 0 0 0 0 0 0 0 0 0 0 0
0 0 0 0 0 0 0 0 0 0 0 0 0 0 0 0 0 0 0 0 0 0 0 0 0 0 0 0 0 0 0 0 0 0 0 0 0 0 0 0 0 0 0 0 0 0 0
0 0 0 0 0 0 0 0 0 0 0 0 0 0 0 0 0 0 0 0 0 0 0 0 0 0 0 0 0 0 0 0 0 0 0 0 0 0 0 0 0 0 0 0 0 0 0
0 0 0 0 0 0 0 0 0 0 0 0 0 0 0 0 0 0 0 0 0 0 0 0 0 0 0 0 0 0 0 0 0 0 0 0 0 0 0 0 0 1 0 0 0 0 0
0 0 0 0 0 0 0 0 0 0 0 0 0 0 0 0 0 0 0 0 0 0 0 1 0 0 0 0 0 0 0 0 0 0 0 0 0 0 0 0 0 0 0 0 0 0 0
0 0 0 0 0 0 0 0 0 0 0 0 0 0 0 0 0 0 0 0 0 0 0 0 13 6 0 0 0 0 0 0 0 0 0 0 0 0 0 0 0 0 0 0 0 0 0
0 0 0 0 0 0 0 0 0 0 0 0 0 0 0 0 0 0 0 0 0 0 0 0 7 25 6 1 0 0 0 0 0 0 0 0 0 0 0 0 0 0 0 0 0 0 0
0 0 0 0 0 0 0 0 0 0 0 0 0 0 0 0 0 0 0 0 0 0 0 0 0 14 33 0 0 0 0 0 0 0 0 0 0 0 0 0 0 0 0 0 0 0 0
0 0 0 0 0 0 0 0 0 0 0 0 0 0 0 0 0 0 0 0 0 0 0 0 0 8 5 0 0 0 0 0 0 0 0 0 0 0 0 0 0 0 0 0 0 0 0
0 0 0 0 0 0 0 0 0 0 0 0 0 0 0 0 0 0 0 0 0 0 0 0 0 0 1 0 0 0 0 0 0 0 0 0 0 0 0 0 0 0 0 0 0 0 0

GFSGBSN_con_mucape_075.txt.gz
CAPE
0 0 0 0 2 21 14 3 25 0 28 1 17 22 30 27 27 12 7 26 20 14 6 10 36 89 3 0 0 7 4 40 77 56 74 52 41 6 20 37 25 28 29 67 81 32 16
0 0 0 0 10 1 19 22 24 12 25 41 0 7 27 26 34 15 21 1 16 4 1 24 86 43 0 0 0 0 18 33 26 33 36 27 41 1 27 47 48 12 20 60 98 16 24
0 0 0 0 7 0 1 25 25 21 23 40 38 0 20 32 0 36 23 32 0 0 12 59 35 0 0 0 0 0 13 1 14 5 2 25 46 6 31 62 71 33 28 80 71 41 29
0 0 0 0 0 1 14 19 25 22 11 36 0 0 8 0 0 22 39 21 6 0 0 48 97 3 0 12 5 0 0 0 4 8 0 51 76 6 42 49 55 48 63 36 0 1 8
2 0 0 0 0 7 12 14 16 8 30 38 0 0 0 17 0 7 36 17 1 0 0 30 0 0 0 6 0 0 1 0 0 16 52 76 57 13 45 80 33 21 0 6 12 2 1
2 0 0 0 0 0 2 12 13 2 36 40 0 0 0 11 0 0 32 8 0 0 0 0 0 0 0 0 0 0 11 7 0 17 71 82 34 6 20 35 0 0 0 8 1 7 9
0 1 0 0 0 0 0 0 0 0 32 5 0 0 0 13 0 0 0 0 0 0 0 0 0 0 0 0 0 12 17 0 1 17 0 0 0 0 0 40 0 0 1 0 7 0 1
1 0 0 0 0 0 0 0 0 0 0 31 0 0 0 0 0 0 0 0 0 0 0 0 0 0 0 0 1 57 40 1 0 0 0 0 0 0 1 40 4 8 0 1 2 0 0
1 1 0 0 0 0 0 0 0 0 0 0 0 0 0 21 0 0 0 0 0 0 0 0 0 0 0 0 3 3 9 1 1 1 0 0 0 0 0 49 12 0 0 0 0 0 3
6 2 0 0 0 0 0 0 0 0 0 0 0 0 0 0 0 0 0 0 0 0 0 0 0 2 0 0 0 26 0 0 0 0 0 0 1 1 0 36 16 9 0 0 0 0 0
15 5 0 0 0 0 0 0 0 0 0 0 0 0 0 0 0 0 0 0 0 0 0 0 0 9 1 8 1 0 0 0 0 0 0 2 0 0 0 34 46 9 0 0 0 0 1
17 2 0 0 0 0 0 0 0 0 0 0 0 0 0 0 0 0 0 0 0 0 0 0 0 0 2 0 8 0 9 15 0 0 17 0 0 0 0 34 51 8 0 7 12 3 0
7 0 0 0 0 0 0 0 0 0 0 0 0 0 0 0 0 0 0 0 0 0 0 0 0 1 1 1 0 1 9 0 3 7 0 0 0 4 1 6 22 29 3 1 0 0 0
1 2 0 0 0 0 0 0 0 0 0 0 0 0 0 0 0 0 0 0 0 0 0 0 0 0 0 0 33 7 0 0 0 0 0 0 0 0 0 0 0 16 2 0 0 0 0
0 0 0 0 0 0 0 0 0 0 0 0 0 0 0 1 0 0 0 0 0 0 0 0 0 2 0 0 4 1 3 0 0 0 0 0 0 0 0 0 6 0 0 0 0 0 0
0 0 0 0 0 0 0 0 0 0 0 0 0 0 0 6 0 0 0 0 0 0 0 0 0 1 13 0 5 0 0 0 0 0 0 0 0 0 0 0 3 1 0 0 0 0 0
0 0 0 0 0 0 0 0 0 0 0 0 0 0 0 4 0 0 0 0 0 0 0 0 0 0 0 0 0 0 0 0 0 0 0 0 0 0 0 0 0 0 0 0 0 0 0
0 0 0 0 0 0 0 0 0 0 0 0 0 0 0 0 0 0 0 0 0 0 0 0 0 0 0 0 0 0 0 0 0 0 0 0 0 0 0 0 0 0 0 0 0 0 0
0 0 0 0 0 0 0 0 0 0 0 0 0 0 0 0 0 0 0 0 0 0 0 0 0 0 0 0 0 0 0 0 0 0 0 0 0 0 0 0 0 0 0 0 0 0 0
0 0 0 0 0 0 0 0 0 0 0 0 0 0 0 0 0 0 0 0 0 0 0 0 0 0 0 0 0 0 0 0 0 0 0 0 0 0 0 0 0 0 0 0 0 0 0
0 0 0 0 0 0 0 0 0 0 0 0 0 0 0 0 0 0 0 0 0 0 0 0 0 0 0 0 0 0 0 0 0 1 0 0 0 0 0 0 0 0 0 0 0 0 0
0 0 0 0 0 0 0 0 0 0 0 0 0 0 0 0 0 0 0 0 0 0 0 0 0 0 0 0 0 0 0 0 0 0 0 0 0 0 0 0 0 0 0 0 0 0 0
3 0 0 0 0 0 0 0 0 0 0 0 0 0 0 0 0 0 0 0 0 0 0 0 0 0 0 0 0 0 0 0 0 0 0 0 0 0 0 0 0 0 0 0 0 0 0
6 0 0 0 0 0 0 0 0 0 0 0 0 0 0 0 0 0 0 0 0 0 0 0 0 0 0 0 0 0 0 0 0 0 0 0 0 0 0 0 0 0 0 0 0 0 0
4 0 0 0 0 0 0 0 0 0 0 0 0 0 0 0 0 0 0 0 0 0 0 0 3 1 0 0 0 0 0 0 0 0 0 0 0 0 0 0 0 0 0 0 0 0 0
9 0 0 0 0 0 0 0 0 0 0 0 0 0 0 0 0 0 0 0 0 0 0 0 0 11 5 0 0 0 0 0 0 0 0 0 0 0 0 0 0 0 0 0 0 0 0
1 0 0 0 0 0 0 0 0 0 0 0 0 0 0 0 0 0 0 0 0 0 0 0 0 0 17 0 0 0 0 0 0 0 0 0 0 0 0 0 0 0 0 0 0 0 0
0 0 0 0 0 0 0 0 0 0 0 0 0 0 0 0 0 0 0 0 0 0 0 0 0 0 0 0 0 0 0 0 0 0 0 0 0 0 0 0 0 0 0 0 0 0 0
0 0 0 0 0 0 0 0 0 0 0 0 0 0 0 0 0 0 0 0 0 0 0 0 0 0 0 0 0 0 0 0 0 0 0 0 0 0 0 0 0 0 0 0 0 0 0

GFSGBSN_con_mucape_078.txt.gz
CAPE
0 0 0 0 0 1 5 10 16 16 22 34 51 7 0 22 29 29 16 0 15 7 0 0 0 43 1 0 0 0 1 78 158 68 55 52 81 55 33 78 119 138 127 143 128 153 72
0 0 0 0 0 0 3 6 25 18 22 31 48 26 0 15 32 36 13 20 6 4 2 0 29 11 0 0 0 0 0 20 34 80 26 43 72 27 33 24 72 66 57 148 138 44 16
4 0 0 0 0 0 3 10 19 12 19 36 47 23 0 1 24 1 24 28 5 0 1 33 0 0 0 0 0 0 0 0 17 6 3 8 63 72 25 21 43 70 20 112 117 136 91
17 3 0 0 0 0 5 7 11 19 24 33 47 24 0 0 19 0 7 46 23 0 0 40 26 3 0 15 22 6 2 17 0 1 3 23 0 50 63 78 115 90 88 92 100 142 33
24 3 3 0 0 0 0 0 8 15 0 40 47 0 0 0 12 0 9 27 15 0 0 11 0 0 0 5 6 5 37 36 12 8 10 16 30 32 77 104 84 95 13 11 42 75 15
16 4 13 0 0 0 0 0 0 0 22 31 39 0 0 0 14 0 16 13 8 0 3 0 0 0 0 6 0 1 60 61 33 7 53 9 2 41 84 62 0 11 24 32 43 46 28
12 16 8 0 0 0 0 0 0 0 0 31 32 0 0 0 0 0 0 0 0 0 0 0 0 0 0 0 0 54 41 28 26 4 0 0 0 0 6 8 18 28 16 0 27 12 23
13 5 16 1 0 0 0 0 0 0 0 26 0 0 0 0 19 0 0 0 0 0 0 0 0 0 0 0 0 70 15 12 0 0 0 0 0 16 30 20 2 23 34 43 17 31 40
6 13 12 1 0 0 0 0 0 0 0 0 0 0 0 0 0 0 0 0 0 0 0 0 0 1 0 0 7 2 19 0 0 0 0 0 3 0 40 33 17 22 17 33 5 40 20
4 12 7 0 0 0 0 0 0 0 0 0 0 0 0 0 0 0 0 0 0 0 0 0 3 7 4 9 1 0 0 1 0 0 0 0 0 0 29 0 21 19 5 3 0 16 2
0 7 2 0 0 0 0 0 0 0 0 0 0 0 0 0 0 0 0 0 0 0 0 0 2 20 5 18 1 2 8 3 0 0 0 0 0 0 0 2 17 2 0 0 0 3 5
0 8 3 0 0 0 0 0 0 0 0 0 0 0 0 0 0 0 0 0 0 0 0 0 0 4 1 1 4 0 10 3 11 0 0 0 0 0 5 30 16 0 0 0 5 20 0
5 1 7 1 0 0 0 0 0 0 0 0 0 0 0 0 0 0 0 0 0 0 0 0 0 0 0 0 6 1 2 11 0 0 0 0 0 0 0 38 29 9 24 0 0 0 0
0 0 1 0 0 0 0 0 0 0 0 0 0 0 0 0 0 0 0 0 0 0 0 2 0 0 0 2 12 5 2 0 5 0 0 0 0 0 1 17 0 35 14 0 0 0 0
0 0 0 0 0 0 0 0 0 0 0 0 0 0 0 0 0 0 0 0 0 0 0 0 4 0 0 0 9 24 13 0 2 1 0 0 0 0 0 5 0 5 0 0 0 0 0
0 0 0 0 0 0 0 0 0 0 0 0 0 0 0 0 0 0 0 0 0 0 0 0 0 0 0 0 0 0 10 0 1 0 0 0 0 0 0 1 0 13 0 0 0 0 0
0 0 0 0 0 0 0 0 0 0 0 0 0 0 0 0 0 0 0 0 0 0 0 0 0 0 0 0 0 0 0 0 0 0 0 0 0 0 0 0 0 0 0 0 0 0 0
0 0 0 0 0 0 0 0 0 0 0 0 0 0 0 0 0 0 0 0 0 0 0 0 0 0 0 0 0 0 0 0 0 0 0 0 0 0 0 0 0 0 0 0 0 0 0
0 0 0 0 0 0 0 0 0 0 0 0 0 0 0 0 0 0 0 0 0 0 0 0 0 0 0 0 0 0 0 0 0 0 0 0 0 0 0 0 0 0 0 0 0 0 0
4 3 0 0 0 0 0 0 0 0 0 0 0 0 0 0 0 0 0 0 0 0 0 0 0 0 0 0 0 0 0 0 0 0 0 0 0 0 0 0 0 0 0 0 0 0 0
24 14 1 0 0 0 0 0 0 0 0 0 0 0 0 0 0 0 0 0 0 0 0 0 0 0 0 0 0 0 0 0 0 0 0 0 0 0 0 0 0 0 0 0 0 0 0
25 12 3 0 0 0 0 0 0 0 0 0 0 0 0 0 0 0 0 0 0 0 0 0 0 0 0 0 0 0 0 0 0 0 0 0 0 0 0 0 0 0 0 0 0 0 0
23 8 13 1 0 0 0 0 0 0 0 0 0 0 0 0 0 0 0 0 0 0 0 0 0 0 0 0 0 0 0 0 0 0 0 0 0 0 0 0 0 0 0 0 0 0 0
2 4 9 5 0 0 0 0 0 0 0 0 0 0 0 0 0 0 0 0 0 0 0 0 0 0 0 0 0 0 0 0 0 0 0 0 0 0 0 0 0 0 0 0 0 0 0
10 12 10 0 0 0 0 0 0 0 0 0 0 0 0 0 0 0 0 0 0 0 0 0 0 0 0 0 0 0 0 0 0 0 0 0 0 0 0 0 0 0 0 0 0 0 0
7 10 8 0 0 0 0 0 0 0 0 0 0 0 0 0 0 0 0 0 0 0 0 0 0 3 0 0 0 0 0 0 0 0 0 0 0 0 0 0 0 0 0 0 0 0 0
0 7 19 0 0 0 0 0 0 0 0 0 0 0 0 0 0 0 0 0 0 0 0 0 0 0 0 0 0 0 0 0 0 0 0 0 0 0 0 0 0 0 0 0 0 0 0
3 11 5 0 0 0 0 0 0 0 0 0 0 0 0 0 0 0 0 0 0 0 0 0 0 0 0 0 0 0 0 0 0 0 0 0 0 0 0 0 0 0 0 0 0 0 0
13 6 0 0 0 0 0 0 0 0 0 0 0 0 0 0 0 0 0 0 0 0 0 0 0 0 0 0 0 0 0 0 0 0 0 0 0 0 0 0 0 0 0 0 0 0 0

GFSGBSN_con_mucape_081.txt.gz
CAPE
5 3 2 0 0 3 4 7 5 17 15 21 33 40 37 0 19 37 38 29 19 1 0 0 0 0 8 12 8 0 0 45 196 124 20 97 133 113 58 22 54 123 132 177 148 259 114
8 7 8 0 0 0 3 6 9 9 13 19 40 38 31 0 3 29 24 43 1 0 2 0 0 2 17 51 0 2 0 55 142 75 20 1 53 61 29 35 45 46 143 168 206 109 138
19 9 16 2 0 0 0 4 6 12 13 23 38 43 37 0 0 20 31 45 24 0 0 1 13 3 11 14 19 8 2 31 28 92 52 0 11 77 7 46 75 117 100 250 162 185 143
14 14 16 6 0 0 0 2 4 9 11 22 36 43 0 0 0 9 34 32 36 2 0 1 9 10 15 4 73 25 28 37 1 2 12 1 0 7 83 34 106 107 133 164 122 163 116
16 16 9 1 0 1 0 0 2 9 3 11 31 38 12 0 0 20 0 31 23 0 0 0 31 17 21 31 45 11 96 32 17 0 0 0 0 20 91 87 103 85 0 59 92 171 120
29 25 8 3 2 5 0 0 0 0 0 0 27 27 0 0 0 11 0 27 14 0 4 0 0 15 2 58 14 2 71 14 38 0 0 0 0 14 76 107 0 0 58 74 69 93 68
1 29 7 15 0 0 0 0 0 0 0 0 22 23 0 0 0 13 0 0 0 0 0 0 2 0 0 3 5 88 33 8 10 0 0 0 0 0 25 30 0 4 40 33 46 41 34
0 20 13 10 4 0 0 0 0 0 0 0 15 21 0 0 21 0 0 0 0 0 0 0 0 0 0 0 1 73 10 11 0 0 0 0 0 0 27 50 62 79 67 11 14 9 13
42 6 6 10 5 0 0 0 0 0 0 0 14 11 0 0 0 0 0 0 0 0 0 0 1 16 12 1 26 7 14 2 0 0 0 0 0 0 25 27 78 31 18 36 14 9 24
47 2 18 8 0 0 0 0 0 0 0 0 3 0 0 0 0 0 0 0 0 0 0 0 8 5 14 3 10 0 0 7 0 0 0 6 0 22 38 27 20 37 30 21 24 33 8
50 0 5 10 1 2 0 0 0 0 0 0 0 0 0 0 0 0 0 0 0 0 0 0 11 5 8 0 0 11 17 23 0 0 0 0 0 2 31 24 7 33 12 4 30 60 20
11 0 0 4 0 4 0 0 0 0 0 0 0 0 0 0 0 0 0 0 0 0 0 0 11 7 14 2 11 9 19 16 0 15 47 0 0 0 28 48 19 3 11 8 13 17 0
28 0 1 3 6 3 0 0 0 0 0 0 0 0 0 0 0 0 0 0 0 0 0 0 0 4 1 3 9 6 19 43 0 0 0 0 0 0 14 32 37 15 10 0 0 0 0
44 0 2 0 11 1 0 0 0 0 0 0 0 0 0 0 0 0 0 0 0 0 0 0 0 0 9 7 0 3 1 0 8 0 0 0 0 0 28 34 30 17 0 0 0 0 0
52 0 0 0 8 0 0 0 0 0 0 0 0 0 0 0 0 0 0 0 0 0 0 0 0 0 10 1 6 3 0 0 0 44 0 0 0 0 0 31 35 41 63 5 0 0 0
20 0 0 0 0 0 0 0 0 0 0 0 0 0 0 0 0 0 0 0 0 0 0 0 0 7 0 13 1 1 0 0 0 0 4 9 0 0 17 15 5 15 17 0 9 0 0
34 0 0 0 0 0 0 0 0 0 0 0 0 0 0 0 0 0 0 0 0 0 0 0 0 0 0 0 3 0 5 0 1 0 0 2 27 0 10 0 49 13 0 10 4 0 0
45 1 1 0 0 0 0 0 0 0 0 0 0 0 0 0 0 0 0 0 0 0 0 0 0 6 19 16 28 8 2 0 0 0 0 0 8 0 0 3 0 15 28 28 0 0 0
23 8 0 4 0 0 0 0 0 0 0 0 0 0 0 0 0 0 0 0 0 0 0 0 0 0 0 2 15 3 0 0 0 0 0 0 0 0 0 0 0 0 0 0 10 0 33
17 11 5 5 0 0 0 0 0 0 0 0 0 0 0 0 0 0 0 0 0 0 0 0 0 0 0 0 0 4 1 0 3 0 0 0 0 0 0 3 0 0 0 3 4 0 0
48 7 8 7 5 0 0 0 0 0 0 0 0 0 0 0 0 0 0 0 0 0 0 0 0 0 1 0 0 0 1 0 0 0 0 0 15 0 0 0 0 0 0 0 0 0 0
60 15 8 10 16 0 0 0 0 0 0 0 0 0 0 0 0 0 0 0 0 0 0 0 1 0 0 0 0 4 2 10 12 0 0 0 0 0 0 0 0 0 0 0 0 0 0
45 8 4 12 6 0 0 0 0 0 0 0 0 0 0 0 0 0 0 0 0 0 0 0 0 0 0 0 0 0 0 0 0 0 3 5 9 0 0 0 0 0 0 0 0 0 0
60 15 8 30 12 0 0 0 0 0 0 0 0 0 0 0 0 0 0 0 0 0 0 0 0 0 0 0 0 0 0 0 0 0 0 0 0 0 0 0 0 0 0 0 0 0 0
12 10 9 16 13 0 0 0 0 0 0 0 0 0 0 0 0 0 0 0 0 0 0 0 0 0 0 0 0 0 0 0 0 0 0 0 0 0 0 0 0 0 0 0 0 0 0
9 5 19 5 22 0 0 0 0 0 0 0 0 0 0 0 0 0 0 0 0 0 0 0 0 0 0 0 0 0 0 0 0 0 0 0 0 0 0 0 0 0 0 0 0 0 0
35 18 12 17 5 0 0 0 0 0 0 0 0 0 0 0 0 0 0 0 0 0 0 0 0 0 0 0 0 0 0 0 0 0 0 0 0 0 0 0 0 0 0 0 0 0 0
3 17 4 5 19 0 0 0 0 0 0 0 0 0 0 0 0 0 0 0 0 0 0 0 0 0 0 0 0 0 0 0 0 0 0 0 0 0 0 0 0 0 0 0 0 0 0
9 7 11 14 0 0 0 0 0 0 0 0 0 0 0 0 0 0 0 0 0 0 0 0 0 0 0 0 0 0 0 0 0 0 0 0 0 0 2 9 0 0 0 0 0 0 0

GFSGBSN_con_mucape_084.txt.gz
CAPE
21 4 7 11 2 0 0 0 4 4 7 10 12 42 39 43 0 0 32 42 20 1 2 0 0 0 0 35 30 0 12 25 159 148 62 4 68 92 59 0 19 23 35 24 2 52 27
14 14 7 3 3 9 0 0 7 4 6 11 12 40 29 44 0 0 24 28 35 0 0 2 0 0 13 47 4 20 0 44 164 149 58 58 67 86 76 11 26 47 65 85 81 0 4
14 11 18 3 8 9 0 1 0 8 8 11 19 25 37 43 39 0 13 31 28 12 0 0 47 23 7 47 12 34 29 156 40 118 37 39 26 66 36 48 25 80 90 75 85 30 12
83 4 9 3 13 10 0 3 0 7 9 9 11 20 37 28 22 0 6 17 20 25 0 0 24 13 10 6 27 9 54 103 13 6 2 24 6 27 24 24 35 101 90 57 102 47 21
90 116 3 11 14 13 1 5 0 7 9 0 1 24 25 17 0 0 10 12 17 1 0 0 0 40 10 29 52 1 27 31 6 0 0 0 3 0 21 28 26 59 0 18 65 101 74
89 73 3 2 19 5 4 3 0 7 10 0 2 17 22 0 0 7 10 4 4 0 0 0 0 1 8 26 13 3 23 7 31 1 0 0 0 2 0 21 0 0 1 0 0 45 65
22 51 8 2 23 14 12 3 0 8 4 0 11 14 23 0 0 24 0 0 0 0 0 1 0 0 20 2 0 41 8 2 15 0 0 0 0 0 0 0 0 3 0 0 10 55 50
33 29 14 5 11 1 14 2 0 7 0 0 12 18 7 0 0 7 0 0 0 0 0 0 0 1 0 0 0 47 24 22 9 0 0 0 0 0 31 29 2 28 0 0 60 57 42
11 16 16 9 9 0 10 2 0 2 0 0 11 17 0 0 0 0 0 0 0 0 0 0 2 2 2 0 0 9 0 13 0 0 0 3 4 0 0 0 0 0 0 0 13 9 2
27 13 19 3 9 3 13 0 3 0 0 0 0 0 0 0 0 0 0 0 0 0 0 0 5 8 5 0 15 0 10 0 0 0 0 0 0 0 2 12 36 16 46 25 21 0 0
50 43 1 26 3 9 8 2 0 0 0 0 0 0 0 0 0 0 0 0 0 0 0 0 9 0 2 16 0 11 5 0 0 0 0 0 0 2 18 14 29 5 32 62 35 45 31
79 39 3 18 3 0 5 4 0 0 0 0 0 0 0 0 0 0 0 0 0 0 0 0 4 0 5 8 6 13 1 0 0 0 0 0 0 0 0 18 3 1 24 15 13 18 0
63 67 5 5 3 0 2 3 0 0 0 0 0 0 0 3 0 0 0 0 0 0 0 0 0 0 2 5 6 5 0 0 0 0 0 0 0 0 0 15 11 18 5 0 0 0 0
78 73 8 28 4 7 0 2 0 0 0 0 0 0 0 0 0 0 0 0 0 0 0 0 0 0 4 1 0 0 1 0 0 2 0 0 0 0 8 33 12 9 11 0 0 0 0
103 73 25 15 5 5 0 0 0 0 0 0 0 1 0 0 0 0 0 0 0 0 0 0 0 0 2 0 0 0 0 0 0 1 0 0 0 0 3 29 29 10 0 0 0 0 0
88 40 33 6 2 0 0 0 0 0 0 0 0 0 0 0 0 0 0 0 0 0 0 0 0 3 0 0 0 0 0 0 0 0 0 0 0 0 32 24 12 27 16 0 0 0 0
23 29 30 19 2 0 0 0 0 0 0 0 0 0 0 0 0 0 0 0 0 0 0 0 0 0 0 0 0 0 0 0 0 0 0 0 0 0 0 0 0 5 0 0 0 0 0
4 2 36 11 3 1 0 0 0 0 0 0 0 0 0 0 0 0 0 0 0 0 0 0 0 5 0 0 0 0 0 0 0 0 0 0 0 0 0 0 1 1 6 4 0 0 0
31 52 34 9 4 5 0 0 0 0 0 0 0 0 0 0 0 0 0 0 1 0 0 0 0 0 0 4 2 0 0 0 0 0 0 0 0 0 0 0 0 0 0 8 4 0 0
10 7 37 5 12 14 0 0 0 0 0 0 0 0 0 0 0 0 0 0 0 0 0 0 0 0 0 0 0 1 0 0 0 0 0 0 0 0 0 0 0 0 0 0 0 0 0
18 13 44 21 3 10 0 0 0 0 0 0 0 0 0 0 0 0 0 0 0 0 0 0 0 0 0 0 0 0 0 0 0 0 0 0 0 0 0 0 0 0 0 0 0 0 0
10 0 28 20 7 10 0 0 0 0 0 0 0 0 0 0 0 0 0 0 0 0 0 0 0 0 0 0 0 0 0 0 0 0 0 0 0 0 0 0 0 0 0 0 0 0 0
6 0 10 6 14 11 3 0 0 0 0 0 0 0 0 0 0 0 0 0 0 0 0 0 0 0 0 0 0 0 0 0 1 1 0 0 0 0 0 0 0 0 0 0 0 0 0
1 6 34 28 9 12 1 0 0 0 0 0 0 0 0 0 0 0 0 0 0 0 0 0 0 0 0 0 0 0 0 0 0 0 1 0 0 0 0 0 0 0 0 0 0 0 0
0 0 13 12 11 20 2 0 0 0 0 0 0 0 0 0 0 0 0 0 0 0 0 0 0 0 0 0 0 0 0 0 0 0 0 0 3 0 0 0 0 0 0 0 0 0 0
5 1 2 29 12 29 0 0 0 0 0 0 0 0 0 0 0 0 0 0 0 0 0 0 0 0 0 0 0 0 0 0 0 0 0 0 0 0 0 0 0 0 0 0 0 0 0
1 16 10 11 11 6 1 0 0 0 0 0 0 0 0 0 0 0 0 0 0 0 0 0 0 0 0 0 0 0 0 0 0 0 0 0 0 0 0 0 0 0 0 0 0 0 0
7 3 3 6 3 6 0 4 0 0 0 0 0 0 0 0 0 0 0 0 0 0 0 0 0 0 0 0 0 0 0 0 0 0 0 0 0 0 0 0 0 0 0 0 0 0 0
0 4 18 11 18 4 0 4 0 0 0 0 0 0 0 0 0 0 0 0 0 0 0 0 0 0 0 0 0 0 0 0 0 0 0 0 0 0 0 0 0 0 1 0 0 0 0

GFSGBSN_con_mucape_087.txt.gz
CAPE
0 0 0 2 4 11 0 4 0 0 9 12 5 15 42 21 31 15 0 37 33 24 1 3 0 0 0 7 13 16 87 34 126 217 158 135 26 10 26 5 32 107 9 0 32 101 100
106 9 10 2 5 10 3 19 9 0 0 13 12 24 32 39 33 35 0 12 36 39 0 0 1 5 0 12 0 1 43 155 144 212 151 50 1 41 40 50 26 0 39 10 26 49 38
121 112 66 0 2 7 15 25 11 4 0 10 12 17 30 33 34 36 0 7 25 28 10 0 4 4 7 4 6 3 109 198 97 76 75 55 0 35 48 51 0 3 9 27 64 4 33
156 132 158 88 14 7 12 13 1 11 0 12 9 18 33 27 23 11 0 2 13 20 12 0 0 0 1 0 0 1 12 90 15 6 2 9 23 0 22 26 1 13 65 0 56 1 22
219 189 163 146 37 9 2 17 6 8 0 10 10 17 31 22 18 0 0 8 5 3 0 0 0 5 0 18 15 0 2 25 9 12 1 7 9 0 15 39 42 65 0 0 49 43 5
92 197 185 120 68 6 3 27 22 4 0 6 11 15 25 18 0 0 5 7 0 0 0 0 0 0 6 8 0 13 5 10 28 32 0 2 0 0 4 26 0 0 0 0 0 0 0
31 122 161 89 78 18 19 8 1 7 2 5 0 18 18 1 0 11 1 0 0 0 0 0 0 0 2 0 0 36 1 0 2 5 1 0 0 0 0 1 0 7 0 0 0 40 0
24 45 157 87 18 8 18 11 10 11 1 2 0 19 18 0 0 0 0 0 0 0 0 0 0 0 0 0 2 23 0 0 19 0 0 0 5 0 22 44 14 37 32 0 25 52 0
2 30 65 78 11 12 4 5 1 10 0 0 0 13 0 0 0 0 0 0 0 0 0 0 0 0 0 0 0 0 0 3 1 6 1 13 0 0 8 12 1 0 0 0 0 21 51
0 17 53 82 13 19 12 4 10 12 0 0 0 0 0 0 0 0 0 0 0 0 0 0 11 10 3 1 0 0 0 0 10 3 8 0 11 21 2 0 0 0 0 0 27 0 0
2 3 62 67 34 6 13 3 13 9 0 0 0 0 0 0 0 0 0 0 0 0 0 8 1 0 9 9 0 0 0 6 0 0 0 9 1 4 16 0 0 14 0 0 1 0 0
6 0 35 70 33 0 16 6 1 8 0 0 0 0 0 0 0 0 0 0 0 0 0 0 0 0 0 2 1 0 0 0 1 0 0 1 0 0 8 3 8 2 2 0 6 0 0
45 111 5 65 38 5 21 4 4 6 0 0 0 0 0 0 0 0 0 0 0 0 0 0 0 0 0 0 0 0 0 0 0 15 0 5 0 0 1 0 3 5 2 1 6 0 0
46 23 0 44 19 11 15 9 8 1 0 0 0 0 0 0 0 0 0 0 0 0 0 0 0 0 0 0 0 0 0 0 0 0 19 0 0 0 1 0 0 3 0 0 0 0 0
152 82 0 3 2 16 31 11 3 0 0 0 0 0 0 0 0 0 0 0 0 0 0 0 0 0 0 0 0 0 0 0 0 0 0 0 0 0 0 0 0 0 0 0 0 0 0
111 32 8 21 3 16 3 4 1 0 0 1 0 0 0 0 0 0 0 0 0 0 0 0 0 0 0 0 0 0 0 0 0 0 0 0 0 0 0 0 0 0 0 0 0 0 0
97 85 16 44 14 29 10 7 2 0 0 0 0 0 0 0 0 0 0 0 0 0 0 0 0 0 0 0 0 0 0 0 0 0 0 0 0 0 0 0 0 0 0 0 0 0 0
81 1 8 7 17 38 11 6 0 0 0 0 0 0 0 0 0 0 0 0 0 0 0 0 0 0 0 0 0 0 0 0 0 0 0 0 0 0 0 0 0 0 0 0 0 0 0
3 0 3 10 17 28 8 4 0 0 0 0 0 0 0 0 0 0 0 0 0 0 0 0 0 0 3 1 0 1 0 0 0 0 0 0 0 0 0 0 0 0 0 6 8 0 0
0 0 0 31 55 8 6 0 0 2 0 0 0 0 0 0 0 0 0 0 0 0 0 0 0 0 0 0 0 0 0 0 0 0 0 0 0 0 0 0 0 0 0 0 4 0 0
2 7 1 15 73 12 4 0 0 0 0 0 0 0 0 0 0 0 0 0 0 0 0 0 0 0 0 0 0 2 0 0 0 0 0 0 0 0 0 0 0 0 0 0 0 0 0
0 0 0 0 39 16 3 0 0 1 0 0 0 0 0 0 0 0 0 0 0 0 0 0 0 0 0 0 0 0 0 0 0 0 0 0 0 0 0 0 0 0 0 0 0 0 0
0 0 2 0 1 20 7 0 0 0 0 0 0 0 0 0 0 0 0 0 0 0 0 0 0 0 0 0 0 0 0 0 0 0 1 4 0 0 0 0 0 0 0 0 0 0 0
0 2 0 1 1 3 4 0 0 0 0 0 0 0 0 0 0 0 0 0 0 0 0 0 0 0 0 0 0 0 0 0 0 0 0 1 0 0 0 0 0 0 0 0 0 0 0
8 13 1 0 1 7 11 3 0 0 0 0 0 0 0 0 0 0 0 0 0 0 0 0 0 0 0 0 0 0 0 0 0 0 0 0 0 0 0 0 0 0 0 0 0 0 0
21 0 1 0 0 2 3 0 0 0 0 0 0 0 0 0 0 0 0 0 0 0 0 0 0 0 0 0 0 0 0 0 0 0 0 0 0 0 0 0 0 0 0 0 0 0 0
18 3 0 1 0 1 3 0 0 0 0 0 0 0 0 0 0 0 0 0 0 0 0 0 0 0 0 0 0 0 0 0 0 0 0 0 0 0 0 0 0 0 0 0 0 0 0
0 0 1 0 1 1 4 7 0 0 0 0 0 0 0 0 0 0 0 0 0 0 0 0 0 0 0 0 0 0 0 0 0 0 0 0 0 0 0 0 0 0 0 0 0 0 0
0 0 0 1 1 1 3 2 1 0 0 0 0 0 0 0 0 0 0 0 0 0 0 0 0 0 0 0 0 0 0 0 0 0 0 0 0 0 0 0 3 0 0 0 0 0 0

GFSGBSN_con_mucape_090.txt.gz
CAPE
145 113 115 75 38 11 13 14 7 12 13 0 0 7 18 19 43 33 27 0 24 37 22 0 3 0 0 0 0 0 31 43 241 209 64 20 43 38 28 20 20 43 0 9 17 101 61
113 196 140 118 163 65 22 20 12 4 12 0 2 7 9 16 35 41 37 0 4 39 44 0 6 20 0 0 0 0 5 122 148 126 63 75 75 35 9 20 27 2 32 11 7 39 90
10 39 200 195 154 171 25 22 23 8 8 0 3 6 8 14 22 23 30 0 7 25 40 16 0 1 0 0 0 0 285 188 126 79 45 31 55 11 53 40 14 43 50 6 14 17 69
4 7 3 154 185 151 132 43 10 5 19 2 2 1 5 14 20 13 0 0 15 9 27 33 0 0 0 0 0 2 22 116 48 53 3 24 4 10 21 59 23 44 58 0 63 0 36
5 9 5 7 91 173 152 28 25 16 5 3 5 0 1 4 13 0 0 0 9 5 1 0 0 0 0 0 12 0 0 29 28 33 33 2 0 0 10 76 30 57 0 0 83 16 21
0 3 6 11 13 163 127 21 44 5 3 7 10 0 5 2 12 0 0 2 0 0 0 0 0 0 0 0 2 0 4 2 39 20 28 0 0 4 1 57 0 0 0 0 0 0 0
33 30 0 1 23 18 128 42 24 25 14 9 9 0 5 0 0 0 0 0 0 0 0 0 0 0 0 0 0 3 0 3 8 12 0 0 0 8 0 57 3 21 24 50 46 0 0
26 27 44 0 0 41 120 84 26 38 19 7 9 0 0 0 0 0 0 0 0 0 0 0 0 0 0 0 5 17 5 21 13 0 0 0 0 0 15 45 53 49 21 37 62 2 0
39 29 49 85 1 45 102 89 10 31 4 5 6 0 0 0 0 0 0 0 0 0 0 0 0 0 8 0 0 0 0 0 24 1 0 1 0 0 43 51 40 43 23 4 0 1 0
45 40 74 84 0 3 81 20 12 29 10 2 11 0 0 0 0 0 0 0 0 0 0 0 0 0 3 5 0 0 0 0 22 4 1 0 5 0 14 16 2 0 0 0 0 0 4
43 66 130 83 83 2 8 42 3 34 10 4 9 0 0 0 0 0 0 0 0 0 0 0 0 0 0 0 0 0 0 0 3 0 0 17 37 9 12 3 1 0 5 11 24 0 0
117 91 92 131 8 22 6 16 17 28 17 9 6 0 0 0 0 0 0 0 0 0 0 0 0 0 0 0 0 0 0 0 0 1 8 11 2 13 5 3 0 13 18 0 0 0 0
134 64 133 80 9 13 25 2 17 18 25 8 0 0 0 0 0 0 0 0 0 0 0 0 0 0 0 0 0 0 0 0 0 0 0 6 5 8 4 19 21 28 0 0 0 0 0
119 112 52 6 2 5 9 6 27 11 19 5 0 0 0 0 0 0 0 0 0 0 0 0 0 0 0 0 0 0 0 0 0 0 0 8 0 3 6 5 9 14 10 0 0 0 0
77 40 1 3 37 82 10 3 33 17 5 5 0 0 0 0 0 0 0 0 0 0 0 0 0 0 0 0 0 0 0 0 0 0 0 0 0 0 2 0 0 3 0 0 0 0 0
5 0 1 3 0 1 33 8 25 7 7 0 0 0 0 0 0 0 0 0 0 0 0 0 0 0 0 0 0 0 0 0 0 0 0 0 0 0 0 3 0 0 0 0 0 0 0
0 0 0 4 30 62 29 23 34 4 3 0 0 0 0 0 0 0 0 0 0 0 0 0 0 0 0 0 0 0 0 0 0 0 0 0 0 0 0 0 0 0 0 0 0 0 0
55 0 2 32 19 19 23 18 23 11 2 0 0 0 0 0 0 0 0 0 0 0 0 0 0 0 0 0 0 0 0 0 0 0 0 0 0 0 0 0 0 0 0 0 0 0 0
62 59 3 1 8 2 11 24 2 10 0 0 0 0 0 0 0 0 0 0 0 0 0 0 0 0 0 0 0 0 0 0 0 0 0 0 0 0 0 0 0 0 0 0 5 0 0
55 0 0 0 0 10 7 40 4 5 0 0 0 0 0 0 0 0 0 0 0 0 0 0 0 0 0 0 0 0 0 0 0 0 0 0 0 0 0 0 0 0 0 0 0 0 0
29 87 0 1 0 13 25 4 10 0 0 0 0 0 0 0 0 0 0 0 0 0 0 0 0 0 0 0 0 0 0 0 0 0 0 0 0 0 0 0 0 0 0 0 0 0 0
34 88 0 0 0 44 5 9 0 0 0 0 0 0 0 0 0 0 0 0 0 0 0 0 0 0 0 0 0 0 0 0 0 0 0 0 0 0 0 0 0 0 0 0 0 0 0
29 0 0 0 0 0 19 3 2 1 0 0 0 0 0 0 0 0 0 0 0 0 0 0 0 0 0 0 0 0 0 0 0 0 0 0 0 0 0 0 0 0 0 0 0 0 0
2 0 0 0 41 0 0 1 0 0 0 0 0 0 0 0 0 0 0 0 0 0 0 0 0 0 0 0 0 0 0 0 0 0 0 0 0 0 0 0 0 0 0 0 0 0 0
0 0 0 7 0 0 0 1 6 3 0 0 0 0 0 0 0 0 0 0 0 0 0 0 0 0 0 0 0 0 0 0 0 0 0 0 0 0 0 0 0 0 0 0 0 0 0
5 0 0 0 0 0 0 4 0 19 0 0 0 0 0 0 0 0 0 0 0 0 0 0 0 0 0 0 0 0 0 0 0 0 0 0 0 0 0 0 0 0 0 0 0 0 0
40 0 1 1 0 0 0 0 0 5 0 0 0 0 0 0 0 0 0 0 0 0 0 0 0 0 0 0 0 0 0 0 0 0 0 0 0 0 0 0 0 0 0 0 0 0 0
7 1 2 0 0 0 0 0 0 0 0 0 0 0 0 0 0 0 0 0 0 0 0 0 0 0 0 0 0 0 0 0 0 0 0 0 0 0 0 0 0 0 0 0 0 0 0
12 1 32 0 0 0 0 0 0 0 0 0 0 0 0 0 0 0 0 0 0 0 0 0 0 0 0 0 0 0 0 0 0 0 0 0 0 0 0 0 0 0 0 0 0 0 0

GFSGBSN_con_mucape_093.txt.gz
CAPE
3 2 46 44 151 196 209 173 34 18 9 10 8 2 0 2 12 22 16 28 12 16 51 3 1 3 0 0 0 0 10 3 147 156 61 26 47 11 0 19 6 46 26 0 28 60 86
5 3 0 10 35 92 214 223 174 26 8 16 4 4 0 0 10 12 20 27 0 8 40 7 0 2 0 0 0 0 0 22 143 78 109 69 32 11 10 20 19 15 5 21 2 5 125
0 11 7 4 7 48 78 150 191 10 43 4 10 9 2 0 12 8 4 19 1 2 28 39 0 0 0 0 0 0 81 152 129 114 49 35 86 62 0 10 4 22 33 36 0 16 11
23 18 0 0 0 0 2 55 127 36 11 12 4 3 5 2 3 3 3 0 1 12 19 29 0 0 0 0 0 0 53 140 75 64 32 15 26 59 21 12 56 24 21 0 0 0 16
26 20 26 17 12 21 2 20 38 82 45 25 13 5 9 0 0 0 0 0 1 12 2 0 0 0 0 0 0 0 0 27 51 40 50 31 1 24 14 3 40 43 14 11 11 0 19
34 33 27 21 29 0 1 1 10 100 9 34 29 6 3 0 0 0 0 0 0 0 0 0 0 0 0 0 0 0 0 10 9 14 30 0 2 2 0 43 0 0 0 0 1 0 0
15 15 33 55 19 34 12 2 35 118 5 19 18 5 2 0 0 0 0 0 0 0 0 0 0 0 0 0 0 0 6 2 5 0 0 3 0 0 7 3 0 0 0 0 3 0 0
19 15 15 23 64 30 39 46 50 2 17 19 8 9 12 1 0 2 0 0 0 0 0 0 0 0 0 0 0 0 0 6 0 0 0 0 5 0 0 24 0 25 35 2 8 0 0
40 23 17 22 31 43 36 24 46 5 34 4 13 10 15 11 0 0 0 0 0 0 0 0 0 0 0 0 0 0 0 0 0 0 3 0 1 0 0 5 2 9 48 51 0 0 0
49 32 43 24 31 54 37 52 4 0 43 9 14 20 19 1 0 0 0 0 0 0 0 0 0 0 0 0 0 0 0 0 3 1 8 46 0 0 72 17 23 9 46 71 15 0 0
95 59 83 58 37 29 32 35 11 7 27 7 18 25 20 0 0 0 0 0 0 0 0 0 0 0 0 0 0 0 0 0 3 0 2 2 5 9 6 14 14 19 7 2 0 0 0
281 176 280 178 92 38 34 28 15 8 2 9 11 20 23 0 0 0 0 0 0 0 0 0 0 0 0 0 0 0 0 0 5 0 33 12 37 1 16 25 42 41 26 8 2 0 0
306 281 277 261 104 69 82 30 10 17 1 7 18 7 16 0 0 0 0 0 0 0 0 0 0 0 0 0 0 0 0 4 1 1 8 4 5 22 24 14 8 26 4 0 0 0 0
310 261 250 252 103 50 67 1 13 10 1 6 12 14 7 0 0 0 0 0 0 0 0 0 0 0 0 0 0 0 0 0 0 0 0 1 0 0 27 1 0 0 1 0 0 0 0
241 193 86 77 0 26 12 29 30 5 7 3 24 13 13 0 0 0 0 0 0 0 0 0 0 0 0 0 0 0 0 0 0 1 0 0 2 6 11 5 9 0 0 0 0 0 0
157 127 89 67 66 17 1 32 86 1 15 2 2 37 0 0 0 0 0 0 0 0 0 0 0 0 0 0 0 0 0 0 0 0 0 0 0 0 0 0 2 2 0 0 0 0 0
111 101 104 79 0 14 36 20 32 1 2 9 1 34 0 0 0 0 0 0 0 0 0 0 0 0 0 0 0 0 0 0 0 0 0 0 0 0 0 0 0 0 0 0 0 0 0
76 73 79 22 0 2 32 65 45 1 1 2 11 0 0 0 0 0 0 0 0 0 0 0 0 0 0 0 0 0 0 0 0 0 0 0 0 0 0 0 0 0 0 0 0 0 0
60 51 46 0 2 1 2 14 1 1 1 0 3 0 0 0 0 0 0 0 0 0 0 0 0 0 0 0 0 0 0 0 0 0 0 0 0 0 0 0 0 0 0 0 0 0 0
47 42 0 2 0 4 3 6 1 1 11 0 0 0 0 0 0 0 0 0 0 0 0 0 0 0 0 0 0 0 0 0 0 0 0 0 0 0 0 0 0 0 0 0 0 0 0
36 14 0 3 0 0 0 0 1 1 1 5 0 0 0 0 0 0 0 0 0 0 0 0 0 0 0 0 0 0 0 0 0 0 0 0 0 0 0 0 0 0 0 0 0 0 0
30 0 0 0 0 0 1 0 1 1 1 0 0 0 0 0 0 0 0 0 0 0 0 0 0 0 0 0 0 0 0 0 0 0 0 0 0 0 0 0 0 0 0 0 0 0 0
11 0 0 0 3 0 0 0 0 1 0 0 0 0 0 0 0 0 0 0 0 0 0 0 0 0 0 0 0 0 0 0 0 0 0 0 0 0 0 0 0 0 0 0 0 0 0
0 0 0 0 0 0 0 0 1 3 3 0 0 0 0 0 0 0 0 0 0 0 0 0 0 0 0 0 0 0 0 0 0 0 0 0 0 0 0 0 0 0 0 0 0 0 0
0 0 0 3 0 0 0 0 0 8 17 0 0 0 0 0 0 0 0 0 0 0 0 0 0 0 0 0 0 0 0 0 0 0 0 0 0 0 0 0 0 0 0 0 0 0 0
1 1 0 0 0 0 0 0 5 46 14 0 0 0 0 0 0 0 0 0 0 0 0 0 0 0 0 0 0 0 0 0 0 0 0 0 0 0 0 0 0 0 0 0 0 0 0
4 1 0 0 0 0 0 0 0 0 9 0 0 0 0 0 0 0 0 0 0 0 0 0 0 0 0 0 0 0 0 0 0 0 0 0 0 0 0 0 0 0 0 0 0 0 0
14 0 1 0 28 0 0 0 3 20 0 0 0 0 0 0 0 0 0 0 0 0 0 0 0 0 0 0 0 0 0 0 0 0 0 0 0 0 0 0 0 0 0 0 0 0 0
9 5 4 0 0 0 0 0 0 0 0 0 0 0 0 0 0 0 0 0 0 0 0 0 0 0 0 0 0 0 0 0 0 0 0 0 0 0 0 0 0 0 0 0 0 0 0

GFSGBSN_con_mucape_096.txt.gz
CAPE
3 1 1 0 0 0 0 0 28 92 256 30 40 26 17 12 4 2 22 9 8 0 6 44 6 29 0 0 0 0 19 1 11 12 13 0 12 31 21 1 4 20 0 18 2 108 31
32 25 33 17 0 0 0 0 0 9 76 93 13 53 25 8 7 3 0 17 12 0 0 25 3 10 0 0 0 0 0 0 22 32 55 29 20 44 74 5 29 6 0 1 14 4 74
40 27 36 30 21 26 0 0 0 0 31 128 28 12 28 9 4 1 0 7 0 0 0 30 10 0 0 0 0 0 0 55 42 48 13 2 22 72 4 58 2 16 20 0 3 30 52
41 38 38 36 41 22 32 41 53 0 0 58 10 6 13 0 10 3 3 0 0 0 2 29 16 0 0 0 0 0 11 56 44 11 17 38 58 79 107 39 74 3 20 33 0 1 18
42 36 37 39 41 36 36 28 46 16 0 0 4 27 9 4 9 1 0 0 0 4 1 6 0 0 0 0 0 1 3 1 10 17 20 39 6 7 13 118 24 26 0 20 117 16 0
44 40 36 30 27 29 26 38 33 40 0 0 34 4 16 9 22 1 0 0 0 0 0 0 0 0 0 0 0 0 0 0 0 8 21 10 0 15 10 74 0 0 4 10 12 73 1
58 48 41 31 17 16 29 34 34 25 49 24 56 3 25 10 11 0 0 0 0 0 0 0 0 0 0 0 0 0 0 0 1 0 0 2 8 0 0 3 6 0 21 20 41 66 0
57 67 55 23 16 15 14 22 40 24 34 44 13 3 23 7 16 0 0 0 0 0 0 0 0 0 0 0 0 0 0 0 0 0 0 0 1 0 0 6 0 5 65 52 74 21 0
74 62 48 23 19 29 18 11 40 19 29 21 7 7 7 13 15 0 0 0 0 0 0 0 0 0 0 0 0 0 0 0 0 0 0 0 0 0 0 7 18 3 37 62 14 0 0
85 95 81 94 76 40 32 18 30 22 16 24 6 4 3 12 13 0 0 0 0 0 0 0 0 0 0 0 0 0 0 0 0 0 0 0 0 0 0 22 13 2 6 50 16 0 0
100 144 183 86 249 127 92 45 42 23 19 22 22 2 1 53 5 0 0 0 0 0 0 0 0 0 0 0 0 0 3 0 0 11 0 9 1 4 3 50 33 68 84 49 38 1 0
163 184 312 184 238 228 97 101 31 59 22 23 7 4 8 13 4 0 0 0 0 0 0 0 0 0 0 0 1 9 0 0 2 2 4 8 2 2 17 42 67 28 21 20 33 0 0
197 275 258 266 305 162 187 57 58 38 29 11 3 12 21 1 8 0 0 0 0 0 0 0 0 0 0 0 0 0 0 0 0 0 0 1 14 20 26 36 35 33 6 0 0 0 0
191 229 261 300 194 167 55 37 72 46 14 7 1 2 1 1 0 0 0 0 0 0 0 0 0 0 0 0 0 0 0 0 0 0 0 0 1 9 9 0 10 10 5 0 0 0 0
169 120 178 142 112 88 67 75 62 59 16 0 0 0 3 0 0 0 0 0 0 0 0 0 0 0 0 0 0 0 0 0 0 0 0 0 10 16 0 0 0 2 2 0 0 0 0
144 144 112 102 96 81 39 4 32 48 27 0 0 0 3 0 0 0 0 0 0 0 0 0 0 0 0 0 0 0 0 0 0 0 0 0 2 5 7 1 0 0 0 0 0 0 0
165 94 60 57 95 0 2 43 4 72 0 1 0 0 0 0 0 0 0 0 0 0 0 0 0 0 0 0 0 0 0 0 0 0 0 0 0 0 0 0 0 0 0 0 0 0 0
109 46 51 42 0 5 7 4 45 3 6 0 0 0 0 0 0 0 0 0 0 0 0 0 0 0 0 0 0 0 0 0 0 0 0 0 0 0 0 0 0 0 0 0 0 0 0
71 30 28 7 0 2 6 45 3 11 0 0 0 0 0 0 0 0 0 0 0 0 0 0 0 0 0 0 0 0 0 0 0 0 0 0 0 0 0 0 0 0 0 0 0 0 0
21 31 6 2 2 2 4 3 2 14 1 0 0 0 0 0 0 0 0 0 0 0 0 0 0 0 0 0 0 0 0 0 0 0 0 0 0 0 0 0 0 0 0 0 0 0 0
29 7 0 9 6 5 4 4 3 19 0 0 0 0 0 0 0 0 0 0 0 0 0 0 0 0 0 0 0 0 0 0 0 0 0 0 0 0 0 0 0 0 0 0 0 0 0
40 0 0 0 1 0 0 12 0 0 0 0 0 0 0 0 0 0 0 0 0 0 0 0 0 0 0 0 0 0 0 0 0 0 0 0 0 0 0 0 0 0 0 0 0 0 0
0 0 0 1 1 0 4 0 3 0 0 0 0 0 0 0 0 0 0 0 0 0 0 0 0 0 0 0 0 0 0 0 0 0 0 0 0 0 0 0 0 0 0 0 0 0 0
3 1 0 0 0 1 0 3 0 0 0 0 0 0 0 0 0 0 0 0 0 0 0 0 0 0 0 0 0 0 0 0 0 0 0 0 0 0 0 0 0 0 0 0 0 0 0
0 0 0 0 2 0 0 0 0 0 0 0 0 0 0 0 0 0 0 0 0 0 0 0 0 0 0 0 0 0 0 0 0 0 0 0 0 0 0 0 0 0 0 0 0 0 0
0 0 0 0 0 0 0 1 0 0 0 0 0 0 0 0 0 0 0 0 0 0 0 0 0 0 0 0 0 0 0 0 0 0 0 0 0 0 0 0 0 0 0 0 0 0 0
0 0 0 0 0 0 0 0 0 20 0 0 0 0 0 0 0 0 0 0 0 0 0 0 0 0 0 0 0 0 0 0 0 0 0 0 0 0 0 0 0 0 0 0 0 0 0
1 0 0 0 0 0 0 0 0 1 9 0 0 0 0 0 0 0 0 0 0 0 0 0 0 0 0 0 0 0 0 0 0 0 0 0 0 0 0 0 0 0 0 0 0 0 0
4 6 2 0 0 0 0 0 0 0 0 1 0 0 0 0 0 0 0 0 0 0 0 0 0 0 0 0 0 0 0 0 0 0 0 0 0 0 0 0 0 0 0 0 0 0 0

GFSGBSN_con_mucape_099.txt.gz
CAPE
29 24 17 25 32 30 15 1 0 5 0 0 39 117 4 22 10 18 6 1 11 24 9 39 0 29 0 0 0 0 10 1 0 0 0 0 0 1 0 2 11 42 1 6 13 6 47
48 43 23 38 36 24 20 22 19 21 4 2 34 85 11 5 25 10 9 6 9 26 3 38 2 2 0 0 0 0 0 0 0 0 0 0 0 1 8 3 44 0 0 0 15 27 116
25 62 63 55 48 43 30 17 18 20 17 18 9 59 13 13 3 4 4 0 0 17 3 37 7 0 0 0 0 0 0 0 0 1 0 0 0 0 12 16 44 17 31 21 0 24 99
47 40 33 59 46 38 24 37 17 16 17 21 27 28 25 3 10 6 7 0 0 14 25 30 8 0 0 0 0 0 0 0 0 0 0 1 29 1 0 22 74 64 27 44 0 4 54
77 81 72 63 40 46 45 37 30 24 15 15 12 13 35 3 8 8 9 0 0 32 18 21 0 0 0 0 0 0 0 0 0 0 3 26 27 0 3 86 19 84 0 86 41 2 11
76 73 79 85 73 58 40 33 29 30 9 9 24 52 26 20 5 2 2 0 12 14 9 0 0 0 0 0 0 0 0 0 0 0 31 30 0 0 3 123 0 60 8 36 88 96 8
83 89 82 76 79 79 43 31 28 24 22 7 14 66 10 13 7 6 1 0 0 0 0 0 0 0 0 0 0 0 0 0 0 7 0 0 0 0 0 0 0 45 2 2 50 118 13
78 84 90 85 80 76 82 44 12 29 30 12 21 36 26 19 20 1 1 0 0 0 0 0 0 0 0 0 0 0 0 0 0 0 0 0 0 0 0 0 0 16 0 98 146 107 30
95 98 104 90 107 133 69 78 31 31 45 16 22 31 12 26 23 3 0 0 0 0 0 0 0 0 0 0 0 0 0 0 0 0 0 5 0 0 2 5 4 0 0 58 31 55 29
128 148 173 160 161 201 187 120 44 32 46 14 12 16 29 19 12 0 0 0 0 0 0 0 0 0 0 0 0 0 0 0 0 0 0 1 0 0 0 6 13 3 3 90 66 106 0
140 166 136 241 242 274 257 208 42 28 33 13 28 10 6 9 2 0 0 0 0 0 0 0 0 0 0 0 0 0 1 0 0 0 0 0 1 0 7 1 13 0 11 61 29 48 0
133 144 179 245 177 241 266 240 106 41 5 18 30 6 7 3 0 0 0 0 0 0 0 0 0 0 0 0 1 0 0 0 4 0 1 0 0 9 40 33 37 42 25 35 10 0 1
136 195 135 249 289 277 236 188 99 37 19 30 24 38 9 6 0 0 0 0 0 0 0 0 0 0 0 0 0 0 0 0 0 0 0 5 24 33 34 22 34 52 3 0 0 0 0
186 189 198 124 136 192 125 62 31 53 63 46 4 43 2 0 0 0 0 0 0 0 0 0 0 0 0 0 0 0 0 0 0 0 0 0 25 5 22 6 8 6 1 0 0 0 0
271 184 117 152 135 93 94 55 41 48 3 9 0 6 4 0 1 0 0 0 0 0 0 0 0 0 0 0 0 0 0 0 0 0 0 0 1 0 1 11 1 0 0 0 0 0 0
172 124 112 92 82 84 69 0 3 19 19 29 0 1 2 0 0 0 0 0 0 0 0 0 0 0 0 0 0 0 0 0 0 0 0 0 1 1 0 0 0 0 0 0 0 0 0
161 118 89 73 50 14 6 0 44 43 37 55 0 0 0 0 0 0 0 0 0 0 0 0 0 0 0 0 0 0 0 0 0 0 0 0 0 0 0 0 0 2 0 0 0 0 0
84 82 40 58 0 15 12 40 47 80 26 1 0 0 0 0 0 0 0 0 0 0 0 0 0 0 0 0 0 0 0 0 0 0 0 0 0 0 0 0 0 0 0 0 0 0 0
69 61 0 0 10 9 11 27 8 1 0 0 0 0 0 0 0 0 0 0 0 0 0 0 0 0 0 0 0 0 0 0 0 0 0 0 0 0 0 0 0 0 0 0 0 0 0
70 0 0 40 24 5 14 2 1 1 0 0 0 0 0 0 0 0 0 0 0 0 0 0 0 0 0 0 0 0 0 0 0 0 0 0 0 0 0 0 0 0 0 0 0 0 0
0 0 7 39 47 7 0 0 0 0 1 0 0 0 0 0 0 0 0 0 0 0 0 0 0 0 0 0 0 0 0 0 0 0 0 0 0 0 0 0 0 0 0 0 0 0 0
0 0 4 43 20 0 0 0 2 0 0 0 0 0 0 0 0 0 0 0 0 0 0 0 0 0 0 0 0 0 0 0 0 0 0 0 0 0 0 0 0 0 0 0 0 0 0
0 0 33 14 8 5 1 0 0 0 0 0 0 0 0 0 0 0 0 0 0 0 0 0 0 0 0 0 0 0 0 0 0 0 0 0 0 0 0 0 0 0 0 0 0 0 0
2 0 40 17 25 3 3 0 0 0 0 0 0 0 0 0 0 0 0 0 0 0 0 0 0 0 0 0 0 0 0 0 0 0 0 0 0 0 0 0 0 0 0 0 0 0 0
4 0 0 10 0 2 0 0 0 1 0 0 0 0 0 0 0 0 0 0 0 0 0 0 0 0 0 0 0 0 0 0 0 0 0 0 0 0 0 0 0 0 0 0 0 0 0
0 0 0 0 0 0 0 0 0 3 1 0 0 0 0 0 0 0 0 0 0 0 0 0 0 0 0 0 0 0 0 0 0 0 0 0 0 0 0 0 0 0 0 0 0 0 0
0 0 0 0 0 0 0 0 0 0 0 0 0 0 0 0 0 0 0 0 0 0 0 0 0 0 0 0 0 0 0 0 0 0 0 0 0 0 0 0 0 0 0 0 0 0 0
0 0 0 0 0 0 0 0 0 0 0 0 0 0 0 0 0 0 0 0 0 0 0 0 0 0 0 0 0 0 0 0 0 0 0 0 0 0 0 0 0 0 0 0 0 0 0
0 0 0 0 0 0 0 0 0 0 0 0 0 0 0 0 0 0 0 0 0 0 0 0 0 0 0 0 0 0 0 0 0 0 0 0 0 0 0 0 0 0 0 0 0 0 0

GFSGBSN_con_mucape_102.txt.gz
CAPE
58 62 68 66 72 65 46 32 26 21 28 21 14 9 26 104 9 5 7 7 2 3 7 15 20 14 0 0 0 0 0 27 0 0 0 0 0 0 0 0 2 2 0 0 14 6 0
75 74 78 77 85 85 80 58 29 28 20 24 22 18 41 88 33 15 7 3 3 0 0 10 19 6 0 0 0 0 0 0 0 2 0 11 8 9 9 6 8 0 0 0 13 9 7
43 69 72 68 64 71 76 72 40 38 29 16 28 22 12 74 31 29 16 7 3 0 12 13 31 0 0 0 0 0 0 0 5 2 0 1 16 15 21 16 16 0 17 18 8 0 10
79 71 71 79 67 64 66 46 36 39 34 13 27 18 48 61 31 22 5 5 1 0 20 34 36 0 0 0 0 0 0 3 7 8 16 23 31 35 15 13 5 85 85 46 9 29 15
81 95 89 91 100 86 82 75 33 32 27 23 15 16 33 73 17 19 14 1 0 1 31 39 7 0 0 0 0 0 0 0 10 29 31 29 43 12 0 7 189 67 40 28 22 52 33
91 102 101 102 93 98 85 71 61 37 18 22 10 10 12 41 19 16 23 1 0 4 9 0 0 0 0 0 0 0 0 0 3 20 44 42 6 0 0 0 114 27 77 40 37 51 110
92 104 103 94 61 75 75 77 68 67 23 25 10 2 36 44 9 23 22 10 0 0 0 0 0 0 0 0 0 0 0 0 0 0 0 0 0 0 0 55 55 67 59 73 93 4 94
105 121 122 117 109 122 123 104 62 64 40 33 14 10 3 50 28 20 21 0 1 0 0 0 0 0 0 0 0 0 0 0 0 0 0 0 0 0 5 17 41 47 111 82 144 145 99
110 119 120 138 129 148 184 151 121 69 55 30 9 1 16 36 29 5 5 1 0 0 0 0 0 0 0 0 0 0 0 0 0 0 0 0 0 0 32 8 0 2 15 60 135 170 202
148 159 172 168 159 169 175 229 171 129 33 17 14 13 87 14 23 10 1 0 0 0 0 0 0 0 0 0 0 0 0 0 0 0 0 1 0 0 26 0 3 0 0 96 194 292 258
162 182 235 213 201 191 248 255 192 90 37 11 15 23 90 20 23 3 0 0 0 0 0 0 0 0 0 0 0 0 0 0 0 0 0 20 0 17 0 0 3 9 2 107 153 131 166
249 239 214 312 174 267 252 226 181 71 15 9 26 26 22 5 15 0 0 0 0 0 0 0 0 0 0 0 0 0 0 0 0 0 0 0 2 3 75 3 6 68 14 38 56 46 0
246 287 267 302 276 189 141 159 20 57 43 62 27 9 8 3 1 0 0 0 0 0 0 0 0 0 0 0 0 0 0 0 3 38 5 2 28 35 36 49 64 44 5 59 0 2 1
137 227 135 115 94 148 162 88 28 9 33 8 1 14 9 12 4 0 0 0 0 0 0 0 0 0 0 0 0 0 0 0 0 0 0 76 96 8 43 55 44 34 0 5 2 2 1
141 137 111 89 112 82 52 48 50 38 22 7 20 12 4 6 0 1 0 0 0 0 0 0 0 0 0 0 0 0 0 0 0 0 0 22 17 1 5 1 23 7 0 0 0 0 0
89 73 60 68 55 44 50 62 0 0 1 0 7 12 1 0 0 0 0 0 0 0 0 0 0 0 0 0 0 0 0 0 0 0 0 0 69 0 6 2 0 0 0 0 0 0 0
82 23 18 16 16 13 1 1 28 51 44 10 4 2 2 5 0 0 0 0 0 0 0 0 0 0 0 0 0 0 0 0 0 0 0 0 0 0 1 0 0 0 0 0 0 0 0
0 0 17 1 2 2 2 0 0 81 62 0 0 0 0 0 0 0 0 0 0 0 0 0 0 0 0 0 0 0 0 0 0 0 0 0 0 0 0 0 0 0 0 0 0 0 0
25 21 44 35 22 10 15 2 11 80 33 0 0 0 0 0 0 0 0 0 0 0 0 0 0 0 0 0 0 0 0 0 0 0 0 0 0 0 0 0 0 0 0 0 0 0 0
11 70 105 12 2 9 15 23 13 5 0 0 0 0 0 0 0 0 0 0 0 0 0 0 0 0 0 0 0 0 0 0 0 0 0 0 0 0 0 0 0 0 0 0 0 0 0
0 59 5 3 0 0 0 0 0 0 0 0 0 0 0 0 0 0 0 0 0 0 0 0 0 0 0 0 0 0 0 0 0 0 0 0 0 0 0 0 0 0 0 0 0 0 0
0 1 0 1 0 0 0 0 0 0 0 0 0 0 0 0 0 0 0 0 0 0 0 0 0 0 0 0 0 0 0 0 0 0 0 0 0 0 0 0 0 0 0 0 0 0 0
1 12 9 0 0 0 0 0 0 0 0 0 0 0 0 0 0 0 0 0 0 0 0 0 0 0 0 0 0 0 0 0 0 0 0 0 0 0 0 0 0 0 0 0 0 0 0
0 0 0 0 0 0 0 0 0 0 0 0 0 0 0 0 0 0 0 0 0 0 0 0 0 0 0 0 0 0 0 0 0 0 0 0 0 0 0 0 0 0 0 0 0 0 0
0 0 0 0 0 0 0 0 0 0 0 0 0 0 0 0 0 0 0 0 0 0 0 0 0 0 0 0 0 0 0 0 0 0 0 0 0 0 0 0 0 0 0 0 0 0 0
0 0 0 0 0 0 0 0 0 0 0 0 0 0 0 0 0 0 0 0 0 0 0 0 0 0 0 0 0 0 0 0 0 0 0 0 0 0 0 0 0 0 0 0 0 0 0
0 0 0 0 0 0 0 0 0 0 0 0 0 0 0 0 0 0 0 0 0 0 0 0 0 0 0 0 0 0 0 0 0 0 0 0 0 0 0 0 0 0 0 0 0 0 0
0 0 0 0 0 0 0 0 0 0 0 0 0 0 0 0 0 0 0 0 0 0 0 0 0 0 0 0 0 0 0 0 0 0 0 0 0 0 0 0 0 0 0 0 0 0 0
0 0 0 0 0 0 0 0 0 0 0 0 0 0 0 0 0 0 0 0 0 0 0 0 0 0 0 0 0 0 0 0 0 0 0 0 0 0 0 0 0 0 0 0 0 0 0

GFSGBSN_con_mucape_105.txt.gz
CAPE
47 58 55 54 41 31 39 50 54 34 36 19 20 24 15 27 10 78 31 22 14 16 4 2 18 3 0 0 0 0 0 23 13 0 0 0 0 0 0 0 0 0 1 9 19 18 22
40 64 61 66 74 73 67 61 57 27 29 34 23 22 24 13 26 43 37 29 15 8 1 0 9 1 0 0 0 0 0 0 0 0 2 1 1 1 0 0 1 0 1 0 1 9 45
61 60 75 83 85 98 89 75 63 12 14 36 23 18 3 6 34 49 36 35 31 1 0 0 11 5 0 0 0 0 0 0 6 2 9 15 11 10 10 11 9 11 18 1 0 9 22
69 94 102 118 107 122 130 106 82 48 16 21 18 9 0 12 22 28 35 19 47 3 0 0 22 8 0 0 0 0 0 0 12 24 26 33 34 31 24 19 20 25 32 48 0 0 6
91 114 133 153 163 141 135 136 116 92 65 6 5 4 1 0 33 14 15 16 6 0 7 13 19 1 0 0 0 0 0 10 18 36 40 39 42 23 18 0 0 14 46 49 53 10 89
121 152 167 176 196 183 152 135 140 115 83 19 2 0 0 2 42 4 23 0 13 13 6 0 0 0 0 0 0 0 0 2 7 22 32 38 48 0 0 0 4 62 69 62 45 20 118
175 212 217 207 204 190 192 172 159 110 73 42 0 0 72 40 11 16 29 27 10 0 0 0 0 0 0 0 0 0 0 0 0 0 0 0 0 0 0 0 21 49 82 34 45 28 121
250 286 336 322 329 282 250 225 184 112 63 40 1 0 32 11 19 22 14 12 7 0 0 0 0 0 0 0 0 0 0 0 0 0 0 0 0 0 43 37 109 128 0 13 39 23 131
303 362 347 358 233 275 229 239 124 143 27 16 0 0 0 9 10 0 13 3 0 0 0 0 0 0 0 0 0 0 0 0 0 0 0 0 0 0 3 21 11 14 3 0 9 100 145
151 214 241 202 145 105 130 108 217 143 107 13 0 0 52 74 5 4 2 0 0 0 0 0 0 0 0 0 0 0 0 0 0 0 0 0 2 0 3 17 1 0 0 0 10 130 246
89 156 77 134 253 207 163 165 151 80 35 0 0 9 68 25 2 3 0 1 0 0 0 0 0 0 0 0 0 0 0 0 0 0 0 36 0 0 0 0 0 1 34 0 74 108 241
118 160 83 122 121 85 178 140 115 84 12 1 0 2 18 16 14 0 0 0 0 13 0 0 0 0 0 0 0 0 0 0 0 0 0 6 3 1 22 31 0 5 8 0 0 49 48
97 133 79 56 67 94 156 132 15 38 0 5 0 2 4 12 4 0 0 0 19 0 0 0 0 0 0 0 0 0 0 0 0 31 113 11 16 9 24 13 0 0 5 102 42 14 3
80 80 74 55 60 64 48 7 18 20 4 0 1 14 13 0 0 0 0 0 0 0 0 0 0 0 0 0 0 0 10 15 0 0 75 101 1 0 33 47 5 0 0 8 1 0 0
0 0 62 49 54 61 33 42 40 37 13 1 9 3 9 4 0 0 0 0 0 0 0 0 0 0 0 0 0 0 0 7 0 0 52 86 29 9 28 41 28 21 5 0 0 0 9
20 2 0 0 14 44 38 1 0 0 0 5 0 5 2 0 0 0 0 0 0 0 0 0 0 0 0 0 0 0 6 0 0 0 0 1 4 0 3 12 22 0 0 0 6 19 0
18 108 6 16 0 0 19 0 0 3 0 2 5 0 0 0 0 0 0 0 0 0 0 0 0 0 0 0 0 0 0 0 0 0 0 0 16 4 22 1 0 0 0 0 0 0 3
62 59 6 0 0 0 0 5 22 12 0 0 0 0 0 0 0 0 0 0 0 0 0 0 0 0 0 0 0 0 0 0 0 0 0 0 10 4 0 0 0 0 0 0 0 0 0
48 26 17 3 0 0 0 0 5 22 0 0 0 0 0 0 0 0 0 0 0 0 0 0 0 0 0 0 0 0 0 0 0 0 0 0 0 0 0 0 0 0 0 0 0 0 0
64 0 11 14 2 0 0 1 13 3 0 0 0 0 0 0 0 0 0 0 0 0 0 0 0 0 0 0 0 0 0 0 0 0 0 0 0 0 0 0 0 0 0 0 0 8 0
3 0 0 0 0 0 0 2 16 0 0 0 0 0 0 0 0 0 0 0 0 0 0 0 0 0 0 0 0 0 0 0 0 0 0 0 0 0 0 0 0 0 0 0 0 0 0
0 0 0 0 0 0 0 0 0 0 0 0 0 0 0 0 0 0 0 0 0 0 0 0 0 0 0 0 0 0 0 0 0 0 0 0 0 0 0 0 0 0 0 0 0 0 0
0 0 0 0 0 0 0 0 0 0 0 0 0 0 0 0 0 0 0 0 0 0 0 0 0 0 0 0 0 0 0 0 0 0 0 0 0 0 0 0 0 0 0 0 0 0 0
0 0 0 1 0 0 0 0 0 0 0 0 0 0 0 0 0 0 0 0 0 0 0 0 0 0 0 0 0 0 0 0 0 0 0 0 0 0 0 0 0 0 0 0 0 0 0
0 0 0 4 4 4 0 0 0 0 0 0 0 0 0 0 0 0 0 0 0 0 0 0 0 0 0 0 0 0 0 0 0 0 0 0 0 0 0 0 0 0 0 0 0 0 0
0 0 0 0 0 6 0 0 0 0 0 0 0 0 0 0 0 0 0 0 0 0 0 0 0 0 0 0 0 0 0 0 0 0 0 0 0 0 0 0 0 0 0 0 0 0 0
0 0 0 0 0 0 0 0 0 0 0 0 0 0 0 0 0 0 0 0 0 0 0 0 0 0 0 0 0 0 0 0 0 0 0 0 0 0 0 0 0 0 0 0 0 0 0
0 0 0 0 0 0 0 0 0 0 0 0 0 0 0 0 0 0 0 0 0 0 0 0 0 0 0 0 0 0 0 0 0 0 0 0 0 0 0 0 0 0 0 0 0 0 0
0 0 0 0 0 0 0 0 0 0 0 0 0 0 0 0 0 0 0 0 0 0 0 0 0 0 0 0 0 0 0 0 0 0 0 0 0 0 0 0 0 0 0 0 0 0 0

GFSGBSN_con_mucape_108.txt.gz
CAPE
85 85 76 84 93 102 88 105 71 65 53 16 40 31 29 16 12 27 62 20 23 11 14 13 0 0 0 0 0 0 6 18 17 0 0 0 0 0 0 0 0 0 0 0 0 2 0
103 76 85 109 118 130 130 146 112 69 60 50 8 21 22 13 7 27 37 60 34 4 17 0 0 0 0 0 0 0 0 0 1 0 0 0 0 0 0 0 0 0 0 0 0 0 0
94 89 90 123 142 136 133 174 119 135 84 58 24 6 2 4 3 30 33 34 34 16 3 0 0 0 0 0 0 0 0 0 0 0 0 0 0 0 1 0 1 0 0 0 0 0 0
100 113 117 96 105 83 123 150 190 111 138 60 27 2 0 0 8 42 54 43 45 16 5 0 13 5 0 0 0 0 0 0 0 0 0 0 6 4 2 6 0 0 0 0 0 0 0
79 99 127 198 231 156 137 148 163 144 117 106 47 0 0 0 5 6 6 9 22 3 0 7 18 5 0 0 0 0 0 0 2 0 6 10 28 15 11 0 0 0 0 0 0 1 0
75 89 130 214 315 294 237 204 177 154 142 87 33 0 0 0 4 46 10 14 19 11 9 10 1 0 0 0 0 0 0 0 0 0 5 4 0 0 0 0 0 0 2 6 0 0 23
129 128 145 152 241 229 212 307 224 193 175 105 36 0 7 29 112 10 40 12 5 11 0 0 0 0 0 0 0 0 0 0 0 0 0 0 0 0 0 0 0 0 27 7 3 50 18
144 180 113 192 226 123 121 100 65 160 167 31 5 0 31 1 19 6 15 14 1 0 0 0 0 0 0 0 0 0 0 0 0 0 0 0 0 0 0 0 4 23 7 0 2 33 14
115 142 175 173 217 184 105 58 72 91 134 9 0 3 8 3 15 4 27 0 3 0 0 0 0 0 0 0 0 0 0 0 0 0 0 0 0 0 0 0 0 20 0 0 0 19 21
77 128 70 118 128 129 61 38 0 40 80 4 0 0 0 67 4 1 1 1 0 0 0 0 0 0 0 0 0 0 0 0 0 0 0 0 0 0 0 0 0 0 0 0 0 0 0
78 119 79 37 31 36 57 3 91 37 42 0 0 100 40 29 6 0 0 0 0 0 0 0 0 0 0 0 0 0 0 0 1 0 0 6 12 0 0 0 0 0 0 23 0 24 10
0 14 74 41 55 48 28 26 38 51 9 9 7 9 25 15 2 2 0 0 0 0 0 0 0 0 0 0 0 0 4 0 0 0 0 3 1 0 0 5 18 0 0 0 0 0 0
0 0 2 52 27 56 59 7 13 19 21 13 0 9 2 1 0 0 0 0 0 5 0 0 0 0 0 0 0 0 0 0 0 1 0 1 0 0 4 5 0 0 0 0 0 0 0
191 27 0 3 0 4 0 4 14 4 10 26 14 4 8 2 0 0 0 0 0 0 0 0 0 0 0 0 0 0 4 0 2 0 0 0 0 0 23 0 0 0 0 0 4 12 4
86 4 0 0 0 0 0 12 24 0 0 11 11 1 0 0 0 0 0 0 0 0 0 0 0 0 0 0 0 0 0 0 0 0 0 70 0 0 1 0 6 0 0 12 0 0 0
42 3 3 0 2 0 0 0 0 0 0 8 0 0 0 0 0 0 0 0 0 0 0 0 0 0 0 0 0 0 1 0 0 0 0 0 0 0 1 8 0 0 0 0 0 0 8
33 0 0 0 5 0 0 0 0 0 0 0 0 0 0 0 0 0 0 0 0 0 0 0 0 0 0 0 0 0 0 0 0 0 0 0 0 0 0 0 0 0 0 0 0 0 4
63 0 12 0 5 1 0 0 0 0 0 0 0 0 0 0 0 0 0 0 0 0 0 0 0 0 0 0 0 0 0 0 0 0 0 0 0 0 0 0 0 0 0 0 0 0 0
66 11 7 0 0 0 0 15 0 0 0 0 0 0 0 0 0 0 0 0 0 0 0 0 0 0 0 0 0 0 0 0 0 0 0 0 0 0 0 4 0 0 0 0 0 0 0
29 49 30 0 0 0 0 0 0 0 0 0 0 0 0 0 0 0 0 0 0 0 0 0 0 0 0 0 0 0 0 0 0 0 0 0 0 0 0 0 0 0 0 0 0 0 0
20 13 0 17 7 1 0 0 0 0 0 0 0 0 0 0 0 0 0 0 0 0 0 0 0 0 0 0 0 0 0 0 0 0 0 0 0 0 0 0 0 0 0 0 0 0 0
9 0 0 0 0 9 4 0 0 0 0 0 0 0 0 0 0 0 0 0 0 0 0 0 0 0 0 0 0 0 0 0 0 0 0 0 0 0 0 0 0 0 0 0 0 0 0
0 6 8 7 3 1 1 0 1 0 0 0 0 0 0 0 0 0 0 0 0 0 0 0 0 0 0 0 0 0 0 0 0 0 0 0 0 0 0 0 0 0 0 0 0 0 0
0 0 0 1 0 2 2 4 4 1 1 3 0 0 0 0 0 0 0 0 0 0 0 0 0 0 0 0 0 0 0 0 0 0 0 0 0 0 0 0 0 0 0 0 0 0 0
0 0 0 0 0 0 0 0 1 0 0 0 0 0 0 0 0 0 0 0 0 0 0 0 0 0 0 0 0 0 0 0 0 0 0 0 0 0 0 0 0 0 0 0 0 0 0
0 0 0 0 0 0 0 0 0 0 0 0 0 0 0 0 0 0 0 0 0 0 0 0 0 0 0 0 0 0 0 0 0 0 0 0 0 0 0 0 0 0 0 0 0 0 0
0 0 0 0 0 0 0 0 0 0 0 0 0 0 0 0 0 0 0 0 0 0 0 0 0 0 0 0 0 0 0 0 0 0 0 0 0 0 0 0 0 0 0 0 0 0 0
0 0 0 0 0 0 0 0 0 0 0 0 0 0 0 0 0 0 0 0 0 0 0 0 0 0 0 0 0 0 0 0 0 0 0 0 0 0 0 0 0 0 0 0 0 0 0
0 0 9 0 0 0 0 0 0 0 0 0 0 0 0 0 0 0 0 0 0 0 0 0 0 0 0 0 0 0 0 0 0 0 0 0 0 0 0 0 0 0 0 0 0 0 0

GFSGBSN_con_mucape_111.txt.gz
CAPE
124 77 73 104 119 131 117 108 90 76 87 72 94 49 36 26 19 6 28 48 44 51 21 10 14 0 0 0 0 12 23 43 0 0 0 0 0 0 0 0 0 0 0 0 0 0 0
142 96 57 74 115 117 125 96 85 63 66 75 102 72 27 21 10 2 11 96 68 27 21 7 0 0 0 0 0 2 0 0 0 0 0 0 0 0 0 0 0 0 0 0 0 0 0
64 114 89 71 76 146 99 97 118 69 60 89 89 76 27 7 17 20 69 54 23 32 24 2 0 0 0 0 0 0 0 0 0 0 0 0 0 0 0 0 0 0 0 0 0 0 0
79 106 141 135 113 123 200 59 121 57 119 132 117 96 11 1 32 16 153 74 20 16 5 12 0 0 0 0 0 0 0 0 0 0 0 0 0 0 0 0 0 0 0 0 0 0 0
122 142 138 157 154 120 251 165 70 64 163 144 89 81 9 0 114 74 29 28 10 22 7 0 0 0 0 0 0 0 0 0 0 0 0 0 0 0 0 0 0 0 0 0 0 0 0
165 162 144 117 208 189 61 154 186 158 173 108 50 25 4 0 79 26 6 18 28 2 0 12 1 0 0 0 0 0 0 0 0 0 0 0 0 0 0 0 0 0 0 0 0 0 0
120 136 167 162 198 200 74 2 0 55 20 32 9 2 43 284 161 6 11 17 1 1 0 0 0 0 0 0 0 0 0 0 0 0 0 0 0 0 0 0 0 0 0 0 0 0 0
81 141 167 119 181 182 36 13 7 0 34 31 3 0 36 99 22 23 14 0 0 0 0 0 0 0 0 0 0 0 0 0 0 0 0 0 0 0 0 0 0 0 0 0 0 0 0
53 31 141 53 110 72 27 2 18 13 36 2 0 0 15 75 28 42 5 0 6 0 0 0 0 0 0 0 0 0 0 0 0 0 0 0 0 0 0 0 0 0 0 0 0 0 0
8 10 28 20 3 41 16 0 3 76 14 0 13 0 0 34 1 0 1 9 0 0 0 0 0 0 0 0 0 0 0 0 0 0 0 0 0 0 0 0 0 0 0 1 0 0 0
24 0 2 1 0 3 19 59 103 61 0 1 38 89 51 5 0 0 0 0 0 0 0 0 0 0 0 0 0 7 11 0 0 0 0 0 0 0 0 0 0 0 0 0 0 0 0
57 0 0 0 0 0 1 23 25 0 0 46 20 18 3 0 0 0 0 0 0 0 0 0 0 0 0 0 0 0 0 0 0 0 0 0 0 0 0 0 0 0 0 0 0 0 0
9 0 0 3 15 4 5 7 2 1 0 1 5 1 2 1 0 0 0 0 0 0 0 0 0 0 0 0 0 0 1 1 1 0 0 0 0 0 0 0 0 0 0 0 0 0 0
0 0 0 4 3 8 25 15 4 0 7 21 0 0 0 0 0 0 0 0 0 0 0 0 0 0 0 0 0 0 8 0 1 1 0 0 0 0 0 0 0 1 0 0 0 0 0
0 0 0 4 2 8 36 21 2 5 6 0 0 0 0 0 0 0 0 0 0 0 0 0 0 0 0 0 0 0 0 0 0 0 0 0 0 0 0 0 0 2 0 0 0 0 0
0 7 8 15 35 21 23 0 0 6 7 0 0 0 0 0 0 0 0 0 0 0 0 0 0 0 0 0 0 0 0 0 0 0 0 0 0 0 0 0 0 0 0 0 0 0 0
12 4 34 30 14 19 6 0 0 3 0 0 0 0 0 0 0 0 0 0 0 0 0 0 0 0 0 0 0 0 0 0 0 0 0 0 0 0 0 0 0 0 0 0 0 0 1
3 2 0 2 0 1 0 0 0 0 0 0 0 0 0 0 0 0 0 0 0 0 0 0 0 0 0 0 0 0 0 0 0 0 0 0 0 0 0 0 0 0 0 0 0 0 0
20 0 0 0 0 0 5 0 0 0 0 0 0 0 0 0 0 0 0 0 0 0 0 0 0 0 0 0 0 0 0 0 0 0 0 0 0 0 0 0 0 0 0 0 0 0 0
0 5 0 0 0 0 0 0 0 0 0 0 0 0 0 0 0 0 0 0 0 0 0 0 0 0 0 0 0 0 0 0 0 0 0 0 0 0 0 0 0 0 0 0 0 0 0
0 0 0 0 0 0 0 0 0 0 0 0 0 0 0 0 0 0 0 0 0 0 0 0 0 0 0 0 0 0 0 0 0 0 0 0 0 0 0 0 0 0 0 0 0 0 0
0 0 0 0 0 0 0 0 0 0 0 0 0 0 0 0 0 0 0 0 0 0 0 0 0 0 0 0 0 0 0 0 0 0 0 0 0 0 0 0 0 0 0 0 0 0 0
0 0 0 0 0 0 0 0 0 0 2 0 0 0 0 0 0 0 0 0 0 0 0 0 0 0 0 0 0 0 0 0 0 0 0 0 0 0 0 0 0 0 0 0 0 0 0
0 0 0 0 0 0 0 0 0 0 0 0 0 0 0 0 0 0 0 0 0 0 0 0 0 0 0 0 0 0 0 0 0 0 0 0 0 0 0 0 0 0 0 0 0 0 0
0 0 0 0 0 0 0 0 0 0 0 0 0 0 0 0 0 0 0 0 0 0 0 0 0 0 0 0 0 0 0 0 0 0 0 0 0 0 0 0 0 0 0 0 0 0 0
0 0 0 0 0 0 0 0 0 0 0 0 0 0 0 0 0 0 0 0 0 0 0 0 0 0 0 0 0 0 0 0 0 0 0 0 0 0 0 0 0 0 0 0 0 0 0
0 0 0 0 0 0 0 0 0 0 0 0 0 0 0 0 0 0 0 0 0 0 0 0 0 0 0 0 0 0 0 0 0 0 0 0 0 0 0 0 0 0 0 0 0 0 0
0 0 0 6 0 0 0 0 0 0 0 0 0 0 0 0 0 0 0 0 0 0 0 0 0 0 0 0 0 0 0 0 0 0 0 0 0 0 0 0 0 0 0 0 0 0 0
0 0 0 7 1 0 0 0 0 0 0 0 0 0 0 0 0 0 0 0 0 0 0 0 0 0 0 0 0 0 0 0 0 0 0 0 0 0 0 0 0 0 0 0 0 0 0

GFSGBSN_con_mucape_114.txt.gz
CAPE
167 71 74 104 110 84 71 95 114 114 95 81 53 59 22 14 19 13 1 20 145 40 34 26 3 1 0 0 0 0 25 0 0 0 0 0 0 0 0 0 0 0 0 0 0 0 0
63 81 119 140 165 107 71 119 60 71 53 59 75 53 51 14 9 8 1 50 157 59 54 24 1 0 0 0 1 10 5 0 0 0 0 0 0 0 0 0 0 0 0 0 0 0 0
84 147 213 194 170 147 115 129 21 45 35 75 88 53 56 15 35 32 122 176 87 63 16 13 2 0 0 0 0 0 0 0 0 0 0 0 0 0 0 0 0 0 0 0 0 0 0
119 217 271 279 128 128 150 146 26 28 14 97 75 34 16 37 38 48 195 107 37 4 14 17 0 0 0 0 0 0 0 0 0 0 0 0 0 0 0 0 0 0 0 0 0 0 0
121 147 268 216 162 235 160 87 120 34 20 63 63 22 9 56 63 53 84 56 24 7 8 7 0 0 0 0 0 0 0 0 0 0 0 0 0 0 0 0 0 0 0 0 0 0 0
61 66 127 65 197 265 75 52 49 162 106 76 16 4 19 62 54 49 25 57 18 1 13 0 0 0 0 0 0 0 0 0 0 0 0 0 0 0 0 0 0 0 0 0 0 0 0
32 8 55 28 141 124 44 2 22 36 74 30 0 41 287 366 43 25 13 16 0 2 0 0 0 0 0 0 0 0 0 0 0 0 0 0 0 0 0 0 0 0 0 0 0 0 0
72 2 26 13 78 98 56 23 38 42 50 0 0 136 248 142 47 1 3 0 0 0 0 0 0 0 0 0 0 0 0 0 0 0 0 0 0 0 0 0 0 0 0 0 0 0 0
19 1 13 32 64 30 32 45 79 79 7 0 0 34 86 31 7 14 5 0 0 0 0 0 0 0 0 0 0 0 0 0 0 0 0 0 0 0 0 0 0 0 0 0 0 0 1
2 0 18 27 18 30 48 54 24 0 0 6 0 2 15 3 0 1 0 0 0 0 0 0 0 0 0 0 0 0 0 0 0 0 0 0 0 0 0 0 0 0 0 0 0 0 0
1 0 22 27 18 23 10 4 0 0 3 44 0 0 0 2 0 0 0 0 0 0 0 0 0 0 0 0 0 0 0 0 0 0 0 0 0 0 0 0 0 0 0 0 0 0 0
1 12 24 23 17 15 13 1 5 40 22 17 11 2 0 0 0 0 0 0 0 0 0 0 0 0 0 0 0 3 3 1 0 0 0 0 0 0 0 0 0 0 0 0 0 0 0
16 23 18 14 27 14 4 4 0 0 0 4 0 0 0 0 0 0 0 0 0 0 0 0 0 0 0 0 0 1 1 0 0 0 0 0 0 0 0 0 0 0 0 0 0 0 0
24 18 25 9 32 19 12 16 2 4 16 0 0 0 0 0 0 0 0 0 0 0 0 0 0 0 0 0 0 3 0 0 0 0 0 0 0 0 0 0 0 0 0 0 0 0 0
6 27 30 27 30 20 8 23 26 20 0 0 0 0 0 0 0 0 0 0 0 0 0 0 0 0 0 0 0 0 0 0 0 0 0 0 0 0 0 0 0 0 0 0 0 0 0
1 8 1 12 17 0 0 5 21 21 0 0 0 0 0 0 0 0 0 0 0 0 0 0 0 0 0 0 0 0 0 0 0 0 0 0 0 0 0 0 0 0 0 0 0 0 0
0 0 1 0 0 0 0 0 3 6 0 0 0 0 0 0 0 0 0 0 0 0 0 0 0 0 0 0 0 0 0 0 0 0 0 0 0 0 0 0 0 0 0 0 0 0 0
0 0 0 0 0 0 0 0 0 0 0 0 0 0 0 0 0 0 0 0 0 0 0 0 0 0 0 0 0 0 0 0 0 0 0 0 0 0 0 0 0 0 0 0 0 0 0
0 0 0 0 0 0 0 0 0 0 0 0 0 0 0 0 0 0 0 0 0 0 0 0 0 0 0 0 0 0 0 0 0 0 0 0 0 0 0 0 0 0 0 0 0 0 0
0 0 0 0 0 0 0 0 0 0 0 0 0 0 0 0 0 0 0 0 0 0 0 0 0 0 0 0 0 0 0 0 0 0 0 0 0 0 0 0 0 0 0 0 0 0 0
0 0 0 0 0 0 0 0 0 0 0 0 0 0 0 0 0 0 0 0 0 0 0 0 0 0 0 0 0 0 0 0 0 0 0 0 0 0 0 0 0 0 0 0 0 0 0
0 0 0 0 0 0 0 0 0 0 0 0 0 0 0 0 0 0 0 0 0 0 0 0 0 0 0 0 0 0 0 0 0 0 0 0 0 0 0 0 0 0 0 0 0 0 0
0 0 0 0 0 0 0 0 0 0 0 0 0 0 0 0 0 0 0 0 0 0 0 0 0 0 0 0 0 0 0 0 0 0 0 0 0 0 0 0 0 0 0 0 0 0 0
0 0 0 0 0 0 0 0 0 0 0 0 0 0 0 0 0 0 0 0 0 0 0 0 0 0 0 0 0 0 0 0 0 0 0 0 0 0 0 0 0 0 0 0 0 0 0
0 0 0 0 0 0 0 0 0 0 0 0 0 0 0 0 0 0 0 0 0 0 0 0 0 0 0 0 0 0 0 0 0 0 0 0 0 0 0 0 0 0 0 0 0 0 0
0 0 0 0 0 0 0 0 0 0 0 0 0 0 0 0 0 0 0 0 0 0 0 0 0 0 0 0 0 0 0 0 0 0 0 0 0 0 0 0 0 0 0 0 0 0 0
0 0 0 0 1 0 0 0 0 0 0 0 0 0 0 0 0 0 0 0 0 0 0 0 0 0 0 0 0 0 0 0 0 0 0 0 0 0 0 0 0 0 0 0 0 0 0
0 0 0 0 8 1 0 0 0 0 0 0 0 0 0 0 0 0 0 0 0 0 0 0 0 0 0 0 0 0 0 0 0 0 0 0 0 0 0 0 0 0 0 0 0 0 0
0 0 0 0 9 9 1 0 0 0 0 0 0 0 0 0 0 0 0 0 0 0 0 0 0 0 0 0 0 0 0 0 0 0 0 0 0 0 0 0 0 0 0 0 0 0 0

GFSGBSN_con_mucape_117.txt.gz
CAPE
141 252 332 391 321 276 169 78 100 80 112 55 120 69 56 0 0 10 14 16 27 198 32 10 0 0 0 0 0 0 8 0 0 0 0 0 0 0 0 0 0 0 0 0 0 0 0
241 277 305 346 288 222 189 91 60 38 53 67 0 49 37 18 6 7 2 51 93 94 37 19 5 1 0 0 0 12 0 0 0 0 0 0 0 0 0 0 0 0 0 0 0 0 0
209 247 259 205 203 201 189 197 39 29 46 49 57 39 27 3 5 13 63 108 140 49 60 13 9 0 0 0 9 0 0 0 0 0 0 0 0 0 0 0 0 0 0 0 0 0 0
279 152 180 165 302 297 178 177 58 30 48 38 33 7 7 6 32 56 226 139 89 73 20 14 1 0 0 0 0 0 0 0 0 0 0 0 0 0 0 0 0 0 0 0 0 0 0
185 53 150 164 267 190 84 77 56 32 22 31 24 6 0 10 88 127 93 84 58 12 8 3 0 0 0 0 0 0 0 0 0 0 0 0 0 0 0 0 0 0 0 0 0 0 0
63 22 68 94 168 60 14 75 72 44 67 55 8 0 5 198 262 113 149 38 24 9 6 0 0 0 0 0 0 0 0 0 0 0 0 0 0 0 0 0 0 0 0 0 0 0 0
3 17 78 85 100 24 6 26 23 93 32 15 80 136 59 180 63 37 16 13 6 3 1 0 0 0 0 0 0 0 0 0 0 0 0 0 0 0 0 0 0 0 0 0 0 0 0
3 10 41 35 14 23 1 2 37 34 0 70 236 517 173 91 100 10 29 32 1 0 0 0 0 0 0 0 0 0 0 0 0 0 0 0 0 0 0 0 0 0 0 0 0 0 0
7 8 24 33 16 39 27 21 3 1 0 40 179 176 85 50 2 5 3 0 0 0 0 0 0 0 0 0 0 0 0 0 0 0 0 0 0 0 0 0 0 0 0 0 0 0 0
15 15 10 33 11 30 9 6 9 5 0 0 58 51 16 3 1 0 0 0 0 0 0 0 0 0 0 0 0 0 0 0 0 0 0 0 0 0 0 0 0 0 0 0 0 0 0
22 14 16 14 26 36 13 19 49 18 11 0 0 2 1 0 0 0 0 0 0 0 0 0 0 0 0 0 0 0 0 0 0 0 0 0 0 0 0 0 0 0 0 0 0 0 0
4 16 26 24 13 12 22 45 59 49 23 12 3 0 0 0 0 0 0 0 0 0 0 0 0 0 0 0 1 0 0 0 0 0 0 0 0 0 0 0 0 0 0 0 0 0 0
0 1 28 20 14 12 7 3 26 57 5 0 0 0 0 0 0 0 0 0 0 0 0 0 0 0 0 0 0 0 0 0 0 0 0 0 0 0 0 0 0 0 0 0 0 0 0
0 0 3 13 4 2 7 4 26 2 0 0 0 0 0 0 0 0 0 0 0 0 0 0 0 0 0 0 0 0 0 0 0 0 0 0 0 0 0 0 0 0 0 0 0 0 0
0 0 0 0 1 0 1 1 0 0 0 0 0 0 0 0 0 0 0 0 0 0 0 0 0 0 0 0 0 0 0 0 0 0 0 0 0 0 0 0 0 0 0 0 0 0 0
0 0 0 0 0 0 0 0 0 0 0 0 0 0 0 0 0 0 0 0 0 0 0 0 0 0 0 0 0 0 0 0 0 0 0 0 0 0 0 0 0 0 0 0 0 0 0
0 0 0 0 0 0 0 0 0 0 0 0 0 0 0 0 0 0 0 0 0 0 0 0 0 0 0 0 0 0 0 0 0 0 0 0 0 0 0 0 0 0 0 0 0 0 0
0 0 0 0 0 0 0 0 0 0 0 0 0 0 0 0 0 0 0 0 0 0 0 0 0 0 0 0 0 0 0 0 0 0 0 0 0 0 0 0 0 0 0 0 0 0 0
0 0 0 0 0 0 0 0 0 0 0 0 0 0 0 0 0 0 0 0 0 0 0 0 0 0 0 0 0 0 0 0 0 0 0 0 0 0 0 0 0 0 0 0 0 0 0
0 0 0 0 0 0 0 0 0 0 0 0 0 0 0 0 0 0 0 0 0 0 0 0 0 0 0 0 0 0 0 0 0 0 0 0 0 0 0 0 0 0 0 0 0 0 0
0 0 0 0 0 0 0 0 0 0 0 0 0 0 0 0 0 0 0 0 0 0 0 0 0 0 0 0 0 0 0 0 0 0 0 0 0 0 0 0 0 0 0 0 0 0 0
0 0 0 0 0 0 0 0 0 0 0 0 0 0 0 0 0 0 0 0 0 0 0 0 0 0 0 0 0 0 0 0 0 0 0 0 0 0 0 0 0 0 0 0 0 0 0
0 0 0 0 0 0 0 0 0 0 0 0 0 0 0 0 0 0 0 0 0 0 0 0 0 0 0 0 0 0 0 0 0 0 0 0 0 0 0 0 0 0 0 0 0 0 0
0 0 0 0 0 0 0 0 0 0 0 0 0 0 0 0 0 0 0 0 0 0 0 0 0 0 0 0 0 0 0 0 0 0 0 0 0 0 0 0 0 0 0 0 0 0 0
0 0 0 0 0 0 0 0 0 0 0 0 0 0 0 0 0 0 0 0 0 0 0 0 0 0 0 0 0 0 0 0 0 0 0 0 0 0 0 0 0 0 0 0 0 0 0
0 0 0 0 0 0 0 0 0 0 0 0 0 0 0 0 0 0 0 0 0 0 0 0 0 0 0 0 0 0 0 0 0 0 0 0 0 0 0 0 0 0 0 0 0 0 0
0 0 0 0 0 0 0 0 0 0 0 0 0 0 0 0 0 0 0 0 0 0 0 0 0 0 0 0 0 0 0 0 0 0 0 0 0 0 0 0 0 0 0 0 0 0 0
0 0 0 0 0 0 0 3 0 0 0 0 0 0 0 0 0 0 0 0 0 0 0 0 0 0 0 0 0 0 0 0 0 0 0 0 0 0 0 0 0 0 0 0 0 0 0
9 0 0 0 0 0 16 2 0 0 0 0 0 0 0 0 0 0 0 0 0 0 0 0 0 0 0 0 0 0 0 0 0 0 0 0 0 0 0 0 0 0 0 0 0 0 0